[[{"header":{"parameterUnit":"m.s-1","parameterCategory":1,"la1":30.6,"la2":29.2853,"lo1":-89.7004,"lo2":-87.6739,"dy":0.0162,"dx":0.0183,"nx":112,"ny":82,"refTime":"2023-09-20T00:00:00:Z","depth":0,"parameterNumber":2,"parameterNumberName":"U-component_of_WINDS"},"data":[0.0,0.0,0.0,0.0,0.0,0.0,0.0,0.0,0.0,0.0,0.0,0.0,0.0,0.0,0.0,0.0,0.0,0.0,0.0,0.0,0.0,0.0,0.0,0.0,0.0,0.0,0.0,0.0,0.0,0.0,0.0,0.0,0.0,0.0,0.0,0.0,0.0,0.0,0.0,0.0,0.0,0.0,0.0,0.0,0.0,0.0,0.0,0.0,0.0,0.0,0.0,0.0,0.0,0.0,0.0,0.0,0.0,0.0,0.0,0.0,0.0,0.0,0.0,0.0,0.0,0.0,0.0,0.0,0.0,0.0,0.0,0.0,0.0,0.0,0.0,0.0,0.0,0.0,0.0,0.0,0.0,0.0,0.0,0.0,0.0,0.0,0.0,0.0,0.0,0.0,1.4797,1.4744,1.5624,1.6023,1.5519,1.5695,1.5467,1.4623,0.0,0.0,0.0,0.0,0.0,0.0,0.0,0.0,0.0,0.0,0.0,0.0,0.0,0.0,0.0,0.0,0.0,0.0,0.0,0.0,0.0,0.0,0.0,0.0,0.0,0.0,0.0,0.0,0.0,0.0,0.0,0.0,0.0,0.0,0.0,0.0,0.0,0.0,0.0,0.0,0.0,0.0,0.0,0.0,0.0,0.0,0.0,0.0,0.0,0.0,0.0,0.0,0.0,0.0,0.0,0.0,0.0,0.0,0.0,0.0,0.0,0.0,0.0,0.0,0.0,0.0,0.0,0.0,0.0,0.0,0.0,0.0,0.0,0.0,0.0,0.0,0.0,0.0,0.0,0.0,0.0,0.0,0.0,0.0,0.0,0.0,0.0,0.0,0.0,0.0,0.0,0.0,0.0,0.0,0.0,0.0,0.0,0.0,0.0,0.0,0.0,0.0,0.0,0.0,1.4075,1.5174,1.544,1.5622,1.5812,1.5607,1.53,1.4876,0.0,0.0,0.0,0.0,0.0,0.0,0.0,0.0,0.0,0.0,0.0,0.0,0.0,0.0,0.0,0.0,0.0,0.0,0.0,0.0,0.0,0.0,0.0,0.0,0.0,0.0,0.0,0.0,0.0,0.0,0.0,0.0,0.0,0.0,0.0,0.0,0.0,0.0,0.0,0.0,0.0,0.0,0.0,0.0,0.0,0.0,0.0,0.0,0.0,0.0,0.0,0.0,0.0,0.0,0.0,0.0,0.0,0.0,0.0,0.0,0.0,0.0,0.0,0.0,0.0,0.0,0.0,0.0,0.0,0.0,0.0,0.0,0.0,0.0,0.0,0.0,0.0,0.0,0.0,0.0,0.0,0.0,0.0,0.0,0.0,0.0,0.0,0.0,0.0,0.0,0.0,0.0,0.0,0.0,0.0,0.0,0.0,0.0,0.0,0.0,0.0,0.0,0.0,1.3928,1.425,1.5288,1.5402,1.5475,1.5622,1.549,1.5198,1.4721,1.4565,0.0,0.0,0.0,0.0,0.0,0.0,0.0,0.0,0.0,0.0,0.0,0.0,0.0,0.0,0.0,0.0,0.0,0.0,0.0,0.0,0.0,0.0,0.0,0.0,0.0,0.0,0.0,0.0,0.0,0.0,0.0,0.0,0.0,0.0,0.0,0.0,0.0,0.0,0.0,0.0,0.0,0.0,0.0,0.0,0.0,0.0,0.0,0.0,0.0,0.0,0.0,0.0,0.0,0.0,0.0,0.0,0.0,0.0,0.0,0.0,0.0,0.0,0.0,0.0,0.0,0.0,0.0,0.0,0.0,0.0,0.0,0.0,0.0,0.0,0.0,0.0,0.0,0.0,0.0,0.0,0.0,0.0,0.0,0.0,0.0,0.0,0.0,0.0,0.0,0.0,0.0,0.0,0.0,0.0,0.0,0.0,0.0,0.0,0.0,0.0,0.0,0.0,1.4511,1.4661,1.5255,1.5361,1.5402,1.5402,1.5344,1.5052,1.4521,1.4438,0.0,0.0,0.0,0.0,0.0,0.0,0.0,0.0,0.0,0.0,0.0,0.0,0.0,0.0,0.0,0.0,0.0,0.0,0.0,0.0,0.0,0.0,0.0,0.0,0.0,0.0,0.0,0.0,0.0,0.0,0.0,0.0,0.0,0.0,0.0,0.0,0.0,0.0,0.0,0.0,0.0,0.0,0.0,0.0,0.0,0.0,0.0,0.0,0.0,0.0,0.0,0.0,0.0,0.0,0.0,0.0,0.0,0.0,0.0,0.0,0.0,0.0,0.0,0.0,0.0,0.0,0.0,0.0,0.0,0.0,0.0,0.0,0.0,0.0,0.0,0.0,0.0,0.0,0.0,0.0,0.0,0.0,0.0,0.0,0.0,0.0,0.0,0.0,0.0,0.0,0.0,0.0,0.0,0.0,0.0,0.0,0.0,0.0,0.0,0.0,0.0,0.0,1.4302,1.5053,1.5131,1.5277,1.5402,1.5402,1.5104,1.4818,1.4526,1.4199,0.0,0.0,0.0,0.0,0.0,0.0,0.0,0.0,0.0,0.0,0.0,0.0,0.0,0.0,0.0,0.0,0.0,0.0,0.0,0.0,0.0,0.0,0.0,0.0,0.0,0.0,0.0,0.0,0.0,0.0,0.0,0.0,0.0,0.0,0.0,0.0,0.0,0.0,0.0,0.0,0.0,0.0,0.0,0.0,0.0,0.0,0.0,0.0,0.0,0.0,0.0,0.0,0.0,0.0,0.0,0.0,0.0,0.0,0.0,0.0,0.0,0.0,0.0,0.0,0.0,0.0,0.0,0.0,0.0,0.0,0.0,0.0,0.0,0.0,0.0,0.0,0.0,0.0,0.0,0.0,0.0,0.0,0.0,0.0,0.0,0.0,0.0,0.0,0.0,0.0,0.0,0.0,0.0,0.0,0.0,0.0,0.0,0.0,0.0,0.0,0.0,0.0,1.4085,1.4716,0.0,1.5277,1.5402,1.5402,1.5279,1.5008,1.4521,0.0,0.0,0.0,0.0,0.0,0.0,0.0,0.0,0.0,0.0,0.0,0.0,0.0,0.0,0.0,0.0,0.0,0.0,0.0,0.0,0.0,0.0,0.0,0.0,0.0,0.0,0.0,0.0,0.0,0.0,0.0,0.0,0.0,0.0,0.0,0.0,0.0,0.0,0.0,0.0,0.0,0.0,0.0,0.0,0.0,0.0,0.0,0.0,0.0,0.0,0.0,0.0,0.0,0.0,0.0,0.0,0.0,0.0,0.0,0.0,0.0,0.0,0.0,0.0,0.0,0.0,0.0,0.0,0.0,0.0,0.0,0.0,0.0,0.0,0.0,0.0,0.0,0.0,0.0,0.0,0.0,0.0,0.0,0.0,0.0,0.0,0.0,0.0,0.0,0.0,0.0,0.0,0.0,0.0,0.0,0.0,0.0,0.0,0.0,0.0,0.0,0.0,1.333,1.3959,1.4461,0.0,1.5131,1.5298,1.5298,1.5192,1.494,1.454,0.0,0.0,0.0,0.0,0.0,0.0,0.0,0.0,0.0,0.0,0.0,0.0,0.0,0.0,0.0,0.0,0.0,0.0,0.0,0.0,0.0,0.0,0.0,0.0,0.0,0.0,0.0,0.0,0.0,0.0,0.0,0.0,0.0,0.0,0.0,0.0,0.0,0.0,0.0,0.0,0.0,0.0,0.0,0.0,0.0,0.0,0.0,0.0,0.0,0.0,0.0,0.0,0.0,0.0,0.0,0.0,0.0,0.0,0.0,0.0,0.0,0.0,0.0,0.0,0.0,0.0,0.0,0.0,0.0,0.0,0.0,0.0,0.0,0.0,0.0,0.0,0.0,0.0,0.0,0.0,0.0,0.0,0.0,0.0,0.0,0.0,0.0,0.0,0.0,0.0,0.0,0.0,0.0,0.0,0.0,0.0,0.0,0.0,0.0,0.0,0.0,0.0,1.3193,1.3892,1.4391,1.4391,1.4824,1.511,1.511,1.4738,1.4511,0.0,0.0,0.0,0.0,0.0,0.0,0.0,0.0,0.0,0.0,0.0,0.0,0.0,0.0,0.0,0.0,0.0,0.0,0.0,0.0,0.0,0.0,0.0,0.0,0.0,0.0,0.0,0.0,0.0,0.0,0.0,0.0,0.0,0.0,0.0,0.0,0.0,0.0,0.0,0.0,0.0,0.0,0.0,0.0,0.0,0.0,0.0,0.0,0.0,0.0,0.0,0.0,0.0,0.0,0.0,0.0,0.0,0.0,0.0,0.0,0.0,0.0,0.0,0.0,0.0,0.0,0.0,0.0,0.0,0.0,0.0,0.0,0.0,0.0,0.0,0.0,0.0,0.0,0.0,0.0,0.0,0.0,0.0,0.0,0.0,0.0,0.0,0.0,0.0,0.0,0.0,0.0,0.0,0.0,0.0,0.0,0.0,0.0,0.0,0.0,0.0,0.0,0.0,1.3474,1.4014,1.4391,1.4391,1.4824,1.511,1.511,1.5124,1.4894,1.4311,0.0,0.0,0.0,0.0,0.0,0.0,0.0,0.0,0.0,0.0,0.0,0.0,0.0,0.0,0.0,0.0,0.0,0.0,0.0,0.0,0.0,0.0,0.0,0.0,0.0,0.0,0.0,0.0,0.0,0.0,0.0,0.0,0.0,0.0,0.0,0.0,0.0,0.0,0.0,0.0,0.0,0.0,0.0,0.0,0.0,0.0,0.0,0.0,0.0,0.0,0.0,0.0,0.0,0.0,0.0,0.0,0.0,0.0,0.0,0.0,0.0,0.0,0.0,0.0,0.0,0.0,0.0,0.0,0.0,0.0,0.0,0.0,0.0,0.0,0.0,0.0,0.0,0.0,0.0,0.0,0.0,0.0,0.0,0.0,0.0,0.0,0.0,0.0,0.0,0.0,0.0,0.0,0.0,0.0,0.0,0.0,0.0,0.0,0.0,0.0,0.0,0.0,1.3573,1.3999,1.4279,1.4279,1.4594,1.4824,1.4824,1.4898,1.4752,1.428,0.0,0.0,0.0,0.0,0.0,0.0,0.0,0.0,0.0,0.0,0.0,0.0,0.0,0.0,0.0,0.0,0.0,0.0,0.0,0.0,0.0,0.0,0.0,0.0,0.0,0.0,0.0,0.0,0.0,0.0,0.0,0.0,0.0,0.0,0.0,0.0,0.0,0.0,0.0,0.0,0.0,0.0,0.0,0.0,0.0,0.0,0.0,0.0,0.0,0.0,0.0,0.0,0.0,0.0,0.0,0.0,0.0,0.0,0.0,0.0,0.0,0.0,0.0,0.0,0.0,0.0,0.0,0.0,0.0,0.0,0.0,0.0,0.0,0.0,0.0,0.0,0.0,0.0,0.0,0.0,0.0,0.0,0.0,0.0,0.0,0.0,0.0,0.0,0.0,0.0,0.0,0.0,0.0,0.0,0.0,0.0,0.0,0.0,0.0,0.0,0.0,0.0,1.3653,1.394,1.4143,1.4143,1.4292,1.4391,1.4391,1.4351,1.4307,1.4258,0.0,0.0,0.0,0.0,0.0,0.0,0.0,0.0,0.0,0.0,0.0,0.0,0.0,0.0,0.0,0.0,0.0,0.0,0.0,0.0,0.0,0.0,0.0,0.0,0.0,0.0,0.0,0.0,0.0,0.0,0.0,0.0,0.0,0.0,0.0,0.0,0.0,0.0,0.0,0.0,0.0,0.0,0.0,0.0,0.0,0.0,0.0,0.0,0.0,0.0,0.0,0.0,0.0,0.0,0.0,0.0,0.0,0.0,0.0,0.0,1.0122,0.0,0.0,0.0,0.0,0.0,0.0,0.0,0.0,0.0,0.0,0.0,0.0,0.0,0.0,0.0,0.0,0.0,0.0,0.0,0.0,0.0,0.0,0.0,0.0,0.0,0.0,0.0,0.0,0.0,0.0,0.0,0.0,0.0,0.0,0.0,0.0,0.0,0.0,0.0,0.0,0.0,1.4274,1.4367,1.4407,1.4407,1.4414,1.4391,1.4391,1.4525,1.4448,1.4089,1.3931,0.0,0.0,0.0,0.0,0.0,0.0,0.0,0.0,0.0,0.0,0.0,0.0,0.0,0.0,0.0,0.0,0.0,0.0,0.0,0.0,0.0,0.0,0.0,0.0,0.0,0.0,0.0,0.0,0.0,0.0,0.0,0.0,0.0,0.0,0.0,0.0,0.0,0.0,0.0,0.0,0.0,0.0,0.0,0.0,0.0,0.0,0.0,0.0,0.0,0.0,0.0,0.0,0.0,0.0,0.0,0.0,0.0,0.0,0.0,0.0,1.0554,0.0,0.0,0.0,0.0,0.0,0.0,0.0,0.0,0.0,0.0,0.0,0.0,0.0,0.0,0.0,0.0,0.0,0.0,0.0,0.0,0.0,0.0,0.0,0.0,0.0,0.0,0.0,0.0,0.0,0.0,0.0,0.0,0.0,0.0,0.0,0.0,0.0,0.0,0.0,0.0,1.4705,1.4603,1.4501,1.4501,1.4362,1.4258,1.4258,1.4342,1.4308,1.4062,1.3892,0.0,0.0,0.0,0.0,0.0,0.0,0.0,0.0,0.0,0.0,0.0,0.0,0.0,0.0,0.0,0.0,0.0,0.0,0.0,0.0,0.0,0.0,0.0,0.0,0.0,0.0,0.0,0.0,0.0,0.0,0.0,0.0,0.0,0.0,0.0,0.0,0.0,0.0,0.0,0.0,0.0,0.0,0.0,0.0,0.0,0.0,0.0,0.0,0.0,0.0,0.0,0.0,0.0,1.2011,1.2117,1.2117,1.2117,1.2117,1.2088,1.1567,1.1321,1.1283,1.1047,0.0,0.0,0.0,0.0,0.0,0.0,0.0,0.0,0.0,0.0,0.0,0.0,0.0,0.0,0.0,0.0,0.0,0.0,0.0,0.0,0.0,0.0,0.0,0.0,1.3821,1.3676,0.0,0.0,0.0,0.0,0.0,0.0,0.0,0.0,0.0,0.0,0.0,0.0,1.4932,1.479,1.4647,1.4647,1.4362,1.4162,1.4162,1.4143,1.4103,1.4103,1.3834,1.368,0.0,0.0,0.0,0.0,0.0,0.0,0.0,0.0,0.0,0.0,0.0,0.0,0.0,0.0,0.0,0.0,0.0,0.0,0.0,0.0,0.0,0.0,0.0,0.0,0.0,0.0,0.0,0.0,0.0,0.0,0.0,0.0,0.9985,1.0153,0.0,0.0,0.0,0.0,0.0,0.0,0.0,0.0,0.0,0.0,0.0,0.0,0.0,1.1947,1.1947,1.2569,1.2804,1.2634,1.3202,1.3438,1.3438,1.3438,1.3438,1.3429,1.3173,0.0,1.1683,1.1321,0.0,0.0,0.0,0.0,0.0,0.0,0.0,0.0,0.0,0.0,0.0,0.0,0.0,0.0,0.0,0.0,0.0,0.0,0.0,0.0,0.0,0.0,1.4147,1.4183,1.422,1.4195,0.0,1.3652,1.3256,1.2991,1.298,0.0,0.0,0.0,0.0,0.0,0.0,0.0,1.5035,1.515,1.5284,1.5284,1.479,1.4447,1.4447,1.4229,1.4103,1.4103,1.4055,1.4028,1.4028,1.3988,0.0,0.0,0.0,0.0,0.0,0.0,0.0,0.0,0.0,0.0,0.0,0.0,0.0,0.0,0.0,0.0,0.0,0.0,0.0,0.0,0.0,0.0,0.0,0.0,0.0,0.0,0.0,0.0,0.0,1.0351,1.051,1.0072,1.0212,1.0254,0.0,0.0,0.0,0.0,0.0,0.0,0.0,0.0,0.0,1.2502,1.2616,1.2776,1.3013,1.34,1.3551,1.3476,1.3854,1.4043,1.4043,1.4043,1.4043,1.4024,1.3825,1.3542,1.3145,1.223,1.202,1.2181,0.0,0.0,0.0,0.0,1.1992,1.2271,1.3001,1.3116,0.0,0.0,0.0,0.0,0.0,0.0,0.0,0.0,0.0,0.0,0.0,0.0,0.0,1.5185,1.5185,1.5149,1.5004,1.4799,1.4449,0.0,1.3793,1.3928,1.4082,0.0,0.0,0.0,0.0,1.5568,1.5471,1.5541,1.5578,1.5418,1.5017,1.4696,1.4514,1.4381,1.4255,1.4116,1.4242,1.4322,1.4322,1.4322,1.4269,0.0,0.0,0.0,0.0,0.0,0.0,0.0,0.0,0.0,0.0,0.0,0.0,0.0,0.0,0.0,0.0,0.0,0.0,0.0,0.0,0.0,0.0,0.0,0.0,0.0,0.0,0.0,0.0,1.1029,1.1185,1.032,1.0776,1.0931,0.0,0.0,0.0,0.0,0.0,0.0,1.245,1.2376,1.272,1.3523,1.3628,1.3769,1.4081,1.4298,1.4374,1.4326,1.4534,1.4629,1.4629,1.4572,1.4512,1.4534,1.4248,1.4229,1.4307,1.3126,1.2814,1.2994,1.254,1.2437,1.2569,1.2569,1.2607,1.2756,1.3498,1.3533,1.3312,1.3784,0.0,1.3186,1.2848,0.0,0.0,0.0,0.0,1.5125,1.5584,1.5801,1.5936,1.5997,1.5934,1.5837,1.5644,1.5547,1.5273,0.0,1.4584,1.4644,1.4466,0.0,0.0,0.0,0.0,1.5981,1.5821,1.5875,1.5781,1.5431,1.5227,1.4946,1.4527,1.4501,1.4407,1.4215,1.4381,1.4527,1.4629,1.4629,1.4559,1.4435,0.0,0.0,0.0,0.0,0.0,0.0,0.0,0.0,0.0,0.0,0.0,0.0,0.0,0.0,0.0,0.0,0.0,0.0,0.0,0.0,0.0,0.0,0.0,0.0,0.0,0.0,0.0,0.0,0.0,1.139,1.19,0.0,0.0,0.0,0.0,1.1921,1.2239,1.2738,1.3484,1.3707,1.4109,1.4795,1.4993,1.5096,1.5125,1.5409,1.5375,1.5144,1.5428,1.5532,1.5523,1.5281,1.5153,1.5134,1.4738,1.4578,1.4521,1.3693,1.3457,1.3599,1.3212,1.306,1.306,1.306,1.3193,1.3431,1.3975,1.4139,1.4265,1.5125,1.5073,1.4703,1.4741,1.4782,0.0,0.0,1.5825,1.5897,1.6202,1.6093,1.5946,1.6226,1.6093,1.5885,1.5873,1.568,1.5382,0.0,1.4974,1.5058,1.5285,0.0,1.5835,1.5784,1.6262,1.646,1.5875,1.6072,1.6056,1.5458,1.5378,1.5137,1.4541,1.4501,1.4487,1.4474,1.4487,1.4643,1.4959,1.4959,1.4736,1.4239,1.4204,0.0,0.0,0.0,0.0,0.0,0.0,0.0,0.0,0.0,0.0,0.0,0.0,0.0,0.0,0.0,0.0,0.0,0.0,0.0,0.0,0.0,0.0,0.0,0.0,0.0,0.0,0.0,0.0,1.2441,1.3074,0.0,1.2758,1.2952,1.319,1.3398,1.3818,1.422,1.4618,1.4866,1.5087,1.5328,1.5404,1.5441,1.5441,1.5551,1.5551,1.5441,1.556,1.5598,1.5589,1.5337,1.52,1.5191,1.5049,1.4908,1.4785,1.4616,1.4383,1.4071,1.3929,1.3863,1.3863,1.3863,1.392,1.4017,1.4191,1.4099,1.3937,1.4229,1.4155,1.4029,1.4806,1.503,1.5198,1.594,1.6163,1.6223,1.6489,1.6477,1.6392,1.6335,1.6238,1.6118,1.5948,1.5813,1.5719,1.5603,1.544,1.5283,1.5169,1.5702,1.6102,1.5875,1.652,1.6805,1.6192,1.6366,1.6326,1.5715,1.5511,1.5231,1.4843,1.4629,1.4501,1.4501,1.4696,1.4812,1.4748,1.4748,1.4483,1.3942,1.3763,1.3536,0.0,0.0,0.0,0.0,0.0,0.0,0.0,0.0,0.0,0.0,0.0,0.0,0.0,0.0,0.0,0.0,0.0,0.0,0.0,0.0,0.0,0.0,0.0,0.0,0.0,1.3406,1.3898,1.331,1.4166,1.4548,1.3974,1.4332,1.4633,1.4772,1.51,1.5441,1.564,1.5826,1.5911,1.5911,1.5911,1.5873,1.5807,1.5807,1.5807,1.5807,1.5807,1.5769,1.5693,1.5441,1.53,1.5191,1.5125,1.5021,1.4908,1.504,1.4814,1.4389,1.4389,1.4389,1.438,1.4336,1.4307,1.4339,1.4558,1.4542,1.4441,1.4438,1.43,1.4298,1.5182,1.5491,1.5698,1.6275,1.6573,1.6706,1.6706,1.6767,1.6742,1.6396,1.6311,1.6238,1.5972,1.5885,1.5885,1.5885,1.5765,1.5551,1.5344,1.5859,1.6279,1.6171,1.6765,1.7011,1.65,1.658,1.6422,1.5728,1.5605,1.5328,1.479,1.4705,1.4586,1.4405,1.4598,1.4698,1.4644,1.4621,1.4379,1.3831,1.3577,1.338,1.325,0.0,0.0,0.0,0.0,0.0,0.0,0.0,0.0,0.0,0.0,0.0,0.0,0.0,0.0,0.0,0.0,0.0,0.0,0.0,0.0,0.0,0.0,0.0,1.3278,1.4194,1.4697,1.406,1.5147,1.5665,1.4925,1.5531,1.5939,1.592,1.6129,1.6337,1.6517,1.6536,1.6536,1.6526,1.6526,1.6396,1.6197,1.6188,1.6223,1.6178,1.6178,1.61,1.5882,1.5684,1.5432,1.5191,1.4993,1.4908,1.4898,1.4908,1.4795,1.4606,1.4606,1.4597,1.4568,1.4383,1.4339,1.4464,1.511,1.5576,1.5905,1.5905,1.5785,1.5706,1.6049,1.6314,1.6552,1.6693,1.708,1.7387,1.6839,1.6899,1.6948,1.6444,1.6323,1.6251,1.597,1.591,1.591,1.591,1.591,1.5905,1.5911,1.6124,1.6396,1.6665,1.7003,0.0,1.6743,1.6688,1.6355,1.5501,1.5611,1.5355,1.43,1.4695,1.4763,1.4244,1.4208,1.4358,1.4671,1.4684,1.4454,1.3894,1.3633,1.3497,1.3497,0.0,0.0,0.0,0.0,0.0,0.0,0.0,0.0,0.0,0.0,0.0,0.0,0.0,0.0,0.0,0.0,0.0,0.0,0.0,0.0,0.0,1.4317,1.47,1.4616,1.5328,1.587,1.5988,1.6464,1.6681,1.6495,1.6766,1.6868,1.6566,1.6878,1.6972,1.6727,1.6859,1.6868,1.6717,1.6717,1.6613,1.6441,1.6432,1.633,1.6214,1.6062,1.5949,1.5882,1.5489,1.5257,1.52,1.5144,1.503,1.4908,1.5059,1.5002,1.4804,1.4663,1.4502,1.4424,1.4858,1.5307,1.5691,1.5729,1.5807,1.5944,1.625,1.6298,1.6349,1.6926,1.7167,1.722,1.7281,1.7266,1.7165,1.702,1.6899,1.6767,1.6622,1.6585,1.6561,1.6489,1.6477,1.6477,1.6477,1.6477,1.6359,1.5968,1.6288,1.6631,1.6687,1.7134,0.0,1.6767,1.6519,1.6246,1.5814,1.525,1.4905,1.4797,1.4567,1.4432,1.449,1.449,1.4482,1.4418,1.4395,1.4155,1.361,1.3542,1.3497,0.0,0.0,0.0,0.0,0.0,0.0,0.0,0.0,0.0,0.0,0.0,0.0,0.0,0.0,0.0,0.0,0.0,0.0,0.0,0.0,0.0,0.0,1.5517,1.6049,1.6332,1.65,1.6689,1.7029,1.7284,1.7463,1.7463,1.7576,1.7548,1.7303,1.751,1.7539,1.7303,1.7312,1.7312,1.719,1.702,1.6868,1.6745,1.6566,1.6424,1.6301,1.6129,1.5977,1.5882,1.5602,1.5451,0.0,1.5238,1.5181,1.5219,1.5427,1.5462,0.0,0.0,0.0,0.0,0.0,1.5902,1.6323,1.62,1.6335,1.6612,1.6849,1.692,1.6956,1.7259,1.7423,1.7443,1.7213,1.7201,1.7201,1.6984,1.6972,1.6972,1.6754,1.6791,1.6839,1.6718,1.6706,1.6706,1.6706,0.0,0.0,1.6103,1.6324,1.6566,1.6673,1.6892,1.6937,1.6562,1.6394,1.6189,1.5922,1.5338,1.4961,1.4879,1.459,0.0,0.0,0.0,1.4255,1.4139,1.4116,0.0,0.0,0.0,1.3845,1.3845,0.0,0.0,0.0,1.4075,1.422,0.0,0.0,0.0,0.0,0.0,0.0,0.0,0.0,0.0,0.0,0.0,0.0,0.0,0.0,0.0,0.0,1.6963,1.7595,1.7991,1.7615,1.7331,1.7444,1.7803,1.8038,1.801,1.8048,1.8057,1.801,1.8029,1.8038,1.801,0.0,0.0,0.0,0.0,1.7161,1.7142,1.6745,1.6574,1.6519,1.6346,1.6138,1.593,1.5901,1.5788,1.5589,1.5356,1.5442,1.574,1.5985,1.61,1.6061,1.4952,1.5082,1.5908,1.6078,1.6391,1.6718,1.6718,0.0,0.0,1.7539,1.7556,1.7508,1.7213,1.7298,1.7411,1.6923,1.7129,1.7399,1.6911,1.7129,1.7399,1.6899,1.6972,1.7068,1.6839,1.6791,1.6779,1.6754,1.6537,1.6384,1.6359,1.6326,1.6372,1.6629,1.6473,1.6343,1.6289,1.6264,1.6163,1.5922,0.0,0.0,1.4825,1.4726,1.4507,1.4051,1.4014,1.3978,1.3954,1.3954,1.4063,1.4292,1.4328,1.434,1.434,1.4377,1.4389,1.4389,1.4352,1.4473,0.0,0.0,0.0,0.0,0.0,0.0,0.0,0.0,0.0,0.0,0.0,0.0,0.0,0.0,0.0,1.6774,1.7454,1.7972,1.8297,1.8383,1.8258,1.7925,1.8144,1.8229,1.802,1.8352,1.8418,1.8038,1.8201,1.822,1.802,1.7972,1.7944,1.7944,1.7699,1.753,1.7322,1.7114,1.6906,1.6736,0.0,0.0,1.6148,1.5977,1.5788,1.5589,1.5551,1.589,1.6506,1.655,1.6809,1.7129,1.6308,1.6416,1.6996,1.703,1.7433,1.7948,1.7948,1.8039,1.8094,1.7907,1.7822,1.7774,1.7491,1.7472,0.0,1.7358,1.7436,1.7484,1.7358,1.7406,1.7455,1.7358,1.737,1.7423,1.7375,1.7363,1.7274,1.7056,1.6972,1.6863,1.6658,1.6451,1.6318,1.6371,1.6508,1.6525,1.6329,1.6103,1.5951,1.5901,1.5472,1.5215,1.5334,1.4958,1.4752,1.4859,1.4654,1.4461,1.4232,1.422,1.4244,1.4292,1.4521,1.4605,1.4605,1.4847,1.4956,1.4944,1.4714,1.4642,0.0,0.0,0.0,0.0,0.0,0.0,0.0,0.0,0.0,0.0,0.0,1.5063,1.5479,0.0,1.6878,1.7615,1.8087,1.8636,1.9434,1.9524,1.9163,1.8288,1.843,1.8515,1.8371,1.855,1.8588,1.838,1.8456,1.8475,1.8371,1.8258,1.84,1.8797,1.8199,1.7941,1.8153,1.7559,1.7161,1.6953,1.7138,1.7191,1.7129,1.7414,1.742,1.7206,1.7085,1.7241,1.7565,1.765,1.8006,1.8463,1.7958,1.7651,1.7536,1.7879,1.8118,1.83,1.83,1.8203,1.8088,1.7943,1.781,1.7677,1.7556,1.7508,1.7508,1.7508,1.7508,1.7508,1.7508,1.7508,1.7508,1.7508,1.7508,1.7508,1.7508,1.7508,1.7436,1.7141,1.6984,1.6803,1.6537,1.6381,1.6306,1.6306,1.6291,1.6258,1.6137,1.5988,1.5911,1.59,1.5535,1.5354,1.5487,1.5137,1.4968,1.5101,1.4955,1.4847,1.4714,1.4702,1.4702,1.4702,1.4835,1.4908,1.4908,1.504,1.5113,1.5113,1.5113,1.5113,0.0,0.0,0.0,0.0,0.0,0.0,0.0,1.4288,1.444,1.5162,1.5687,1.6202,1.685,1.7501,1.8144,1.8854,1.9194,1.9775,2.0743,2.0713,2.017,1.916,1.9157,1.9204,1.9204,1.9204,1.9204,1.9204,1.9204,1.9204,1.9204,1.9029,1.9253,1.9895,1.9046,1.8809,1.9292,1.8375,1.7844,1.7707,1.8161,1.8324,1.8309,1.8899,1.904,1.8803,1.8731,1.8657,1.8624,1.8971,1.9324,1.9697,1.9382,1.8775,1.8172,1.8605,1.8625,1.8444,1.8444,1.83,1.8125,1.8076,1.7883,1.7653,1.7605,1.7556,1.7508,1.7508,1.7508,1.7508,1.7508,1.7508,1.7508,1.7508,1.7508,1.7508,1.7508,1.7508,1.7436,1.7141,1.6923,1.6682,1.6404,1.6384,1.6347,1.6251,1.6066,1.5946,1.5924,1.5885,1.5885,1.5885,1.5704,1.5559,1.5499,1.5354,1.5209,1.5113,1.5161,1.5161,1.5113,1.5113,1.5113,1.5113,1.5161,1.5185,1.5185,1.5234,1.5258,1.527,1.5475,1.5547,1.256,1.2767,1.3429,1.4455,1.4465,1.4676,0.0,1.6434,1.6301,1.6764,1.719,1.7731,1.8575,1.9253,1.9997,2.0837,2.1481,2.1831,2.1635,2.1518,2.1434,2.1351,2.1129,2.1011,2.1011,2.1011,2.1011,2.1011,2.1011,2.1011,2.1011,2.099,2.1009,2.109,2.0745,2.0618,2.0665,2.0139,1.9866,1.9834,1.9676,1.95,1.9313,1.9183,1.9004,1.8803,1.9223,1.939,1.9425,2.0178,2.0522,2.0519,2.0023,1.9739,1.9601,1.9205,1.9044,1.9019,1.9019,1.8995,1.8935,1.8705,1.842,1.8155,1.7931,1.7702,1.7508,1.7508,1.7508,1.7508,1.7508,1.7508,1.7508,1.7508,1.7508,1.7508,1.7508,1.7508,1.7436,1.7141,1.7068,1.696,1.6694,1.6658,1.6489,1.6006,1.6103,1.6178,1.5922,1.5885,1.5885,1.5885,1.5861,1.5753,1.5523,1.568,1.5608,1.5137,1.533,1.5354,1.5113,1.5113,1.5113,1.5113,1.533,1.5451,1.5451,1.5692,1.5801,1.5801,1.5825,1.5716,1.3625,1.3814,1.4194,1.5073,1.5749,1.6445,1.7454,1.7956,1.8383,1.9029,1.9503,2.0023,2.0695,2.1136,2.1493,2.1737,2.1856,2.2065,2.2352,2.2278,2.2407,2.3073,2.3074,2.2542,2.1427,2.1295,2.1295,2.1295,2.1295,2.1295,2.1295,2.1295,2.1406,2.1558,2.1115,2.0941,2.0979,2.0554,2.0225,1.9984,2.0483,2.06,2.0381,2.0774,2.0743,2.035,2.0251,2.012,1.999,2.0333,2.0386,2.0229,2.0011,1.9881,1.9854,1.931,1.9104,1.9104,1.9104,1.9007,1.8807,1.8541,1.8306,1.8028,1.7762,1.7605,1.7508,1.7508,1.7508,1.7508,1.7508,1.7508,1.7508,1.7508,1.7508,1.7508,1.7508,1.7667,1.7698,1.7428,1.7522,1.7493,1.7051,1.7125,1.7016,1.6444,1.6453,1.6489,1.638,1.6223,1.6054,1.5936,1.5885,1.5849,1.5741,1.5825,1.5801,1.5572,1.5668,1.568,1.5572,1.5559,1.5559,1.5559,1.5668,1.5728,1.5728,1.5837,1.5885,1.5885,1.5885,1.5917,1.4656,1.4996,1.5341,1.6353,1.7359,1.8228,1.8736,1.9399,2.013,2.0838,2.1292,2.1679,2.2327,2.2567,2.2631,2.2571,2.2523,2.2684,2.3178,2.3138,2.3311,2.3996,2.4017,2.3414,2.2023,2.2003,2.2081,2.2081,2.2014,2.1981,2.1981,2.1981,2.2094,2.2333,2.1942,2.171,2.1661,2.1383,2.1007,2.0622,2.1303,2.1572,2.1375,2.1842,2.1837,2.1377,2.0906,2.0591,2.0422,2.0422,2.0313,2.0098,2.0026,1.9989,1.9941,1.9503,1.9285,1.9201,1.9128,1.8983,1.879,1.8565,1.8354,1.8088,1.7907,1.7798,1.7708,1.7708,1.7708,1.7684,1.7641,1.7617,1.7605,1.7532,1.7508,1.7537,1.7608,1.7813,1.7969,1.7831,1.7979,1.8002,1.7601,1.7697,1.7674,1.7232,1.7122,1.6976,1.6718,1.6525,1.6347,1.6139,1.6115,1.6079,1.6033,1.5994,1.597,1.5897,1.5885,1.5885,1.5885,1.5885,1.5885,1.5885,1.5885,1.5885,1.5885,1.5885,1.5885,1.5885,1.5977,1.6111,1.537,1.6045,1.6785,1.8698,1.9346,1.9768,2.064,2.1028,2.1411,2.1949,2.2027,2.2235,2.309,2.3257,2.3398,2.3707,2.4164,2.4446,2.4193,2.4145,2.4049,2.3848,2.3595,2.3399,2.3348,2.3804,2.4104,2.4104,2.3864,2.372,2.372,2.372,2.372,2.3736,2.3708,2.3576,2.3339,2.3125,2.2872,2.2595,2.2392,2.2271,2.2247,2.174,2.1377,2.1087,2.0821,2.07,2.0688,2.0688,2.0688,2.0652,2.0398,2.0301,2.0265,1.9999,1.9721,1.9455,1.9201,1.9104,1.9092,1.9092,1.8911,1.8662,1.8681,1.8469,1.8263,1.8263,1.8263,1.8203,1.7968,1.7895,1.7822,1.7569,1.7508,1.7608,1.7914,1.8002,1.8077,1.8327,1.8373,1.8373,1.836,1.8373,1.8373,1.8331,1.814,1.7662,1.6823,1.6694,1.6682,1.6682,1.667,1.6561,1.6323,1.6299,1.619,1.5936,1.5885,1.5885,1.5885,1.5885,1.5885,1.5885,1.5885,1.5885,1.5885,1.5885,1.5885,1.5912,1.6164,1.6297,1.6445,1.7259,1.815,1.9405,2.0438,2.1288,2.1884,2.2665,2.3289,2.3476,2.3202,2.3056,2.3544,2.3478,2.344,2.376,2.4246,2.4499,2.4234,2.4342,2.4222,2.3619,2.3933,2.4053,2.3704,2.368,2.3824,2.4174,2.3945,2.3884,2.4053,2.3897,2.3728,2.3547,2.3547,2.3414,2.3188,2.313,2.2949,2.2683,2.2417,2.2212,2.203,2.1861,2.1631,2.1365,2.1075,2.0857,2.07,2.07,2.0603,2.0446,2.0531,2.0567,2.0519,2.005,1.982,1.9733,1.9467,1.9249,1.908,1.8911,1.8758,1.8613,1.8282,1.8113,1.801,1.801,1.8081,1.8108,1.8224,1.822,1.8206,1.8119,1.8094,1.8123,1.8252,1.8457,1.8619,1.8706,1.8923,1.8981,1.8765,1.8735,1.859,1.8194,1.806,1.7749,1.7037,1.696,1.6887,1.6718,1.6706,1.6658,1.6573,1.6561,1.6525,1.6441,1.6429,1.6344,1.6151,1.6178,1.6066,1.5897,1.5885,1.5885,1.5885,1.5885,1.6116,1.6488,1.6596,1.6813,1.8062,1.8968,1.9899,2.0909,2.1816,2.2525,2.2945,2.357,2.4101,2.4294,2.3764,2.3393,2.3619,2.3222,2.2872,2.2983,2.3442,2.3792,2.3804,2.4033,2.4053,2.3728,2.4053,2.4174,2.3836,2.3655,2.3728,2.4162,2.3945,2.3884,2.4041,2.3897,2.3728,2.3559,2.3559,2.3427,2.3188,2.313,2.2901,2.255,2.2381,2.2212,2.2042,2.1849,2.168,2.1498,2.1111,2.0857,2.07,2.07,2.0603,2.0458,2.0531,2.0567,2.0507,2.005,1.9854,1.9733,1.9455,1.9249,1.908,1.8911,1.8913,1.8947,1.8624,1.8576,1.8655,1.8557,1.8635,1.8729,1.8574,1.8711,1.8784,1.8462,1.8491,1.8571,1.8586,1.8765,1.8939,1.9055,1.9243,1.933,1.9127,1.9084,1.8923,1.8398,1.8311,1.8073,1.7336,1.7237,1.7165,1.6996,1.6984,1.6948,1.6851,1.6839,1.6803,1.6706,1.6706,1.6622,1.6441,1.6429,1.6356,1.6187,1.6175,1.6229,1.6365,1.6365,1.6626,1.7102,1.7211,1.7458,2.0097,2.1065,2.1873,2.3089,2.3427,2.3499,2.3752,2.38,2.3933,2.4391,2.3723,2.3046,2.3198,2.2476,2.1776,2.1547,2.1994,2.2574,2.3106,2.3357,2.3655,2.4138,2.3981,2.3824,2.3824,2.3812,2.3921,2.4198,0.0,2.3812,2.3848,2.3812,2.38,2.38,2.38,2.368,2.3439,2.3227,2.2816,2.2296,2.2296,2.2296,2.226,2.1776,2.1547,2.1486,2.0966,2.0736,2.0724,2.0712,2.07,2.0676,2.041,2.0347,2.0277,2.0032,1.9766,1.9499,1.9233,1.9136,1.9136,1.9136,1.936,1.9603,1.9623,1.9814,2.003,1.9763,1.9909,1.9909,1.9076,1.9285,1.9507,1.8673,1.8728,1.8962,1.8985,1.8978,1.9079,1.9383,1.9441,1.9441,1.9441,1.9428,1.9298,1.8965,1.8923,1.8561,1.7655,1.7537,1.7537,1.7537,1.7537,1.7441,1.7157,1.7145,1.7037,1.6754,1.6742,1.673,1.6718,1.6746,1.6746,1.6734,1.6734,1.689,1.7226,1.7226,1.7378,1.7642,1.7976,1.8143,2.1258,2.2112,2.2804,2.3282,2.3559,2.3728,2.3788,2.38,2.3668,2.3288,2.2345,2.1438,2.0895,2.0895,2.1184,2.1716,2.2705,2.3655,2.4391,2.4379,2.4258,2.4198,2.4138,2.4089,2.4089,2.3921,2.3993,0.0,2.4065,2.3969,2.4366,2.4017,2.38,2.38,2.38,2.3776,2.3704,2.3324,2.2816,2.2296,2.2296,2.2199,2.2006,2.2066,2.1885,2.1474,2.1365,2.1184,2.0978,2.0785,2.07,2.0711,2.0683,2.0675,2.066,2.0443,2.0283,2.0215,1.9952,1.9679,1.952,1.9743,1.9915,1.9928,1.9745,1.9744,1.9794,1.9718,1.9802,1.9853,1.984,1.9972,2.0007,1.9783,1.9826,1.9853,1.9877,1.988,1.988,1.9983,2.0013,2.0013,2.0013,1.9826,1.9561,1.9253,1.9041,1.8735,1.824,1.8152,1.8152,1.8152,1.8152,1.8069,1.7786,1.7773,1.762,1.7315,1.7315,1.7201,1.6996,1.724,1.7284,1.7086,1.7254,1.7393,1.7505,1.7505,1.7746,1.8261,1.8346,1.8516,2.2343,2.2971,2.343,2.3547,2.3692,2.368,2.3261,2.3237,2.3056,2.2175,2.1232,2.0446,1.9965,2.0156,2.0543,2.1111,2.2283,2.339,2.4198,2.427,2.4318,2.4523,2.4547,2.4547,2.4547,2.4415,2.4451,2.474,2.427,2.415,2.4559,2.4306,2.415,2.415,2.3921,2.3692,2.349,2.3118,2.2756,2.2465,2.2357,2.2224,2.2079,2.2115,2.1909,2.151,0.0,2.1384,2.1151,2.1178,2.1185,2.116,2.1093,2.1157,2.1195,2.0841,2.0704,2.0699,2.0547,2.0291,2.0062,2.0106,2.0202,2.0291,2.0123,2.0198,2.0297,2.018,2.0239,2.0323,2.0231,2.0394,2.0517,2.0264,2.0304,2.0388,2.0237,2.0197,2.0197,2.0197,2.0197,2.0197,2.0197,2.0064,1.9897,1.9704,1.9572,1.9368,1.906,1.8638,1.8386,1.8386,1.8386,1.834,1.8194,1.8165,1.8106,1.7918,1.7889,1.7827,1.7679,1.784,1.788,1.7729,1.7872,1.8014,1.8184,1.8184,1.8433,1.8876,1.8876,1.8975,2.3258,2.3631,2.38,2.38,2.3776,2.3487,2.2526,2.2417,2.2224,2.1111,2.0277,1.97,1.966,1.9712,1.995,2.0398,2.1522,2.2645,2.3547,2.3812,2.4198,2.4969,2.4993,2.4981,2.5053,2.4993,2.4981,2.5053,2.4583,2.4403,2.4632,2.4607,2.4571,2.4535,2.4089,2.3623,2.3082,2.2852,2.2707,2.2635,2.2405,2.2334,2.2371,2.214,2.191,2.1642,0.0,0.0,2.1311,2.1669,2.1794,2.1769,2.1556,2.1607,2.1748,2.1304,2.1145,2.1139,2.1143,2.0993,2.0706,2.0355,2.0425,2.0666,2.0666,2.0856,2.1056,2.0802,2.0909,2.0989,2.045,2.0691,2.0975,2.0437,2.0548,2.0668,2.037,2.0317,2.0317,2.0317,2.0317,2.0317,2.0317,2.029,2.0264,2.0264,2.0224,2.0117,1.9893,1.9129,1.8583,1.8544,1.8532,1.8502,1.8473,1.8473,1.8444,1.8386,1.8386,1.8386,1.8386,1.8444,1.8473,1.8473,1.8502,1.8677,1.8968,1.8968,1.9127,1.9401,1.9401,1.9401,2.3583,2.3764,2.38,2.38,2.3643,2.3258,2.249,2.1994,2.1353,2.0047,1.9322,1.8758,1.833,1.8802,1.9697,2.1063,2.203,2.3215,2.4812,2.4704,2.4668,2.5258,2.4933,2.4836,2.5282,2.4921,2.4849,2.5294,2.5041,2.4885,2.4933,2.4716,2.4487,2.427,2.4174,2.3804,2.3133,2.3034,2.2792,2.2369,2.232,2.2483,2.2781,2.2732,2.2631,2.2409,2.2418,0.0,2.1691,2.176,2.1794,2.1803,2.1794,2.1852,2.1885,2.1846,2.1826,2.1813,2.1825,2.1818,2.1652,2.111,2.0982,2.1014,2.1014,2.1046,2.1096,2.1042,2.1069,2.1082,2.0989,2.1029,2.1082,2.0975,2.1002,2.1015,2.0962,2.0949,2.0949,2.0949,2.0949,2.0949,2.0949,2.0762,2.0601,2.0601,2.0388,2.0184,2.013,1.9787,1.9479,1.924,1.9214,1.9127,1.8852,1.8823,1.8706,1.8415,1.8386,1.8386,1.8386,1.8677,1.8823,1.8823,1.9098,1.9243,1.9301,1.9301,1.933,1.9401,1.9401,1.9401,2.374,2.38,2.38,2.38,2.3402,2.2754,2.1716,2.1063,2.0301,1.8947,1.8553,1.836,1.798,1.8669,1.9612,2.0519,2.1462,2.2597,2.4138,2.4258,2.4427,2.5114,2.5077,2.5114,2.5367,2.5162,2.5114,2.5379,2.5282,2.521,2.521,2.4945,2.462,2.421,2.4065,2.3719,2.3133,2.2949,2.2858,2.2765,2.2656,2.2781,2.3154,2.3154,2.2962,2.2624,2.2839,0.0,2.207,2.2276,2.2379,2.2366,2.2406,2.2513,2.2619,2.2518,2.2479,2.2452,2.2271,2.2111,2.1937,2.1657,2.147,2.1341,2.1162,2.1109,2.1109,2.1109,2.1109,2.1109,2.1109,2.1109,2.1109,2.1109,2.1109,2.1109,2.1109,2.1109,2.1109,2.1109,2.1109,2.1109,2.1109,2.0989,2.0895,2.0895,2.0775,2.0641,2.0481,2.0468,2.0254,1.9653,1.9615,1.9503,1.9198,1.9156,1.9098,1.8923,1.8923,1.8923,1.8923,1.9068,1.9156,1.9156,1.9301,1.9401,1.9401,1.9401,1.9401,1.9401,1.9401,1.9401,2.3788,2.38,2.38,2.38,2.32,2.2272,2.099,2.0253,1.9479,1.8246,1.8143,1.8239,1.8113,1.8766,1.9479,1.9893,2.0761,2.1824,2.3294,2.368,2.4125,2.4981,2.527,2.5391,2.5391,2.5391,2.5391,2.5391,2.5476,2.5519,2.5391,2.5198,2.4861,2.4379,2.4134,2.379,2.3295,2.3082,2.3038,2.3241,2.3067,2.3191,2.3525,2.3525,2.3292,2.2875,2.3197,0.0,0.0,2.2756,2.2893,2.2893,2.2893,2.3041,2.3193,2.2987,2.2893,2.2867,2.2592,2.2365,2.2164,2.2098,2.1917,2.1622,2.1296,2.1203,2.1189,2.1122,2.1149,2.1189,2.1122,2.1203,2.1283,2.1216,2.1162,2.1122,2.1189,2.1203,2.1229,2.1283,2.1296,2.1283,2.1216,2.1203,2.1189,2.1122,2.1109,2.1029,2.0802,2.0962,2.0842,2.0147,2.0027,1.9867,1.9602,1.9522,1.9468,1.9401,1.9401,1.9401,1.9401,1.9401,1.9401,1.9401,1.9401,1.9401,1.9401,1.9401,1.9428,1.9495,1.9495,1.9522,2.374,2.38,2.38,2.38,2.3068,2.2042,2.0954,2.0096,1.9298,1.8432,1.8275,1.836,1.8596,1.8717,1.9116,2.0108,2.0555,2.1462,2.3475,2.3788,2.4186,2.5234,2.5379,2.5391,2.5391,2.5391,2.5391,2.5391,2.5805,2.5848,2.5433,2.5367,2.5222,2.4945,2.4796,2.4471,2.3928,2.3781,2.358,2.3365,2.334,2.3562,2.3933,2.3933,2.3841,2.3696,2.3732,0.0,0.0,2.2859,2.2893,2.2893,2.2893,2.292,2.2934,2.2907,2.2893,2.2893,2.2867,2.284,2.2773,2.2472,2.2178,2.193,2.1636,2.1542,2.1489,2.1189,2.1309,2.1475,2.1176,2.151,2.1877,2.1609,2.1309,2.1189,2.1489,2.1542,2.1622,2.1857,2.1911,2.185,2.1596,2.1542,2.1448,2.1149,2.1109,2.1096,2.1069,2.1096,2.1082,2.1002,2.0748,2.0468,2.0144,1.9907,1.9653,1.9415,1.9401,1.9401,1.9401,1.9401,1.9401,1.9401,1.9401,1.9401,1.9401,1.9401,1.9535,1.976,1.976,1.9907,2.3836,2.4041,2.4041,2.4041,2.3043,2.1825,2.0906,1.983,1.885,1.8197,1.833,1.8517,1.8456,1.8577,1.8819,1.9285,1.9443,2.0083,2.1704,2.1933,2.2561,2.4234,2.4439,2.4692,2.5331,2.5647,2.5945,2.6201,2.6401,2.6443,2.6243,2.6081,2.5795,2.5318,2.5094,2.4623,2.3894,2.382,2.3793,2.3748,2.3748,2.397,2.4377,2.4377,2.417,2.3803,2.3803,0.0,0.0,2.2893,2.2893,2.2893,2.2893,2.2893,2.2893,2.2893,2.2893,2.2893,2.2893,2.2893,2.288,2.2726,2.2639,2.2452,2.1984,2.185,2.1823,2.167,2.1724,2.1823,2.167,2.1804,2.1951,2.1877,2.1724,2.167,2.1823,2.185,2.1877,2.1964,2.1991,2.1984,2.1863,2.185,2.181,2.1657,2.163,2.163,2.163,2.163,2.163,2.163,2.1087,2.0659,2.0508,2.0227,2.0013,1.9893,1.988,1.988,1.988,1.988,1.988,1.988,1.988,1.988,1.988,1.988,1.9947,2.0024,2.0024,2.009,2.3659,2.4106,2.427,2.4113,2.2983,2.1692,2.0894,1.9733,1.8705,1.8234,1.8512,1.8778,1.8553,1.8674,1.8826,1.8826,1.8826,1.9273,2.0531,2.07,2.1341,2.3125,2.3381,2.3832,2.5033,2.5833,2.6486,2.6965,2.7008,2.7093,2.722,2.7026,2.6565,2.5804,2.5362,2.4905,2.438,2.4161,2.413,2.4311,2.4232,2.4341,2.4599,2.4599,2.4315,2.3803,0.0,0.0,0.0,2.2893,2.2893,2.2907,2.3,2.2974,2.2907,2.3,2.2974,2.2893,2.2893,2.2893,2.2893,2.2893,2.2893,2.2813,2.2398,2.2211,2.2098,2.2004,2.1991,2.2031,2.2238,2.2111,2.2004,2.2098,2.2044,2.2004,2.2098,2.2111,2.2138,2.2265,2.2278,2.2218,2.2124,2.2111,2.2084,2.2004,2.1991,2.1991,2.1991,2.1991,2.1991,2.1991,2.1462,2.102,2.0815,2.0535,2.029,2.021,2.0197,2.0197,2.0197,2.0197,2.0197,2.0197,2.0197,2.0197,2.0197,2.0197,2.025,2.0361,2.0361,2.0384,2.306,2.3816,2.4463,2.3933,2.285,2.1692,2.0894,1.9878,1.9032,1.8766,1.8923,1.9104,1.9104,1.9104,1.9104,1.9104,1.9104,1.9479,2.0555,2.07,2.1099,2.2187,2.232,2.2884,2.4365,2.5898,2.7008,2.7487,2.7487,0.0,2.815,2.8179,2.7625,2.6418,2.5682,2.5414,2.5687,2.4946,2.4746,2.5077,2.4733,2.4599,2.4599,2.4599,2.4315,0.0,0.0,0.0,0.0,2.2893,2.2893,2.2934,2.3207,2.314,2.2934,2.3207,2.3126,2.2893,2.2893,2.2893,2.2893,2.2893,2.2893,2.2893,2.2893,2.2645,2.2352,2.2071,2.1991,2.2158,2.2733,2.2452,2.2058,2.2352,2.2191,2.2071,2.2352,2.2418,2.2498,2.2827,2.2893,2.28,2.2458,2.2418,2.2311,2.2031,2.1991,2.1991,2.1991,2.1991,2.1991,2.1991,2.1977,2.1737,2.1149,2.0842,2.0548,2.0224,2.0197,2.0197,2.0197,2.0197,2.0197,2.0197,2.0197,2.0197,2.0197,2.0197,2.0388,2.0699,2.0699,2.0828,2.1837,2.226,2.2392,2.2029,2.1389,2.0652,2.0023,1.9479,1.9032,1.8778,1.8923,1.9104,1.9104,1.9104,1.9165,1.9346,1.937,1.9491,1.983,2.0747,2.1697,2.2596,2.4288,2.5675,2.6485,2.6971,2.7474,2.7939,2.7981,2.8023,2.8179,2.7804,2.7278,2.6701,2.6453,2.6003,2.53,2.5242,2.5039,2.4783,2.489,2.473,2.4342,2.4342,2.4022,0.0,0.0,0.0,0.0,2.3086,2.318,2.3193,2.3252,2.326,2.3166,2.3046,2.2987,2.2893,2.2893,2.2893,2.2893,2.2893,2.2893,2.2893,2.2893,2.2827,2.2699,2.2639,2.2612,2.2666,2.2853,2.276,2.2639,2.2733,2.2693,2.2639,2.2699,2.276,2.2786,2.288,2.3033,2.3153,2.3025,2.3207,2.3247,2.2953,2.2899,2.2899,2.2899,2.2539,2.2365,2.2599,2.2265,2.1863,2.1475,2.1542,2.1363,2.0869,2.1029,2.1042,2.0811,2.0828,2.0828,2.0828,2.0828,2.0828,2.0828,2.0828,2.0882,2.0975,2.0975,2.1029,2.0664,2.1208,2.1414,2.1039,2.0628,2.0168,1.9624,1.9298,1.9056,1.8899,1.8995,1.9104,1.9104,1.9104,1.9165,1.9322,1.9358,1.9451,1.9821,2.0842,2.1957,2.3041,2.5133,2.6574,2.6876,2.7436,2.7897,2.8192,2.8179,2.8138,2.8018,2.7563,2.7122,2.6667,2.644,2.6039,2.5449,2.5371,2.5224,2.4933,2.505,2.489,2.4529,2.4422,2.4048,0.0,0.0,0.0,0.0,2.3193,2.3225,2.318,2.3407,2.3354,2.314,2.3073,2.3,2.2893,2.2893,2.2893,2.2893,2.2893,2.2893,2.2893,2.2893,2.2893,2.2893,2.2893,2.2987,2.3041,2.2934,2.2987,2.3041,2.292,2.2893,2.2893,2.2893,2.2893,2.2934,2.302,2.3193,2.3332,2.3474,2.3647,2.375,2.3527,2.3487,2.3487,2.3487,2.3166,2.2913,2.2893,2.2645,2.2285,2.1796,2.1917,2.183,2.1456,2.1649,2.1609,2.1296,2.1269,2.1229,2.1109,2.1109,2.1109,2.1109,2.1109,2.1109,2.1109,2.1109,2.1109,0.0,2.0483,2.1135,2.0628,2.035,2.0059,1.9503,1.9225,0.0,1.9056,1.9068,1.908,1.908,1.9092,1.9116,1.9128,1.914,1.9451,2.0373,2.1109,2.212,2.3637,2.5153,2.6056,2.5951,2.7304,2.8179,2.8179,2.8165,2.8031,2.7709,2.7429,2.7001,2.644,2.5825,2.5651,2.5957,2.5449,2.5264,2.5478,2.5237,2.5115,2.501,2.4679,2.4262,0.0,0.0,0.0,0.0,2.3193,2.3153,2.2987,2.3549,2.3429,2.296,2.3193,2.3113,2.2893,2.2893,2.2893,2.2893,2.2893,2.2893,2.2893,2.2893,2.2893,2.2893,2.292,2.3086,2.3233,2.3,2.31,2.322,2.296,2.2893,2.2893,2.2893,2.2893,2.2987,2.326,2.3305,2.3447,2.379,2.3857,2.3857,2.3843,2.3843,2.3843,2.3843,2.3817,2.3589,2.3014,2.3166,2.2945,2.2124,2.2044,2.2064,2.1991,2.2004,2.1917,2.1622,2.1622,2.1489,2.1176,2.1149,2.1136,2.1109,2.1109,2.1109,2.1109,2.1109,2.1122,1.8064,0.0,1.8951,1.8645,1.8826,1.8947,0.0,1.8548,1.8753,1.8517,1.8638,1.877,1.877,1.8971,1.9177,1.937,1.9406,1.9658,2.0331,2.2393,2.4397,2.5885,2.6985,2.7386,2.6667,2.7589,2.8179,2.8179,2.7978,2.7776,2.7696,2.7001,2.6627,2.672,2.5932,2.5545,2.5611,2.5743,2.5596,2.5184,2.5331,2.5064,2.4396,2.4102,2.3781,0.0,0.0,0.0,2.292,2.3193,2.3252,2.3233,2.338,2.334,2.3193,2.3033,2.296,2.2893,2.2893,2.2893,2.2893,2.2893,2.2893,2.2893,2.2893,2.2893,2.2947,2.3153,2.31,2.3041,2.318,2.31,2.2987,2.292,2.2893,2.2893,2.2893,2.2893,2.2987,2.326,2.3514,2.3754,2.4048,2.4289,2.4356,2.4142,2.4102,2.4102,2.4102,2.395,2.375,2.3603,2.342,2.314,2.2733,2.2693,2.2492,2.2017,2.2191,2.2191,2.193,2.1917,2.189,2.1777,2.1596,2.1368,2.1109,2.1109,2.1109,2.1109,2.1109,2.1229,1.7702,1.7907,1.7937,1.7118,1.7732,1.8266,1.7326,1.7857,1.8469,1.8324,1.7951,1.7863,1.8568,1.8479,1.8485,1.9209,1.9679,2.0364,2.1513,2.3278,2.5022,2.6614,2.7241,2.755,2.7428,2.7898,2.8179,2.8179,2.7791,2.7442,2.7308,2.66,2.6185,2.6026,2.5692,2.5585,2.5718,2.5745,2.5598,2.5277,2.5157,2.4826,2.4382,2.3968,2.3607,0.0,0.0,0.0,2.292,2.3193,2.3247,2.3126,2.3238,2.3212,2.31,2.296,2.2893,2.2893,2.2893,2.2893,2.2893,2.2893,2.2893,2.2893,2.2893,2.2893,2.2934,2.3073,2.3193,2.3295,2.314,2.31,2.3046,2.2934,2.2893,2.2893,2.2893,2.2893,2.3027,2.3447,2.3554,2.3701,2.4128,2.4222,2.4182,2.4022,2.4115,2.4209,2.4209,2.4182,2.4062,2.383,2.3621,2.3354,2.2934,2.2893,2.276,2.2439,2.2539,2.2485,2.2191,2.2178,2.2124,2.1991,2.1729,2.1569,2.151,2.1243,2.1176,2.1341,2.1341,2.1323,1.7434,1.7745,1.7654,1.6431,1.7101,1.7757,1.6635,1.7353,1.8215,1.8179,1.7376,1.7089,1.8452,1.8132,1.7975,1.9004,1.9858,2.0994,2.2844,2.3747,2.4729,2.62,2.6773,2.7268,2.7924,2.8098,2.8165,2.8125,2.7576,2.7068,2.6774,2.6199,2.5703,2.5157,2.5384,2.5611,2.5864,2.5571,2.5424,2.5371,2.4839,2.4559,2.4452,2.3995,2.3607,0.0,0.0,0.0,2.292,2.3153,2.31,2.292,2.3153,2.31,2.2893,2.2893,2.2893,2.2893,2.2893,2.2893,2.2893,2.2893,2.2893,2.2893,2.2893,2.2934,2.296,2.2907,2.3268,2.3576,2.3148,2.3126,2.3193,2.296,2.2893,2.2893,2.2893,2.2893,2.3067,2.3629,2.35,2.3465,2.4048,2.3928,2.3803,2.3803,2.3981,2.4142,2.4142,2.4356,2.4315,2.3857,2.3763,2.3536,2.3014,2.292,2.2893,2.2893,2.2893,2.2786,2.2498,2.2485,2.2352,2.2058,2.1836,2.181,2.1991,2.1483,2.1376,2.1649,2.1649,2.1542,1.5755,1.6993,1.8136,1.7684,1.7215,1.695,1.7237,1.7631,1.7907,1.7677,1.7823,1.8177,1.8674,1.8986,1.9245,1.948,1.96,2.036,2.2475,2.3566,2.4206,2.449,2.6561,2.7737,2.7081,2.7737,2.8085,2.7789,2.7215,2.676,2.6466,2.5905,2.5545,2.5451,2.5491,2.5411,2.5248,2.5208,2.5024,2.4733,2.4639,2.4346,2.3937,2.3843,2.3607,0.0,0.0,2.2934,2.2893,2.2947,2.2934,2.2893,2.2947,2.2934,2.2893,2.2893,2.2893,2.2893,2.2893,2.2893,2.2893,2.2893,2.2893,2.2893,2.2893,2.3046,2.3207,2.2974,2.296,2.3134,2.3549,2.3322,2.296,2.2907,2.2893,2.2893,2.2893,2.2893,2.3,2.3327,2.3354,2.3434,2.3817,2.383,2.3803,2.3803,2.3843,2.387,2.387,2.391,2.391,2.3817,2.3541,2.3354,2.326,2.3041,2.2893,2.2893,2.2893,2.288,2.2827,2.2827,2.2659,2.2352,2.2311,2.2191,2.1991,2.1897,2.1871,2.1957,2.1957,2.2031,1.4483,1.5504,1.6567,1.5914,1.6111,1.6465,1.6384,1.6619,1.7049,1.7601,1.7483,1.7669,1.8994,1.9249,1.9938,2.1979,2.116,2.1199,2.3854,2.3597,2.3708,2.5354,2.6685,2.7455,2.7535,2.7804,2.7884,2.7709,2.7014,2.6533,2.64,2.5825,2.5371,2.5013,2.5344,2.5144,2.4419,2.469,2.469,2.4359,2.4249,2.3941,2.3527,2.3527,2.3367,2.3073,0.0,2.2893,2.2893,2.2893,2.2893,2.2893,2.2893,2.2893,2.2893,2.2893,2.2893,2.2893,2.2893,2.2893,2.2893,2.2893,2.2893,2.2893,2.2893,2.3,2.3086,2.31,2.3113,2.314,2.3281,2.3108,2.2893,2.2893,2.3027,2.3113,2.3113,2.3113,2.3247,2.3714,2.3505,2.3439,2.3928,2.391,2.375,2.3554,2.3808,2.3888,2.3567,2.3808,2.3941,2.383,2.3647,2.35,2.3305,2.3193,2.3046,2.2907,2.2893,2.2893,2.2893,2.2893,2.284,2.2659,2.2498,2.2432,2.2492,2.2171,2.2071,2.2218,2.2218,2.2205,1.3153,1.4133,1.5175,1.4029,1.4983,1.6063,1.5664,1.5965,1.6665,1.7757,1.7495,1.7567,1.9208,1.9593,2.0698,2.3954,2.236,2.177,2.4933,2.3632,2.3404,2.6149,2.6836,2.7375,2.8018,2.7829,2.7642,2.7509,2.68,2.6333,2.6186,2.5692,2.5144,2.4519,2.4933,2.4743,2.3817,2.4209,2.4289,2.3995,2.3915,2.3647,2.322,2.3367,2.322,2.2893,2.2893,2.2893,2.2893,2.2893,2.2893,2.2893,2.2893,2.2893,2.2893,2.2893,2.2893,2.2893,2.2893,2.2947,2.3,2.3,2.3,2.3,2.3,2.296,2.2947,2.3153,2.322,2.318,2.3041,2.3,2.3,2.3,2.3153,2.3305,2.342,2.3434,2.3567,2.4022,2.3741,2.3567,2.4022,2.395,2.3688,2.346,2.3808,2.3941,2.3487,2.3821,2.4022,2.383,2.375,2.3541,2.3247,2.322,2.3113,2.2907,2.2893,2.2893,2.2893,2.2893,2.2893,2.2893,2.2632,2.2632,2.2893,2.2439,2.2311,2.2525,2.2593,2.2539,1.1585,1.3382,1.5231,1.3712,1.4409,1.56,1.6037,1.6789,1.7559,1.8155,1.8654,1.9056,1.9199,2.0328,2.1854,2.381,2.1789,2.1173,2.4573,2.3633,2.3324,2.5289,2.7048,2.8005,2.7749,2.7709,2.7468,2.6934,2.6573,2.6146,2.5598,2.5277,2.4836,2.4249,2.4275,2.4128,2.3803,2.3843,2.3688,2.3359,2.3928,2.3728,2.2947,2.3509,2.3455,2.2893,2.2893,2.2893,2.2893,2.2893,2.2893,2.2893,2.2893,2.2893,2.2893,2.2893,2.2893,2.2893,2.2893,2.3046,2.3265,2.3265,2.3265,2.3265,2.3265,2.3086,2.2893,2.292,2.2934,2.2987,2.322,2.3265,2.3265,2.3265,2.3278,2.3407,2.371,2.3777,2.379,2.383,2.3803,2.379,2.383,2.3817,2.3803,2.3777,2.3803,2.3817,2.3777,2.3803,2.383,2.3803,2.3527,2.3233,2.296,2.2934,2.292,2.2893,2.2893,2.2893,2.2893,2.2893,2.2893,2.2893,2.288,2.288,2.2893,2.2853,2.284,2.2867,2.3174,2.3331,1.1081,1.2459,1.3723,1.2586,1.3218,1.4646,1.6775,1.7288,1.7613,1.8577,1.9711,2.0701,2.1334,2.2358,2.3543,2.4772,2.3578,2.3504,2.6278,2.5198,2.4752,2.6629,2.7322,2.759,2.7483,2.7255,2.7068,2.68,2.6386,2.5945,2.5531,2.5237,2.481,2.4222,2.4346,2.4249,2.3803,2.4128,2.3945,2.3292,2.3741,2.3661,2.3153,2.3394,2.326,2.2893,2.2893,2.2893,2.2893,2.2893,2.2893,2.2893,2.2893,2.2893,2.2893,2.2893,2.2893,2.2893,2.2893,2.2974,2.3033,2.3033,2.3033,2.3033,2.3033,2.2987,2.2934,2.31,2.3287,2.3455,2.334,2.3292,2.3345,2.3554,2.3741,2.3901,2.4022,2.4035,2.4088,2.4275,2.4168,2.4102,2.4275,2.4302,2.4249,2.4062,2.4195,2.4182,2.3857,2.3964,2.4035,2.4035,2.3781,2.3487,2.318,2.3014,2.2893,2.2893,2.2893,2.2987,2.314,2.3153,2.3153,2.3153,2.3153,2.306,2.2893,2.306,2.315,2.3215,2.372,2.3962,1.0437,1.1312,1.236,1.2225,1.2862,1.4361,1.7558,1.7662,1.7517,1.9158,2.0374,2.1455,2.2462,2.3346,2.417,2.5066,2.4614,2.489,2.7235,2.6003,2.5533,2.7355,2.7429,2.7269,2.7134,2.6934,2.6707,2.6426,2.6172,0.0,0.0,2.4917,2.4529,2.3941,2.4022,2.3928,2.3634,2.4022,2.3932,2.3474,2.3581,2.3474,2.318,2.3252,2.3153,2.2893,2.2893,2.2893,2.2893,2.2893,2.2893,2.2893,2.2893,2.2893,2.2893,2.2893,2.2893,2.2893,2.2893,2.296,2.302,2.3148,2.3121,2.3067,2.3148,2.3054,2.2934,2.3113,2.3394,2.3607,2.35,2.3541,2.3634,2.3777,2.3995,2.4209,2.4209,2.4209,2.4235,2.4342,2.4275,2.4262,2.4426,2.4532,2.4532,2.4332,2.4479,2.4452,2.4102,2.4222,2.4302,2.4209,2.3941,2.3723,2.3487,2.3308,2.3148,2.302,2.3041,2.306,2.318,2.318,2.322,2.3292,2.3292,2.322,2.3041,2.3324,2.3465,2.342,2.4074,2.44,0.9568,0.9991,1.1438,1.2861,1.3652,1.4971,1.8308,1.7914,1.7504,1.9826,2.0585,2.1162,2.223,2.2841,2.351,2.4469,2.4323,2.4869,2.7011,2.5672,2.5207,2.705,2.7296,2.7134,2.6854,2.6774,2.6413,2.5585,2.5785,0.0,0.0,2.4195,2.3928,2.3305,2.3067,2.3054,2.3292,2.3292,2.3474,2.3803,2.3474,2.3166,2.2907,2.318,2.3153,2.2893,2.2893,2.2893,2.2893,2.2893,2.2893,2.2893,2.2893,2.2893,2.2893,2.2893,2.2893,2.2893,2.2893,2.306,2.3332,2.3661,2.3567,2.3345,2.371,2.3375,2.2893,2.2893,2.3086,2.3394,2.3688,2.3981,2.4128,2.3884,2.3995,2.4209,2.4209,2.4195,2.4115,2.3857,2.3995,2.4195,2.4209,2.4399,2.4599,2.4599,2.4599,2.4599,2.4599,2.4599,2.4492,2.4235,2.3941,2.3803,2.3803,2.3803,2.3647,2.3305,2.3292,2.3193,2.292,2.2893,2.3041,2.3278,2.3292,2.3292,2.3292,2.3684,2.3742,2.3441,2.417,2.451,1.1609,1.1598,1.2312,1.4196,1.4241,1.4446,1.6914,1.8113,1.9316,2.1463,2.2217,2.2687,2.3262,2.4016,2.4565,2.4599,2.5216,2.6014,2.6827,2.6462,2.6328,2.6867,2.664,2.6426,2.6507,2.6146,2.5879,2.5864,2.5331,0.0,0.0,2.4008,2.3728,2.3305,2.3447,2.3576,2.3634,2.3634,2.3581,2.346,2.3332,2.3273,2.318,2.306,2.2987,2.2893,2.2893,2.2893,2.2893,2.2893,2.2893,2.2893,2.2893,2.2893,2.2893,2.2893,2.2893,2.2893,2.2893,2.296,2.3054,2.3134,2.3108,2.3054,2.3134,2.3041,2.2947,2.3126,2.3407,2.3661,2.379,2.3981,2.4235,2.4356,2.4289,2.4209,2.4209,2.4048,2.391,2.383,2.387,2.3968,2.4168,2.4275,2.4359,2.4572,2.4599,2.4599,2.4599,2.4599,2.4492,2.4235,2.4128,2.3995,2.383,2.3803,2.3647,2.3305,2.3527,2.35,2.3207,2.3193,2.3233,2.3292,2.3292,2.3324,2.3371,2.3727,2.3984,2.4204,2.4815,2.5143,1.2577,1.2542,1.2982,1.4961,1.5199,1.5494,1.7696,1.8821,2.005,2.2413,2.3021,2.3281,2.387,2.4382,2.4756,2.4796,2.5598,2.6319,2.6613,2.6653,2.6653,2.6653,2.6239,2.6065,2.6238,2.5785,2.5438,2.5315,0.0,0.0,0.0,2.3621,2.346,2.3153,2.3348,2.3442,2.3442,2.3442,2.3348,2.314,2.302,2.2932,2.2932,2.292,2.2893,2.2893,2.2893,2.2893,2.2893,2.2893,2.2893,2.2893,2.2893,2.2893,2.2893,2.2893,2.2893,2.2893,2.2893,2.2893,2.292,2.3006,2.3,2.292,2.3041,2.2987,2.2934,2.3086,2.3354,2.3594,2.3594,2.3808,2.4102,2.4396,2.4249,2.4035,2.4035,2.3808,2.3554,2.3469,2.3549,2.3688,2.3981,2.4128,2.4302,2.4559,2.4599,2.4599,2.4599,2.4599,2.4532,2.4396,2.4382,2.4302,2.4128,2.4115,2.3995,2.3688,2.3848,2.3808,2.3514,2.3359,2.3292,2.3292,2.3447,2.3458,2.3357,2.3955,2.4268,2.4306,2.4965,2.5313,1.2941,1.3162,1.3728,1.5505,1.6409,1.7507,1.9874,1.9805,2.0033,2.2768,2.3259,2.34,2.4103,2.4289,2.4489,2.4997,2.5583,2.6051,2.6266,2.6306,2.6306,2.6306,2.6091,2.5931,2.5957,2.5598,2.5077,2.4302,0.0,0.0,0.0,2.314,2.3153,2.2907,2.2867,2.2853,2.2853,2.2827,2.2813,2.2813,2.2512,2.2345,2.2358,2.2693,2.2827,2.2853,2.288,2.288,2.2853,2.288,2.288,2.2853,2.288,2.2893,2.2893,2.2893,2.2893,2.2893,2.2893,2.2893,2.2947,2.3193,2.31,2.2947,2.3193,2.3086,2.2893,2.2893,2.3086,2.3292,2.3292,2.3527,2.3808,2.4102,2.3941,2.3763,2.3763,2.35,2.3207,2.2947,2.3113,2.342,2.375,2.4008,2.4302,2.4559,2.4599,2.4599,2.4599,2.4599,2.4599,2.4599,2.4599,2.4599,2.4599,2.4599,2.4479,2.4222,2.4222,2.4102,2.3817,2.3514,2.3332,2.3332,2.3634,2.3669,2.3402,2.4313,2.4533,2.411,2.4757,2.5081,1.4438,1.5049,1.5934,1.7368,1.7584,1.8105,2.0712,2.0449,2.0258,2.2342,2.3775,2.4637,2.4509,2.4917,2.5197,2.5104,2.5384,2.5625,2.5692,2.5705,2.5705,2.5705,2.5451,2.5396,2.5585,2.493,2.4502,0.0,0.0,0.0,2.3247,2.306,2.296,2.2893,2.2632,2.2512,2.2512,2.2285,2.2178,0.0,2.2111,2.2084,2.2084,2.2151,2.2298,2.2525,2.28,2.276,2.2539,2.28,2.2726,2.2539,2.28,2.2893,2.2893,2.2893,2.2893,2.2893,2.2893,2.2893,2.2907,2.2974,2.2947,2.2907,2.2974,2.2947,2.2893,2.2893,2.3086,2.3292,2.3292,2.3345,2.35,2.3794,2.3634,2.342,2.342,2.318,2.2974,2.2907,2.3113,2.342,2.375,2.4008,2.4302,2.4559,2.4599,2.4599,2.4599,2.4599,2.4599,2.4599,2.4599,2.4599,2.4599,2.4599,2.4479,2.4222,2.4422,2.4315,2.383,2.375,2.3674,2.3674,2.3777,2.3883,2.4099,2.4296,2.4518,2.473,2.4868,2.5013,1.5739,1.6438,1.7182,1.8391,1.8812,1.9386,2.1014,2.1334,2.1567,2.2645,2.3794,2.456,2.4452,2.4759,2.4997,2.4703,2.5024,2.5304,2.5304,2.5424,2.5518,2.5518,2.5251,2.5077,2.5053,2.4556,2.4142,0.0,0.0,2.3158,2.2878,2.2739,2.2592,2.2479,2.2285,2.2218,2.2218,2.2058,2.1991,2.1991,2.1877,2.1729,2.1577,2.1857,2.2071,2.2218,2.2378,2.2352,2.2218,2.2412,2.2385,2.2231,2.2412,2.2479,2.2479,2.2479,2.2559,2.2645,2.2645,2.2773,2.2893,2.2893,2.2893,2.2893,2.2893,2.2893,2.2893,2.2893,2.3014,2.31,2.31,2.31,2.314,2.3335,2.3255,2.314,2.3265,2.3086,2.2893,2.2893,2.2993,2.3193,2.35,2.3915,2.4302,2.4559,2.4599,2.4599,2.4599,2.4599,2.4599,2.4599,2.4599,2.4599,2.4599,2.4599,2.4532,2.4386,2.4519,2.4466,2.4195,2.4182,2.4062,2.3817,2.395,2.4022,2.4052,2.4545,2.4804,2.4918,2.5267,2.5458,1.6592,1.7322,1.7883,1.8925,1.9772,2.0509,2.1158,2.2038,2.2824,2.316,2.3608,2.4006,2.4096,2.4329,2.4372,2.4168,2.4543,2.4887,2.4887,2.5064,2.5211,2.5211,2.4997,2.4756,2.4479,2.4222,2.3834,0.0,0.0,2.2892,2.2378,2.2338,2.2231,2.2024,2.197,2.1943,2.1943,2.1857,2.183,2.183,2.1622,2.1381,2.1122,2.1617,2.189,2.1943,2.1964,2.1951,2.1943,2.1964,2.1951,2.1957,2.1964,2.1991,2.1991,2.1991,2.2138,2.2338,2.2338,2.2539,2.2813,2.2813,2.2853,2.2893,2.2893,2.2893,2.2893,2.2893,2.2893,2.2893,2.2893,2.2893,2.2893,2.2893,2.2893,2.2974,2.3193,2.3046,2.2893,2.2893,2.2974,2.3148,2.342,2.3928,2.4356,2.4559,2.4599,2.4599,2.4599,2.4599,2.4599,2.4599,2.4599,2.4599,2.4599,2.4599,2.4599,2.4599,2.4599,2.4599,2.4599,2.4599,2.4372,2.3964,2.4155,2.4155,2.3928,2.4828,2.5182,2.4995,2.5667,2.5991,1.6303,1.7455,1.8416,1.9296,1.9787,2.0368,2.1546,2.2099,2.2557,2.3152,2.3577,2.3839,2.3834,2.3897,2.391,2.387,2.3924,2.3977,2.3977,2.4017,2.4044,2.4044,2.4004,2.3964,2.3924,2.3621,2.33,0.0,2.2686,2.2392,2.2058,2.2044,2.2031,2.1991,2.177,2.1649,2.1649,2.1349,2.1229,2.1229,2.1189,2.1149,2.1109,2.1189,2.1363,2.1662,2.1917,2.1877,2.1662,2.1917,2.1877,2.1662,2.1917,2.1991,2.1991,2.1991,2.2004,2.2044,2.2044,2.2231,2.2472,2.2472,2.2645,2.2893,2.2893,2.2893,2.2893,2.2893,2.2893,2.2893,2.2893,2.2893,2.2893,2.2893,2.2893,2.2907,2.2947,2.292,2.2893,2.2893,2.3322,2.3777,2.4035,2.4319,2.4559,2.4586,2.4599,2.4599,2.4599,2.4599,2.4599,2.4599,2.4599,2.4599,2.4599,2.4599,2.4599,2.4599,2.4599,2.4599,2.4599,2.4599,2.4559,2.4479,2.4519,2.4519,2.4479,2.496,2.5226,2.5268,2.5712,2.5926,1.7045,1.7784,1.8372,1.9406,2.0017,2.0515,2.1221,2.1799,2.2256,2.2684,2.2926,2.3113,2.346,2.3661,2.3696,2.3348,2.3589,2.375,2.3541,2.3661,2.3803,2.3803,2.3803,2.3669,2.3335,2.314,2.2873,0.0,2.2245,2.2044,2.1796,2.1783,2.1703,2.1496,2.1376,2.1309,2.1309,2.1176,2.1109,2.1109,2.1109,2.1109,2.1109,2.1109,2.1176,2.1341,2.1443,2.1416,2.1309,2.1443,2.1416,2.1309,2.1443,2.1496,2.1496,2.1496,2.1603,2.1783,2.1783,2.2044,2.2385,2.2385,2.2619,2.2893,2.2893,2.2893,2.2893,2.2893,2.2893,2.2893,2.2893,2.2893,2.2893,2.2893,2.2893,2.2893,2.2893,2.2893,2.2893,2.2893,2.3255,2.3621,2.3915,2.4195,2.4412,2.4572,2.4599,2.4599,2.4599,2.4599,2.4599,2.4599,2.4599,2.4599,2.4599,2.4599,2.4599,2.4599,2.4599,2.4599,2.4599,2.4599,2.4599,2.4599,2.4599,2.4599,2.4599,2.5226,2.5547,2.559,2.6221,2.651,1.7493,1.7877,1.8252,1.9341,2.005,2.0621,2.1051,2.1528,2.1951,2.2245,2.2311,2.2445,2.2899,2.3287,2.3402,2.2867,2.3161,2.3354,2.3092,2.3287,2.3496,2.3562,2.3509,2.3281,2.2827,2.2719,2.2465,0.0,2.1917,2.1783,2.1489,2.1475,2.1368,2.1122,2.1109,2.1109,2.1109,2.1109,2.1109,2.1109,2.1109,2.1109,2.1109,2.1109,2.1109,2.1109,2.1109,2.1109,2.1109,2.1109,2.1109,2.1109,2.1109,2.1109,2.1109,2.1109,2.1256,2.1489,2.1555,2.1917,2.2325,2.2392,2.2619,2.2893,2.2893,2.2893,2.2893,2.2893,2.2893,2.2893,2.2893,2.2893,2.2893,2.2893,2.2893,2.2893,2.2893,2.2893,2.292,2.3,2.3233,2.3527,2.387,2.4115,2.4382,2.4572,2.4599,2.4599,2.4599,2.4599,2.4599,2.4599,2.4599,2.4599,2.4599,2.4599,2.4599,2.4599,2.4599,2.4599,2.4599,2.4599,2.4636,2.4747,2.4747,2.4747,2.4747,2.5543,2.5946,2.5983,2.6655,2.6983,1.6993,1.7571,1.8218,1.9118,1.9781,2.0448,2.1352,2.1596,2.1689,2.1984,2.2004,2.2017,2.2044,2.2559,2.284,2.2485,2.2438,2.2485,2.2438,2.2451,2.2592,2.2907,2.2659,2.2472,2.2445,2.2191,2.193,0.0,2.1609,2.1475,2.1149,2.1136,2.1122,2.1109,2.1109,2.1109,2.1109,2.1109,2.1109,2.1109,2.1109,2.1109,2.1109,2.1109,2.1109,2.1109,2.1109,2.1109,2.1109,2.1109,2.1109,2.1109,2.1109,2.1109,2.1109,2.1109,2.1122,2.1176,2.1489,2.1783,2.2058,2.2325,2.2619,2.2893,2.2893,2.2893,2.2893,2.2893,2.2893,2.2893,2.2893,2.2893,2.2893,2.2893,2.2893,2.2893,2.2893,2.2893,2.2987,2.3247,2.3541,2.387,2.4128,2.4386,2.4586,2.4599,2.4599,2.4599,2.4599,2.4599,2.4599,2.4599,2.4599,2.4599,2.4599,2.4599,2.4599,2.4599,2.4599,2.4599,2.4599,2.4599,2.4784,2.5152,2.5152,2.5152,2.5152,2.5997,2.6363,2.6399,2.6801,2.6983,1.7179,1.7453,1.7781,1.9047,1.9532,1.992,2.0815,2.102,2.1154,2.1636,2.1743,2.1796,2.1984,2.2184,2.2271,2.2164,2.2138,2.2138,2.2138,2.2138,2.2178,2.2318,2.2205,2.2071,2.1917,2.1796,2.1622,0.0,0.0,2.1216,2.1122,2.1109,2.1109,2.1109,2.1109,2.1109,2.1109,2.1109,2.1109,2.1109,2.1109,2.1109,2.1109,2.1109,2.1109,2.1109,2.1109,2.1109,2.1109,2.1109,2.1109,2.1109,2.1109,2.1109,2.1109,2.1109,2.1109,2.1122,2.1229,2.1489,2.1756,2.1863,2.2091,2.2338,2.2525,2.2579,2.2619,2.284,2.2893,2.2893,2.2893,2.2893,2.2893,2.2893,2.2893,2.2947,2.3113,2.3153,2.3193,2.3265,2.3714,2.4075,2.4182,2.4412,2.4599,2.4599,2.4599,2.4599,2.4599,2.4599,2.4599,2.4599,2.4599,2.4599,2.4599,2.4599,2.4599,2.4599,2.4599,2.4599,2.4599,2.4857,2.5174,2.5499,2.6033,2.6047,2.558,2.6129,2.6399,2.6399,2.6801,2.6983,1.7213,1.7397,1.7648,1.8916,1.9225,1.9452,2.0334,2.0454,2.0579,2.1167,2.1288,2.1381,2.1643,2.1697,2.1724,2.185,2.1877,2.1877,2.1877,2.1877,2.1917,2.1977,2.193,2.1756,2.1462,2.1341,2.1208,0.0,0.0,0.0,2.1109,2.1109,2.1109,2.1109,2.1109,2.1069,2.0962,2.0962,2.0962,2.0962,2.0962,2.1015,2.1109,2.1109,2.1109,2.1109,2.1109,2.1109,2.1109,2.1109,2.1109,2.1109,2.1109,2.1109,2.1109,2.1109,2.1109,2.1122,2.1229,2.1422,2.1596,2.1703,2.193,2.2164,2.2365,2.2485,2.2605,2.284,2.2893,2.2893,2.2893,2.2893,2.2893,2.2893,2.2974,2.3073,2.3252,2.3292,2.3345,2.3545,2.3941,2.4235,2.4329,2.4479,2.4599,2.4599,2.4599,2.4599,2.4599,2.4599,2.4599,2.4599,2.4599,2.4599,2.4599,2.4599,2.4639,2.4746,2.4653,2.4713,2.4969,2.5133,2.5432,2.5922,2.6592,2.6735,2.6359,2.663,2.672,2.6619,2.6874,2.6983,0.0,0.0,0.0,1.8664,1.8863,1.909,1.997,1.9943,1.9947,2.0565,2.0686,2.0779,2.1042,2.1096,2.1189,2.1515,2.1569,2.1601,2.1601,2.1601,2.1676,2.1924,2.1743,2.1448,2.1122,2.0828,2.0699,0.0,2.0699,2.0802,2.1082,2.1096,2.1096,2.1096,2.1082,2.0949,2.0712,2.0699,2.0699,2.0712,2.0712,2.0828,2.1109,2.1109,2.1109,2.1109,2.1109,2.1109,2.1109,2.1109,2.1109,2.1109,2.1109,2.1109,2.1109,2.1109,2.1109,2.1149,2.1475,2.1601,2.1622,2.1917,2.2164,2.2392,2.2418,2.2619,2.288,2.2893,2.2893,2.2893,2.2893,2.2893,2.2893,2.2893,2.31,2.3292,2.3305,2.3305,2.3492,2.4088,2.4209,2.4302,2.4559,2.4599,2.4599,2.4599,2.4599,2.4599,2.4599,2.4599,2.4599,2.4599,2.4599,2.4599,2.4599,2.4599,2.4756,2.505,2.4796,2.4955,2.5664,2.539,2.5607,2.6428,2.6751,2.7109,2.7547,2.7533,2.732,2.7013,2.7013,2.7013,1.6433,0.0,0.0,0.0,0.0,0.0,1.9103,1.9196,1.9332,1.992,2.0214,2.0441,2.0735,2.0802,2.0846,2.094,2.1127,2.1229,2.1229,2.1229,2.1256,2.1336,2.1127,2.0913,2.0833,2.0521,0.0,0.0,2.0548,2.0739,2.082,2.0802,2.0802,2.0802,2.0588,2.0535,2.0712,2.0468,2.0468,2.0712,2.0712,2.0828,2.1109,2.1109,2.1109,2.1109,2.1109,2.1109,2.1109,2.1109,2.1109,2.1109,2.1109,2.1109,2.1109,2.1109,2.1109,2.1122,2.1203,2.1229,2.1283,2.1609,2.1756,2.1903,2.2298,2.2472,2.2579,2.284,2.2893,2.2893,2.2893,2.2893,2.2893,2.2893,2.31,2.338,2.3607,2.3808,2.4008,2.4168,2.4369,2.4506,2.4586,2.4599,2.4599,2.4599,2.4599,2.4599,2.4599,2.4599,2.4599,2.4599,2.4599,2.4599,2.4599,2.4599,2.4639,2.4719,2.4911,2.5119,2.5312,2.5819,2.6393,2.711,2.7242,2.7588,2.8131,2.7897,2.7656,2.7349,2.7349,2.7349,1.6366,1.658,1.6874,1.7595,0.0,0.0,1.8611,1.8623,1.8703,1.9319,1.9666,1.996,2.0254,2.0307,2.0418,2.0672,2.0708,2.0717,2.0717,2.0717,2.0788,2.0909,2.0806,2.0659,2.0508,2.0441,2.0321,2.0037,2.0321,2.0494,2.0494,2.0494,2.0494,2.0494,2.029,2.0224,2.0307,2.0134,2.0134,2.0307,2.0307,2.0468,2.0717,2.0869,2.0922,2.0935,2.1056,2.1109,2.1109,2.1109,2.1109,2.1109,2.1109,2.1109,2.1109,2.1109,2.1109,2.1109,2.1109,2.1109,2.1136,2.1341,2.1569,2.1836,2.2138,2.2405,2.2645,2.2853,2.2893,2.2893,2.2893,2.2893,2.2934,2.3033,2.3287,2.3594,2.3888,2.4182,2.4382,2.4382,2.4479,2.4599,2.4599,2.4599,2.4599,2.4599,2.4599,2.4599,2.4599,2.4599,2.4599,2.4599,2.4599,2.4599,2.4599,2.4599,2.4727,2.5033,2.516,2.5391,2.5848,2.6328,2.6883,2.7444,2.7588,2.7934,2.8394,2.8072,2.7824,2.7671,2.7671,2.7671,1.658,1.6687,1.6875,1.7716,1.7742,0.0,1.8291,1.8156,1.8129,1.8689,1.9065,1.9388,1.9653,1.9733,1.992,2.0431,2.0321,2.0184,2.029,2.0304,2.0397,2.0726,2.0726,2.0575,2.0277,2.0494,2.0401,1.984,2.001,2.0157,2.0157,2.0157,2.0157,2.0157,2.0117,1.9997,1.98,1.9773,1.9773,1.98,1.98,1.9947,2.021,2.0535,2.0712,2.0726,2.0989,2.1109,2.1109,2.1109,2.1109,2.1109,2.1109,2.1109,2.1109,2.1109,2.1109,2.1109,2.1109,2.1109,2.1109,2.1149,2.1537,2.2024,2.2031,2.2452,2.2893,2.2893,2.2893,2.2893,2.2893,2.2893,2.2974,2.3207,2.3527,2.3884,2.4102,2.4372,2.4599,2.4599,2.4599,2.4599,2.4599,2.4599,2.4599,2.4599,2.4599,2.4599,2.4599,2.4599,2.4599,2.4599,2.4636,2.4673,2.4673,2.471,2.5002,2.566,2.545,2.5769,2.6769,2.6909,2.7176,2.7583,2.7853,2.8145,2.8394,2.8101,2.7984,2.8014,2.7984,2.797,1.6273,0.0,0.0,0.0,0.0,0.0,1.7755,1.7742,1.7769,1.8116,1.8423,1.8744,1.9038,1.9292,1.9441,1.9292,1.9613,2.0134,2.0842,2.0904,2.0962,2.1015,2.0815,2.0686,2.0601,2.0428,2.0144,1.9826,1.9853,1.988,1.988,1.988,1.988,1.988,1.9653,1.9626,1.98,1.9602,1.9602,1.98,1.98,1.9947,2.021,2.0535,2.0712,2.0726,2.0989,2.1109,2.1109,2.1109,2.1109,2.1109,2.1109,2.1109,2.1109,2.1109,2.1109,2.1109,2.1109,2.1109,2.1149,2.1422,2.1729,2.2031,2.2258,2.2579,2.2893,2.2893,2.2893,2.2893,2.2893,2.2893,2.2907,2.2974,2.3402,2.3817,2.3884,2.4262,2.4599,2.4599,2.4599,2.4599,2.4599,2.4599,2.4599,2.4599,2.4599,2.4599,2.4599,2.4599,2.4599,2.4599,2.4894,2.5079,2.5079,2.5359,2.5644,2.5773,2.6025,2.6396,2.6858,2.7206,2.764,2.8204,2.8549,2.8622,2.8394,2.8335,2.8423,2.8695,2.8423,2.8306,0.0,0.0,0.0,1.7314,0.0,0.0,0.0,1.7381,1.7275,1.7702,1.7929,1.813,1.8409,1.8583,1.8811,1.9092,1.9265,1.9666,2.0517,2.0637,2.0691,2.0869,2.0762,2.0712,2.0712,2.0548,2.0267,1.9826,1.98,1.9733,1.9615,1.9615,1.9615,1.9615,1.9468,1.9468,1.9615,1.9468,1.9468,1.9615,1.9615,1.9653,1.9813,2.0254,2.0454,2.0481,2.0922,2.1109,2.1109,2.1109,2.1109,2.1109,2.1109,2.1109,2.1109,2.1109,2.1109,2.1109,2.1109,2.1109,2.1136,2.1315,2.1569,2.185,2.2111,2.2546,2.2893,2.2893,2.2893,2.2893,2.2893,2.2893,2.2974,2.3281,2.3589,2.3884,2.4142,2.4399,2.4599,2.4599,2.4599,2.4599,2.4599,2.4599,2.4599,2.4599,2.4599,2.4599,2.4599,2.4599,2.4673,2.4894,2.5079,2.5263,2.5483,2.569,2.591,2.6093,2.6276,2.6653,2.7192,2.7515,2.7911,2.8394,2.8593,2.8554,2.8394,2.8554,2.8739,2.8886,2.8739,2.8666,0.0,0.0,0.0,0.0,0.0,1.7246,0.0,0.0,0.0,1.7421,1.7568,1.7662,1.7889,1.7982,1.8236,1.8946,1.9011,0.0,0.0,2.009,0.0,2.0481,2.0539,2.0539,2.0539,2.0293,2.0037,1.976,1.9446,1.9256,1.9292,1.9308,1.9308,1.9308,1.9361,1.9401,1.9401,1.9401,1.9401,1.9401,1.9401,1.9401,1.9415,1.9973,2.017,2.0157,2.0828,2.1082,2.1029,2.1082,2.1109,2.1109,2.1109,2.1109,2.1109,2.1109,2.1109,2.1109,2.1109,2.1109,2.1109,2.1109,2.1349,2.1729,2.201,2.2479,2.2893,2.2893,2.2893,2.2893,2.2893,2.2893,2.3014,2.3509,2.3723,2.3937,2.4332,2.4519,2.4599,2.4599,2.4599,2.4599,2.4599,2.4599,2.4599,2.4599,2.4599,2.4599,2.4599,2.4673,2.4821,2.5152,2.5391,2.564,2.5957,2.6124,2.635,2.6682,2.6682,2.6988,2.7642,2.7926,2.8189,2.8394,2.8452,2.8481,2.8481,2.8769,2.8886,2.8886,2.8886,2.8886,0.0,0.0,0.0,0.0,1.7233,0.0,0.0,0.0,1.7166,1.7233,0.0,1.7622,1.7622,0.0,0.0,1.7836,1.8679,1.9265,1.9063,1.9717,2.0117,1.9933,1.9893,1.9893,1.9893,1.8881,1.8575,1.9381,1.8138,1.7801,1.8886,1.8943,1.8943,1.8943,1.9254,1.9401,1.9401,1.9401,1.9401,1.9401,1.9401,1.9401,1.9415,1.9973,2.0064,1.9893,2.0735,2.0962,2.0748,2.1002,2.1109,2.1109,2.1109,2.1109,2.1109,2.1109,2.1109,2.1109,2.1109,2.1109,2.1109,2.1109,2.1483,2.1991,2.2285,2.2605,2.2893,2.2893,2.2893,2.2893,2.2893,2.2893,2.292,2.2987,2.3415,2.383,2.3884,2.4275,2.4599,2.4599,2.4599,2.4599,2.4599,2.4599,2.4599,2.4599,2.4599,2.4599,2.4599,2.4894,2.5166,2.5189,2.6103,2.674,2.6778,2.7335,2.7696,2.7734,2.7734,2.7903,2.8277,2.8622,2.8666,2.8408,2.8695,2.8842,2.8842,2.8871,2.8886,2.8886,2.8886,2.8886,0.0,0.0,0.0,0.0,0.0,0.0,1.674,0.0,1.679,0.0,0.0,0.0,0.0,0.0,0.0,0.0,1.8277,1.8624,0.0,0.0,1.9372,1.9746,0.0,0.0,1.929,0.0,0.0,0.0,1.8709,1.8651,1.8676,1.8838,1.889,1.889,1.9052,1.9199,1.9401,1.9401,1.9401,1.9401,1.9401,1.9401,1.9415,1.9786,1.992,1.984,2.0548,2.0788,2.0726,2.0989,2.1109,2.1109,2.1109,2.1109,2.1109,2.1109,2.1109,2.1109,2.1109,2.1109,2.1109,2.1109,2.151,2.2004,2.2124,2.2532,2.2893,2.2893,2.2893,2.2893,2.2893,2.2893,2.2947,2.3086,2.346,2.3857,2.3981,2.4342,2.4599,2.4599,2.4784,2.4931,2.4931,2.4747,2.4673,2.4894,2.4931,2.5042,2.5249,2.5433,2.5723,2.614,2.66,2.7055,2.743,2.7725,2.7911,2.7911,2.8087,2.8262,2.8394,2.8335,2.8461,2.8695,2.8461,2.852,2.8886,2.8886,2.8886,2.8886,2.8886,2.8886,1.7326,0.0,0.0,0.0,0.0,0.0,0.0,0.0,0.0,0.0,0.0,0.0,0.0,0.0,0.0,1.7849,0.0,1.8089,0.0,1.8437,0.0,0.0,0.0,0.0,0.0,1.9013,1.8984,1.8516,1.875,1.8814,1.8531,1.8611,1.873,1.889,1.889,1.9065,1.9388,1.9401,1.9401,1.9401,1.9401,1.9401,1.9401,1.9666,1.976,1.972,2.0294,2.0548,2.0575,2.0869,2.1042,2.1109,2.1109,2.1109,2.1109,2.1109,2.1109,2.1109,2.1109,2.1109,2.1109,2.1109,2.151,2.1991,2.1991,2.2425,2.2893,2.2893,2.2893,2.2893,2.2893,2.2893,2.296,2.314,2.3487,2.387,2.4035,2.4382,2.4636,2.4747,2.5005,2.5226,2.5336,2.5115,2.5042,2.5336,2.5373,2.5511,2.5875,2.6036,2.6347,2.6958,2.7185,2.7531,2.799,2.8116,2.8174,2.8174,2.8321,2.8364,2.8277,2.8043,2.8087,2.8491,2.8189,2.8277,2.8769,2.8856,2.8886,2.8886,2.8886,2.8886,0.0,0.0,0.0,1.686,0.0,0.0,0.0,0.0,1.678,0.0,0.0,0.0,0.0,0.0,0.0,1.7622,1.7822,0.0,0.0,0.0,0.0,0.0,0.0,0.0,0.0,1.7941,1.7827,1.8447,1.7365,1.7226,1.8435,1.8196,1.8303,1.8876,1.889,1.9065,1.9388,1.9401,1.9401,1.9401,1.9401,1.9401,1.9401,1.9666,1.9653,1.9441,2.0,2.0224,2.0237,2.0575,2.0855,2.1109,2.1109,2.1109,2.1109,2.1109,2.1109,2.1109,2.1109,2.1109,2.1109,2.1109,2.151,2.1991,2.1991,2.2425,2.2893,2.2893,2.2893,2.2893,2.2893,2.2893,2.2893,2.2907,2.3375,2.3803,2.3817,2.4235,2.471,2.5115,2.5189,2.5336,2.5726,2.5763,2.5763,2.58,2.58,2.5912,2.6243,2.662,2.7009,2.7339,2.7946,2.8379,2.8379,2.8695,2.8856,2.8856,2.8554,2.8262,2.7941,2.7911,2.778,2.7562,2.811,2.8394,2.8423,2.8739,2.8886,2.8886,2.8886,2.8886,0.0,0.0,1.7716,1.718,0.0,0.0,0.0,0.0,0.0,0.0,0.0,0.0,0.0,0.0,1.7608,1.7608,1.7675,1.7742,0.0,1.7822,1.7929,1.7982,1.8103,1.8089,0.0,0.0,0.0,1.7889,1.7656,1.755,1.7648,1.8076,1.8316,1.8288,1.8503,1.8878,1.9388,1.9172,1.9172,1.9401,1.9401,1.9401,1.9401,1.9495,1.9495,1.9428,1.9987,2.0197,2.0237,2.0762,2.1015,2.1109,2.1109,2.1109,2.1109,2.1109,2.1109,2.1109,2.1109,2.1109,2.1149,2.1368,2.1703,2.2017,2.2218,2.2552,2.2893,2.2893,2.2893,2.2893,2.2893,2.2893,2.2893,2.2893,2.3362,2.3874,2.4074,2.4585,2.5115,2.552,2.5814,2.6034,2.6166,2.6422,2.6509,2.6239,2.6202,2.6404,2.7015,2.7206,2.7484,2.8022,2.8259,2.8481,2.8725,2.8827,2.8886,2.8886,2.8798,2.8593,2.8247,2.8028,2.7868,2.7751,2.797,2.8189,2.8394,2.8739,2.8886,2.8886,2.8886,2.8886,1.7716,1.7729,0.0,1.7301,1.7033,0.0,1.6658,0.0,0.0,0.0,0.0,0.0,0.0,0.0,0.0,1.7301,1.7381,1.7421,0.0,1.7381,1.7528,1.7689,1.7876,1.7982,0.0,1.809,1.8049,1.7769,1.7902,1.7796,0.0,0.0,1.813,1.7995,1.8209,1.8611,1.9227,1.9025,1.9078,1.9401,1.9401,1.9401,1.9401,1.9401,1.9401,1.9428,1.9867,2.0104,2.0237,2.0762,2.1015,2.1109,2.1109,2.1109,2.1109,2.1109,2.1109,2.1109,2.1109,2.1109,2.1149,2.1368,2.1689,2.2017,2.2205,2.2572,2.292,2.3027,2.2987,2.292,2.3027,2.2974,2.2928,2.3065,2.3432,2.3946,2.4416,2.486,2.5373,2.591,2.6202,2.6473,2.6582,2.6838,2.691,2.6655,2.672,2.7018,2.7561,2.7744,2.8022,2.8496,2.8593,2.8681,2.8871,2.8886,2.8886,2.8886,2.8783,2.8637,2.8408,2.7984,2.7853,2.8087,2.797,2.8131,2.8593,2.8798,2.8886,2.8886,2.8886,2.8886]},{"header":{"parameterUnit":"m.s-1","parameterCategory":1,"la1":30.6,"la2":29.2853,"lo1":-89.7004,"lo2":-87.6739,"dy":0.0162,"dx":0.0183,"nx":112,"ny":82,"refTime":"2023-09-20T00:00:00:Z","depth":0,"parameterNumber":3,"parameterNumberName":"V-component_of_WINDS"},"data":[0.0,0.0,0.0,0.0,0.0,0.0,0.0,0.0,0.0,0.0,0.0,0.0,0.0,0.0,0.0,0.0,0.0,0.0,0.0,0.0,0.0,0.0,0.0,0.0,0.0,0.0,0.0,0.0,0.0,0.0,0.0,0.0,0.0,0.0,0.0,0.0,0.0,0.0,0.0,0.0,0.0,0.0,0.0,0.0,0.0,0.0,0.0,0.0,0.0,0.0,0.0,0.0,0.0,0.0,0.0,0.0,0.0,0.0,0.0,0.0,0.0,0.0,0.0,0.0,0.0,0.0,0.0,0.0,0.0,0.0,0.0,0.0,0.0,0.0,0.0,0.0,0.0,0.0,0.0,0.0,0.0,0.0,0.0,0.0,0.0,0.0,0.0,0.0,0.0,0.0,3.7624,3.731,3.8977,3.9659,3.8472,3.8907,3.8282,3.6138,0.0,0.0,0.0,0.0,0.0,0.0,0.0,0.0,0.0,0.0,0.0,0.0,0.0,0.0,0.0,0.0,0.0,0.0,0.0,0.0,0.0,0.0,0.0,0.0,0.0,0.0,0.0,0.0,0.0,0.0,0.0,0.0,0.0,0.0,0.0,0.0,0.0,0.0,0.0,0.0,0.0,0.0,0.0,0.0,0.0,0.0,0.0,0.0,0.0,0.0,0.0,0.0,0.0,0.0,0.0,0.0,0.0,0.0,0.0,0.0,0.0,0.0,0.0,0.0,0.0,0.0,0.0,0.0,0.0,0.0,0.0,0.0,0.0,0.0,0.0,0.0,0.0,0.0,0.0,0.0,0.0,0.0,0.0,0.0,0.0,0.0,0.0,0.0,0.0,0.0,0.0,0.0,0.0,0.0,0.0,0.0,0.0,0.0,0.0,0.0,0.0,0.0,0.0,0.0,3.6019,3.7853,3.8336,3.8726,3.9197,3.8689,3.7929,3.6878,0.0,0.0,0.0,0.0,0.0,0.0,0.0,0.0,0.0,0.0,0.0,0.0,0.0,0.0,0.0,0.0,0.0,0.0,0.0,0.0,0.0,0.0,0.0,0.0,0.0,0.0,0.0,0.0,0.0,0.0,0.0,0.0,0.0,0.0,0.0,0.0,0.0,0.0,0.0,0.0,0.0,0.0,0.0,0.0,0.0,0.0,0.0,0.0,0.0,0.0,0.0,0.0,0.0,0.0,0.0,0.0,0.0,0.0,0.0,0.0,0.0,0.0,0.0,0.0,0.0,0.0,0.0,0.0,0.0,0.0,0.0,0.0,0.0,0.0,0.0,0.0,0.0,0.0,0.0,0.0,0.0,0.0,0.0,0.0,0.0,0.0,0.0,0.0,0.0,0.0,0.0,0.0,0.0,0.0,0.0,0.0,0.0,0.0,0.0,0.0,0.0,0.0,0.0,3.57,3.6119,3.8018,3.8182,3.8363,3.8726,3.84,3.7675,3.6435,3.5993,0.0,0.0,0.0,0.0,0.0,0.0,0.0,0.0,0.0,0.0,0.0,0.0,0.0,0.0,0.0,0.0,0.0,0.0,0.0,0.0,0.0,0.0,0.0,0.0,0.0,0.0,0.0,0.0,0.0,0.0,0.0,0.0,0.0,0.0,0.0,0.0,0.0,0.0,0.0,0.0,0.0,0.0,0.0,0.0,0.0,0.0,0.0,0.0,0.0,0.0,0.0,0.0,0.0,0.0,0.0,0.0,0.0,0.0,0.0,0.0,0.0,0.0,0.0,0.0,0.0,0.0,0.0,0.0,0.0,0.0,0.0,0.0,0.0,0.0,0.0,0.0,0.0,0.0,0.0,0.0,0.0,0.0,0.0,0.0,0.0,0.0,0.0,0.0,0.0,0.0,0.0,0.0,0.0,0.0,0.0,0.0,0.0,0.0,0.0,0.0,0.0,0.0,3.6897,3.6922,3.8115,3.8199,3.8182,3.8182,3.8037,3.7313,3.5884,3.5623,0.0,0.0,0.0,0.0,0.0,0.0,0.0,0.0,0.0,0.0,0.0,0.0,0.0,0.0,0.0,0.0,0.0,0.0,0.0,0.0,0.0,0.0,0.0,0.0,0.0,0.0,0.0,0.0,0.0,0.0,0.0,0.0,0.0,0.0,0.0,0.0,0.0,0.0,0.0,0.0,0.0,0.0,0.0,0.0,0.0,0.0,0.0,0.0,0.0,0.0,0.0,0.0,0.0,0.0,0.0,0.0,0.0,0.0,0.0,0.0,0.0,0.0,0.0,0.0,0.0,0.0,0.0,0.0,0.0,0.0,0.0,0.0,0.0,0.0,0.0,0.0,0.0,0.0,0.0,0.0,0.0,0.0,0.0,0.0,0.0,0.0,0.0,0.0,0.0,0.0,0.0,0.0,0.0,0.0,0.0,0.0,0.0,0.0,0.0,0.0,0.0,0.0,3.6895,3.8153,3.829,3.8232,3.8182,3.8182,3.7502,3.6733,3.584,3.5088,0.0,0.0,0.0,0.0,0.0,0.0,0.0,0.0,0.0,0.0,0.0,0.0,0.0,0.0,0.0,0.0,0.0,0.0,0.0,0.0,0.0,0.0,0.0,0.0,0.0,0.0,0.0,0.0,0.0,0.0,0.0,0.0,0.0,0.0,0.0,0.0,0.0,0.0,0.0,0.0,0.0,0.0,0.0,0.0,0.0,0.0,0.0,0.0,0.0,0.0,0.0,0.0,0.0,0.0,0.0,0.0,0.0,0.0,0.0,0.0,0.0,0.0,0.0,0.0,0.0,0.0,0.0,0.0,0.0,0.0,0.0,0.0,0.0,0.0,0.0,0.0,0.0,0.0,0.0,0.0,0.0,0.0,0.0,0.0,0.0,0.0,0.0,0.0,0.0,0.0,0.0,0.0,0.0,0.0,0.0,0.0,0.0,0.0,0.0,0.0,0.0,0.0,3.6811,3.7782,0.0,3.8232,3.8182,3.8182,3.7937,3.7204,3.5884,0.0,0.0,0.0,0.0,0.0,0.0,0.0,0.0,0.0,0.0,0.0,0.0,0.0,0.0,0.0,0.0,0.0,0.0,0.0,0.0,0.0,0.0,0.0,0.0,0.0,0.0,0.0,0.0,0.0,0.0,0.0,0.0,0.0,0.0,0.0,0.0,0.0,0.0,0.0,0.0,0.0,0.0,0.0,0.0,0.0,0.0,0.0,0.0,0.0,0.0,0.0,0.0,0.0,0.0,0.0,0.0,0.0,0.0,0.0,0.0,0.0,0.0,0.0,0.0,0.0,0.0,0.0,0.0,0.0,0.0,0.0,0.0,0.0,0.0,0.0,0.0,0.0,0.0,0.0,0.0,0.0,0.0,0.0,0.0,0.0,0.0,0.0,0.0,0.0,0.0,0.0,0.0,0.0,0.0,0.0,0.0,0.0,0.0,0.0,0.0,0.0,0.0,3.601,3.7026,3.7797,0.0,3.829,3.8224,3.8224,3.772,3.6979,3.5876,0.0,0.0,0.0,0.0,0.0,0.0,0.0,0.0,0.0,0.0,0.0,0.0,0.0,0.0,0.0,0.0,0.0,0.0,0.0,0.0,0.0,0.0,0.0,0.0,0.0,0.0,0.0,0.0,0.0,0.0,0.0,0.0,0.0,0.0,0.0,0.0,0.0,0.0,0.0,0.0,0.0,0.0,0.0,0.0,0.0,0.0,0.0,0.0,0.0,0.0,0.0,0.0,0.0,0.0,0.0,0.0,0.0,0.0,0.0,0.0,0.0,0.0,0.0,0.0,0.0,0.0,0.0,0.0,0.0,0.0,0.0,0.0,0.0,0.0,0.0,0.0,0.0,0.0,0.0,0.0,0.0,0.0,0.0,0.0,0.0,0.0,0.0,0.0,0.0,0.0,0.0,0.0,0.0,0.0,0.0,0.0,0.0,0.0,0.0,0.0,0.0,0.0,3.631,3.7593,3.8491,3.8491,3.8368,3.8299,3.8299,3.6765,3.5804,0.0,0.0,0.0,0.0,0.0,0.0,0.0,0.0,0.0,0.0,0.0,0.0,0.0,0.0,0.0,0.0,0.0,0.0,0.0,0.0,0.0,0.0,0.0,0.0,0.0,0.0,0.0,0.0,0.0,0.0,0.0,0.0,0.0,0.0,0.0,0.0,0.0,0.0,0.0,0.0,0.0,0.0,0.0,0.0,0.0,0.0,0.0,0.0,0.0,0.0,0.0,0.0,0.0,0.0,0.0,0.0,0.0,0.0,0.0,0.0,0.0,0.0,0.0,0.0,0.0,0.0,0.0,0.0,0.0,0.0,0.0,0.0,0.0,0.0,0.0,0.0,0.0,0.0,0.0,0.0,0.0,0.0,0.0,0.0,0.0,0.0,0.0,0.0,0.0,0.0,0.0,0.0,0.0,0.0,0.0,0.0,0.0,0.0,0.0,0.0,0.0,0.0,0.0,3.7081,3.7923,3.8491,3.8491,3.8368,3.8299,3.8299,3.7789,3.7039,3.5927,0.0,0.0,0.0,0.0,0.0,0.0,0.0,0.0,0.0,0.0,0.0,0.0,0.0,0.0,0.0,0.0,0.0,0.0,0.0,0.0,0.0,0.0,0.0,0.0,0.0,0.0,0.0,0.0,0.0,0.0,0.0,0.0,0.0,0.0,0.0,0.0,0.0,0.0,0.0,0.0,0.0,0.0,0.0,0.0,0.0,0.0,0.0,0.0,0.0,0.0,0.0,0.0,0.0,0.0,0.0,0.0,0.0,0.0,0.0,0.0,0.0,0.0,0.0,0.0,0.0,0.0,0.0,0.0,0.0,0.0,0.0,0.0,0.0,0.0,0.0,0.0,0.0,0.0,0.0,0.0,0.0,0.0,0.0,0.0,0.0,0.0,0.0,0.0,0.0,0.0,0.0,0.0,0.0,0.0,0.0,0.0,0.0,0.0,0.0,0.0,0.0,0.0,3.7419,3.8137,3.8575,3.8575,3.8457,3.8368,3.8368,3.8004,3.739,3.6485,0.0,0.0,0.0,0.0,0.0,0.0,0.0,0.0,0.0,0.0,0.0,0.0,0.0,0.0,0.0,0.0,0.0,0.0,0.0,0.0,0.0,0.0,0.0,0.0,0.0,0.0,0.0,0.0,0.0,0.0,0.0,0.0,0.0,0.0,0.0,0.0,0.0,0.0,0.0,0.0,0.0,0.0,0.0,0.0,0.0,0.0,0.0,0.0,0.0,0.0,0.0,0.0,0.0,0.0,0.0,0.0,0.0,0.0,0.0,0.0,0.0,0.0,0.0,0.0,0.0,0.0,0.0,0.0,0.0,0.0,0.0,0.0,0.0,0.0,0.0,0.0,0.0,0.0,0.0,0.0,0.0,0.0,0.0,0.0,0.0,0.0,0.0,0.0,0.0,0.0,0.0,0.0,0.0,0.0,0.0,0.0,0.0,0.0,0.0,0.0,0.0,0.0,3.7639,3.8366,3.8791,3.8791,3.8611,3.8491,3.8491,3.7755,3.727,3.7205,0.0,0.0,0.0,0.0,0.0,0.0,0.0,0.0,0.0,0.0,0.0,0.0,0.0,0.0,0.0,0.0,0.0,0.0,0.0,0.0,0.0,0.0,0.0,0.0,0.0,0.0,0.0,0.0,0.0,0.0,0.0,0.0,0.0,0.0,0.0,0.0,0.0,0.0,0.0,0.0,0.0,0.0,0.0,0.0,0.0,0.0,0.0,0.0,0.0,0.0,0.0,0.0,0.0,0.0,0.0,0.0,0.0,0.0,0.0,0.0,3.9948,0.0,0.0,0.0,0.0,0.0,0.0,0.0,0.0,0.0,0.0,0.0,0.0,0.0,0.0,0.0,0.0,0.0,0.0,0.0,0.0,0.0,0.0,0.0,0.0,0.0,0.0,0.0,0.0,0.0,0.0,0.0,0.0,0.0,0.0,0.0,0.0,0.0,0.0,0.0,0.0,0.0,3.9284,3.9541,3.9651,3.9651,3.8941,3.8491,3.8491,3.8274,3.7885,3.7311,3.6953,0.0,0.0,0.0,0.0,0.0,0.0,0.0,0.0,0.0,0.0,0.0,0.0,0.0,0.0,0.0,0.0,0.0,0.0,0.0,0.0,0.0,0.0,0.0,0.0,0.0,0.0,0.0,0.0,0.0,0.0,0.0,0.0,0.0,0.0,0.0,0.0,0.0,0.0,0.0,0.0,0.0,0.0,0.0,0.0,0.0,0.0,0.0,0.0,0.0,0.0,0.0,0.0,0.0,0.0,0.0,0.0,0.0,0.0,0.0,0.0,4.1652,0.0,0.0,0.0,0.0,0.0,0.0,0.0,0.0,0.0,0.0,0.0,0.0,0.0,0.0,0.0,0.0,0.0,0.0,0.0,0.0,0.0,0.0,0.0,0.0,0.0,0.0,0.0,0.0,0.0,0.0,0.0,0.0,0.0,0.0,0.0,0.0,0.0,0.0,0.0,0.0,4.0333,4.012,3.9908,3.9908,3.9127,3.8583,3.8583,3.8551,3.8397,3.7989,3.7593,0.0,0.0,0.0,0.0,0.0,0.0,0.0,0.0,0.0,0.0,0.0,0.0,0.0,0.0,0.0,0.0,0.0,0.0,0.0,0.0,0.0,0.0,0.0,0.0,0.0,0.0,0.0,0.0,0.0,0.0,0.0,0.0,0.0,0.0,0.0,0.0,0.0,0.0,0.0,0.0,0.0,0.0,0.0,0.0,0.0,0.0,0.0,0.0,0.0,0.0,0.0,0.0,0.0,4.8174,4.8711,4.8711,4.8711,4.8711,4.8597,4.6392,4.5407,4.5255,4.4308,0.0,0.0,0.0,0.0,0.0,0.0,0.0,0.0,0.0,0.0,0.0,0.0,0.0,0.0,0.0,0.0,0.0,0.0,0.0,0.0,0.0,0.0,0.0,0.0,4.2537,4.2092,0.0,0.0,0.0,0.0,0.0,0.0,0.0,0.0,0.0,0.0,0.0,0.0,4.0956,4.0634,4.0312,4.0312,3.946,3.8909,3.8909,3.8791,3.8681,3.8681,3.8072,3.7713,0.0,0.0,0.0,0.0,0.0,0.0,0.0,0.0,0.0,0.0,0.0,0.0,0.0,0.0,0.0,0.0,0.0,0.0,0.0,0.0,0.0,0.0,0.0,0.0,0.0,0.0,0.0,0.0,0.0,0.0,0.0,0.0,3.9862,4.0626,0.0,0.0,0.0,0.0,0.0,0.0,0.0,0.0,0.0,0.0,0.0,0.0,0.0,4.8028,4.8028,5.041,5.1237,5.0555,5.2828,5.3897,5.3897,5.3897,5.3897,5.3859,5.2836,0.0,4.6967,4.5407,0.0,0.0,0.0,0.0,0.0,0.0,0.0,0.0,0.0,0.0,0.0,0.0,0.0,0.0,0.0,0.0,0.0,0.0,0.0,0.0,0.0,0.0,4.354,4.3652,4.3763,4.3689,0.0,4.2017,4.0421,3.7997,3.7629,0.0,0.0,0.0,0.0,0.0,0.0,0.0,4.1168,4.1625,4.1992,4.1992,4.0634,3.9761,3.9761,3.9093,3.8681,3.8681,3.8615,3.8542,3.8542,3.8432,0.0,0.0,0.0,0.0,0.0,0.0,0.0,0.0,0.0,0.0,0.0,0.0,0.0,0.0,0.0,0.0,0.0,0.0,0.0,0.0,0.0,0.0,0.0,0.0,0.0,0.0,0.0,0.0,0.0,4.1904,4.2549,4.2053,4.3264,4.3977,0.0,0.0,0.0,0.0,0.0,0.0,0.0,0.0,0.0,5.0144,5.0599,5.1244,5.2191,5.3745,5.4352,5.4048,5.5564,5.6323,5.6323,5.6323,5.6323,5.6247,5.5451,5.4314,5.2722,4.9166,4.8211,4.8856,0.0,0.0,0.0,0.0,4.7655,4.7664,4.7997,4.7196,0.0,0.0,0.0,0.0,0.0,0.0,0.0,0.0,0.0,0.0,0.0,0.0,0.0,4.6735,4.6735,4.6624,4.6178,4.5547,4.4141,0.0,4.0488,4.0236,3.956,0.0,0.0,0.0,0.0,4.2845,4.2506,4.2772,4.28,4.2359,4.1258,4.0377,3.9945,3.9578,3.9166,3.8718,3.9129,3.935,3.935,3.935,3.9203,0.0,0.0,0.0,0.0,0.0,0.0,0.0,0.0,0.0,0.0,0.0,0.0,0.0,0.0,0.0,0.0,0.0,0.0,0.0,0.0,0.0,0.0,0.0,0.0,0.0,0.0,0.0,0.0,4.4755,4.5601,4.4041,4.6101,4.7228,0.0,0.0,0.0,0.0,0.0,0.0,5.1485,5.1181,5.1982,5.4238,5.4534,5.5223,5.6474,5.7346,5.7649,5.746,5.8293,5.8672,5.8672,5.8445,5.8339,5.8293,5.7278,5.7202,5.7384,5.2767,5.1395,5.1995,5.0296,5.0,5.053,5.053,5.0682,5.0927,5.1382,5.0726,4.9572,4.9078,0.0,4.608,4.4348,0.0,0.0,0.0,0.0,4.655,4.7961,4.863,4.8956,4.9141,4.9039,4.8742,4.8147,4.785,4.683,0.0,4.3272,4.2757,4.1206,0.0,0.0,0.0,0.0,4.3983,4.3543,4.369,4.3433,4.2396,4.1764,4.0993,3.9981,3.9908,3.9651,3.9056,3.9578,3.9981,4.0194,4.0194,4.0136,3.9932,0.0,0.0,0.0,0.0,0.0,0.0,0.0,0.0,0.0,0.0,0.0,0.0,0.0,0.0,0.0,0.0,0.0,0.0,0.0,0.0,0.0,0.0,0.0,0.0,0.0,0.0,0.0,0.0,0.0,4.7441,4.9448,0.0,0.0,0.0,0.0,5.1128,5.2619,5.4227,5.5896,5.6686,5.7795,5.9476,6.0273,6.0689,6.0803,6.1658,6.1667,6.0879,6.1734,6.2151,6.2113,6.1288,6.0917,6.0841,5.9249,5.8605,5.8377,5.492,5.3973,5.4541,5.2866,5.226,5.226,5.226,5.279,5.3496,5.3316,5.3232,5.3239,5.3854,5.2894,5.1172,4.937,4.8827,0.0,0.0,4.8704,4.8927,4.9773,4.9439,4.9076,4.9847,4.9439,4.889,4.8853,4.8259,4.7164,0.0,4.4996,4.4679,4.3693,0.0,4.441,4.3515,4.4754,4.5223,4.369,4.4158,4.4039,4.247,4.2249,4.1589,4.0018,3.9908,3.9871,3.9835,3.9871,4.023,4.103,4.103,4.0695,4.0002,3.9973,0.0,0.0,0.0,0.0,0.0,0.0,0.0,0.0,0.0,0.0,0.0,0.0,0.0,0.0,0.0,0.0,0.0,0.0,0.0,0.0,0.0,0.0,0.0,0.0,0.0,0.0,0.0,0.0,5.2451,5.4589,0.0,5.4583,5.4738,5.5204,5.6078,5.7142,5.825,5.9319,6.0183,6.0933,6.1477,6.178,6.1932,6.1932,6.2227,6.2227,6.1932,6.2265,6.2416,6.2378,6.1515,6.1106,6.1069,6.05,5.9931,5.9439,5.8756,5.7687,5.6436,5.5868,5.5602,5.5602,5.5602,5.583,5.6087,5.6003,5.5261,5.4133,5.2642,5.1367,5.0266,4.9391,4.916,4.9231,4.9611,4.9745,4.993,5.0748,5.0711,5.045,5.0182,4.9884,4.9513,4.8993,4.8667,4.8287,4.7667,4.6652,4.5593,4.4765,4.5202,4.5393,4.452,4.5699,4.6094,4.4488,4.4966,4.4856,4.3249,4.2616,4.1846,4.0781,4.0194,3.9908,3.9908,4.0377,4.0834,4.1148,4.1148,4.0828,4.0065,3.9549,3.9172,0.0,0.0,0.0,0.0,0.0,0.0,0.0,0.0,0.0,0.0,0.0,0.0,0.0,0.0,0.0,0.0,0.0,0.0,0.0,0.0,0.0,0.0,0.0,0.0,0.0,5.4146,5.6399,5.5978,5.8585,6.002,5.8912,5.9268,5.9798,6.0367,6.1131,6.1932,6.2728,6.3326,6.3667,6.3667,6.3667,6.3515,6.325,6.325,6.325,6.325,6.325,6.3098,6.2795,6.1932,6.1363,6.1069,6.0803,6.0386,5.9931,6.0462,5.9552,5.7846,5.7846,5.7846,5.7809,5.7497,5.7384,5.7376,5.7321,5.6357,5.485,5.3071,5.1894,5.1124,5.0543,5.0571,5.0752,5.0653,5.1008,5.1416,5.1416,5.1602,5.1528,5.0367,5.0107,4.9884,4.9067,4.889,4.889,4.889,4.7984,4.6903,4.6108,4.6552,4.6697,4.5824,4.6774,4.6976,4.5333,4.5553,4.5195,4.3286,4.2873,4.2184,4.0842,4.0748,4.0625,4.0399,4.0869,4.129,4.1641,4.1649,4.132,4.0599,4.0067,3.9845,3.9888,0.0,0.0,0.0,0.0,0.0,0.0,0.0,0.0,0.0,0.0,0.0,0.0,0.0,0.0,0.0,0.0,0.0,0.0,0.0,0.0,0.0,0.0,0.0,5.3131,5.6929,5.9501,5.8008,6.1321,6.3124,6.1576,6.2876,6.3781,6.3705,6.4538,6.5372,6.6092,6.6168,6.6168,6.613,6.613,6.576,6.4964,6.4926,6.4917,6.4888,6.4888,6.4425,6.3553,6.2757,6.1894,6.1069,6.0273,5.9931,5.9893,5.9931,5.9476,5.8718,5.8718,5.868,5.8567,5.7687,5.7376,5.7345,5.7137,5.6404,5.5581,5.5581,5.5047,5.4216,5.3219,5.3465,5.3719,5.1954,5.2568,5.3413,5.1825,5.2011,5.2159,5.0516,5.0144,4.9921,4.915,4.8964,4.8964,4.8964,4.8964,4.8678,4.7813,4.8277,4.8474,4.7472,4.8016,0.0,4.6159,4.5929,4.5011,4.2662,4.3037,4.2548,4.0312,4.1498,4.2054,4.1366,4.1337,4.1699,4.2458,4.2495,4.2203,4.1526,4.1572,4.1616,4.1616,0.0,0.0,0.0,0.0,0.0,0.0,0.0,0.0,0.0,0.0,0.0,0.0,0.0,0.0,0.0,0.0,0.0,0.0,0.0,0.0,0.0,5.7422,5.9097,5.8756,6.1477,6.3798,6.4574,6.6186,6.7058,6.6621,6.756,6.7655,6.6442,6.7693,6.8072,6.7087,6.7617,6.7655,6.7049,6.7049,6.6632,6.5789,6.5751,6.5495,6.488,6.4273,6.3818,6.3553,6.2122,6.1334,6.1106,6.0879,6.0424,5.9931,6.0538,6.031,5.9514,5.8946,5.8301,5.7717,5.7324,5.7125,5.694,5.624,5.5813,5.5489,5.4749,5.4367,5.4107,5.3684,5.373,5.3795,5.3283,5.3042,5.2828,5.2382,5.2011,5.1602,5.1156,5.1045,5.0971,5.0748,5.0711,5.0711,5.0711,5.0711,5.0256,4.8781,4.8593,4.8559,4.8292,4.8301,0.0,4.7022,4.6405,4.5798,4.5204,4.3746,4.2832,4.2746,4.2081,4.1839,4.2232,4.2232,4.2358,4.2628,4.2635,4.2304,4.1579,4.1601,4.1616,0.0,0.0,0.0,0.0,0.0,0.0,0.0,0.0,0.0,0.0,0.0,0.0,0.0,0.0,0.0,0.0,0.0,0.0,0.0,0.0,0.0,0.0,6.2235,6.4518,6.5655,6.6177,6.6935,6.83,6.9484,7.0204,7.0204,7.0659,7.0545,6.956,7.0394,7.0507,6.956,6.9598,6.9437,6.8944,6.8262,6.7655,6.7162,6.6442,6.5874,6.5381,6.4538,6.3932,6.3553,6.2576,6.197,0.0,6.1258,6.1031,6.09,6.0606,6.0194,0.0,0.0,0.0,0.0,0.0,5.6151,5.5664,5.513,5.4927,5.4762,5.4158,5.3972,5.3879,5.3414,5.3524,5.3683,5.2977,5.294,5.294,5.2271,5.2234,5.2234,5.1565,5.1676,5.1825,5.1454,5.1416,5.1416,5.1416,0.0,0.0,4.9559,4.9322,4.9241,4.9205,4.8799,4.8246,4.7426,4.6946,4.6521,4.6242,4.4625,4.3681,4.3832,4.2982,0.0,0.0,0.0,4.2682,4.2721,4.2729,0.0,0.0,0.0,4.2612,4.2612,0.0,0.0,0.0,4.3318,4.3763,0.0,0.0,0.0,0.0,0.0,0.0,0.0,0.0,0.0,0.0,0.0,0.0,0.0,0.0,0.0,0.0,6.8034,7.0735,7.2327,7.0649,6.9512,7.0128,7.1569,7.2517,7.2403,7.2554,7.2592,7.2403,7.2479,7.2517,7.2403,0.0,0.0,0.0,0.0,6.883,6.8754,6.7162,6.632,6.6253,6.541,6.4576,6.3743,6.3629,6.3174,6.2378,6.1591,6.165,6.226,6.0583,5.9824,5.9552,5.7946,5.767,5.7974,5.6304,5.5114,5.4362,5.4362,0.0,0.0,5.398,5.3933,5.3784,5.2977,5.3237,5.3487,5.2085,5.2717,5.345,5.2048,5.2717,5.345,5.2011,5.2234,5.2531,5.1825,5.1676,5.1639,5.1565,5.0896,5.033,5.0256,5.0061,4.9923,4.9879,4.9231,4.8492,4.7644,4.7487,4.7192,4.6572,0.0,0.0,4.4387,4.4172,4.3833,4.3243,4.3132,4.302,4.2946,4.2946,4.328,4.3986,4.4098,4.4135,4.4135,4.4246,4.4283,4.4283,4.4172,4.4544,0.0,0.0,0.0,0.0,0.0,0.0,0.0,0.0,0.0,0.0,0.0,0.0,0.0,0.0,0.0,6.7276,7.0166,7.2251,7.3217,7.3558,7.3227,7.2062,7.2772,7.3113,7.2441,7.3606,7.3871,7.2517,7.2999,7.3075,7.2441,7.2251,7.2137,7.2137,7.1152,7.0308,6.9636,6.8641,6.7807,6.7125,0.0,0.0,6.4614,6.3932,6.3174,6.2378,6.2227,6.2141,6.2142,6.1766,6.1129,6.0107,5.7822,5.6898,5.6809,5.6472,5.6145,5.5859,5.5859,5.583,5.5689,5.501,5.475,5.4602,5.3831,5.3673,0.0,5.3423,5.3562,5.371,5.3423,5.3571,5.372,5.3423,5.346,5.3524,5.3376,5.3339,5.3162,5.2494,5.2234,5.1899,5.1268,4.9979,4.9036,4.9018,4.8807,4.8595,4.8538,4.7954,4.7758,4.831,4.7094,4.6397,4.6933,4.5782,4.5233,4.5732,4.5183,4.4506,4.3801,4.3763,4.3838,4.3986,4.4692,4.5034,4.5034,4.5695,4.603,4.5992,4.5369,4.5146,0.0,0.0,0.0,0.0,0.0,0.0,0.0,0.0,0.0,0.0,0.0,6.0416,6.2084,0.0,6.7693,7.0649,7.2545,7.4058,7.5145,7.5323,7.4771,7.3179,7.3747,7.4088,7.3682,7.4402,7.4553,7.372,7.4023,7.4099,7.3682,7.3227,7.295,7.2848,7.2154,7.1293,7.0352,6.9616,6.883,6.7996,6.7023,6.6324,6.5936,6.5417,6.4728,6.3936,6.3483,6.3239,6.3068,6.2192,6.1154,6.0038,5.8395,5.7508,5.7135,5.7029,5.6707,5.632,5.632,5.6023,5.5567,5.5122,5.4713,5.4304,5.3933,5.3784,5.3784,5.3784,5.3784,5.3784,5.3784,5.3784,5.3784,5.3784,5.3784,5.3784,5.3784,5.3784,5.3562,5.2754,5.2271,5.1714,5.0896,5.0043,4.9451,4.9451,4.9045,4.8767,4.8849,4.8486,4.843,4.8844,4.7813,4.7256,4.7664,4.6587,4.6067,4.6475,4.6112,4.5695,4.5287,4.5249,4.5249,4.5249,4.5658,4.5881,4.5881,4.629,4.6513,4.6513,4.6513,4.6513,0.0,0.0,0.0,0.0,0.0,0.0,0.0,5.7308,5.7914,6.0955,6.2917,6.4681,6.6653,6.9067,7.1443,7.3398,7.4722,7.5782,7.6576,7.6139,7.5274,7.4086,7.4409,7.476,7.476,7.476,7.476,7.476,7.476,7.476,7.476,7.4079,7.3618,7.3447,7.2824,7.2078,7.1222,7.0415,6.9625,6.8934,6.7926,6.7357,6.7158,6.6873,6.6264,6.5438,6.4524,6.4138,6.4026,6.2537,6.1406,6.0508,5.9542,5.8875,5.841,5.7905,5.7323,5.6766,5.6766,5.632,5.5679,5.553,5.4936,5.423,5.4082,5.3933,5.3784,5.3784,5.3784,5.3784,5.3784,5.3784,5.3784,5.3784,5.3784,5.3784,5.3784,5.3784,5.3562,5.2754,5.2085,5.1342,5.0488,5.033,5.0219,4.9921,4.9447,4.9076,4.8919,4.889,4.889,4.889,4.8333,4.7887,4.7701,4.7256,4.681,4.6513,4.6661,4.6661,4.6513,4.6513,4.6513,4.6513,4.6661,4.6735,4.6735,4.6884,4.6958,4.6995,4.7627,4.785,5.0492,5.1206,5.3738,5.8112,5.815,5.8862,0.0,6.5912,6.5381,6.7238,6.8944,7.0137,7.0242,7.2325,7.3986,7.4038,7.6007,7.7085,7.576,7.5509,7.5371,7.5232,7.4605,7.4191,7.4191,7.4191,7.4191,7.4191,7.4191,7.4191,7.4191,7.4116,7.4029,7.4007,7.3252,7.2801,7.2665,7.1109,7.0293,7.0181,6.9332,6.857,6.777,6.7036,6.6274,6.5438,6.4379,6.392,6.391,6.3512,6.3279,6.3033,6.151,6.0863,6.0662,5.9107,5.8502,5.8427,5.8427,5.8353,5.8167,5.7462,5.6692,5.5874,5.5085,5.4379,5.3784,5.3784,5.3784,5.3784,5.3784,5.3784,5.3784,5.3784,5.3784,5.3784,5.3784,5.3784,5.3562,5.2754,5.2531,5.2197,5.1379,5.1268,5.0748,4.9262,4.9559,4.9699,4.9002,4.889,4.889,4.889,4.8816,4.8481,4.7776,4.8259,4.8036,4.6587,4.7181,4.7256,4.6513,4.6513,4.6513,4.6513,4.7181,4.7553,4.7553,4.8296,4.863,4.863,4.8704,4.837,5.4776,5.5534,5.6929,6.0454,6.1451,6.2602,6.674,6.7011,6.7138,6.9796,7.1691,7.3129,7.3996,7.5414,7.6207,7.565,7.6063,7.6165,7.5307,7.4759,7.4598,7.4885,7.4599,7.4312,7.4113,7.4111,7.4111,7.4111,7.4111,7.4111,7.4111,7.4111,7.359,7.2487,7.2739,7.2139,7.054,7.095,7.0679,6.9691,6.9709,6.9267,6.8395,6.795,6.706,6.5792,6.435,6.3449,6.3039,6.2929,6.2625,6.2142,6.1473,6.1187,6.099,5.9319,5.8687,5.8687,5.8687,5.839,5.7881,5.7063,5.6236,5.5382,5.4564,5.4082,5.3784,5.3784,5.3784,5.3784,5.3784,5.3784,5.3784,5.3784,5.3784,5.3784,5.3784,5.3774,5.3475,5.266,5.2464,5.2185,5.1426,5.1649,5.1603,5.0516,5.0636,5.0748,5.0413,4.993,4.941,4.8956,4.889,4.8779,4.8444,4.8704,4.863,4.7924,4.8221,4.8259,4.7924,4.7887,4.7887,4.7887,4.8221,4.8407,4.8407,4.8742,4.889,4.889,4.889,4.8716,5.7578,5.8378,5.9055,6.2667,6.4502,6.6006,6.8135,6.8639,6.9486,7.2372,7.3949,7.5138,7.6292,7.6954,7.7017,7.5894,7.5582,7.5371,7.4935,7.4374,7.4075,7.4266,7.4054,7.3837,7.3612,7.3985,7.4247,7.4247,7.4022,7.391,7.391,7.391,7.3264,7.1925,7.2617,7.1993,6.9761,7.0908,7.0776,6.9342,6.9544,6.9339,6.8705,6.8107,6.7082,6.5671,6.4222,6.3256,6.2736,6.2736,6.2402,6.1856,6.1633,6.1521,6.1373,5.9913,5.9245,5.8985,5.8762,5.8316,5.7722,5.7138,5.6385,5.5567,5.501,5.4676,5.45,5.45,5.45,5.4426,5.4193,5.4119,5.4082,5.3859,5.3784,5.3775,5.3793,5.3725,5.3509,5.2813,5.2681,5.2466,5.1943,5.2322,5.2536,5.2066,5.202,5.1862,5.1454,5.0859,5.0219,4.967,4.9596,4.9485,4.9253,4.9224,4.915,4.8927,4.889,4.889,4.889,4.889,4.889,4.889,4.889,4.889,4.889,4.889,4.889,4.889,4.8901,4.8857,5.6987,5.7612,5.8417,6.494,6.7192,6.8656,7.1982,7.3334,7.4362,7.6076,7.6501,7.6441,7.6269,7.6218,7.5644,7.3785,7.4787,7.5517,7.4736,7.4588,7.429,7.3534,7.2754,7.2283,7.2259,7.3671,7.4601,7.4601,7.3857,7.3411,7.3411,7.3411,7.3411,7.3324,7.3374,7.2965,7.2098,7.1305,7.0524,6.967,6.8914,6.8543,6.8468,6.6908,6.5671,6.4779,6.3962,6.359,6.3553,6.3553,6.3553,6.3442,6.2662,6.2365,6.2253,6.1436,6.0582,5.9765,5.8985,5.8687,5.865,5.865,5.8093,5.7435,5.7387,5.684,5.6209,5.6209,5.6209,5.6023,5.5196,5.4973,5.475,5.397,5.3784,5.3793,5.3733,5.3704,5.3637,5.3511,5.3454,5.3454,5.3417,5.3454,5.3454,5.3427,5.3534,5.3076,5.1584,5.1379,5.1342,5.1342,5.1305,5.0971,5.0144,5.007,4.9736,4.8956,4.889,4.889,4.889,4.889,4.889,4.889,4.889,4.889,4.889,4.889,4.889,4.8881,4.884,4.8796,5.8189,6.0313,6.278,6.7257,6.9274,7.0733,7.3001,7.3989,7.4573,7.5169,7.4436,7.3827,7.4247,7.3899,7.3501,7.3398,7.476,7.554,7.4723,7.5057,7.4686,7.2828,7.3794,7.4166,7.3088,7.3014,7.346,7.4537,7.3831,7.3645,7.4166,7.3683,7.3162,7.2605,7.2605,7.2196,7.1366,7.1056,7.0499,6.9682,6.8865,6.8233,6.7676,6.7156,6.6451,6.5633,6.4742,6.4073,6.359,6.359,6.3293,6.281,6.307,6.3182,6.3033,6.1707,6.1001,6.0619,5.9802,5.9133,5.8613,5.8093,5.7732,5.7286,5.6162,5.5642,5.5429,5.5429,5.5035,5.4615,5.4865,5.4454,5.3923,5.3664,5.359,5.358,5.3578,5.3508,5.341,5.338,5.3345,5.3324,5.3359,5.3369,5.342,5.3598,5.3684,5.3335,5.2336,5.2197,5.1974,5.1454,5.1416,5.1268,5.1008,5.0971,5.0859,5.0599,5.0562,5.0302,4.9707,4.9699,4.9447,4.8927,4.889,4.889,4.889,4.889,4.9144,4.9638,4.9602,4.9529,6.0975,6.3273,6.5726,6.9338,7.094,7.1988,7.333,7.3911,7.4314,7.4909,7.3274,7.1998,7.2828,7.1602,7.0524,7.0735,7.2146,7.3224,7.3261,7.3967,7.4166,7.3162,7.4166,7.4537,7.3497,7.2939,7.3162,7.45,7.3831,7.3645,7.4128,7.3683,7.3162,7.2642,7.2642,7.2233,7.1366,7.1056,7.0351,6.9274,6.8753,6.8233,6.7713,6.7119,6.6599,6.6042,6.4853,6.4073,6.359,6.359,6.3293,6.2848,6.307,6.3182,6.2996,6.1707,6.099,6.0619,5.9765,5.9133,5.8613,5.8093,5.7887,5.767,5.6584,5.623,5.6162,5.5866,5.5593,5.5272,5.4913,5.4825,5.4552,5.3712,5.3702,5.384,5.3504,5.3359,5.3297,5.3256,5.323,5.3198,5.3272,5.3246,5.3345,5.3528,5.3558,5.3432,5.306,5.3051,5.2828,5.2308,5.2271,5.2159,5.1862,5.1825,5.1714,5.1416,5.1416,5.1156,5.0599,5.0562,5.0339,4.9819,4.9782,4.9764,4.972,4.972,4.9962,5.038,5.0342,5.0257,6.4848,6.6304,6.7193,7.1193,7.2233,7.2456,7.3237,7.3385,7.3794,7.5206,7.2876,7.0796,7.1527,6.9174,6.6896,6.6191,6.7565,6.9348,7.0982,7.1886,7.2939,7.4426,7.3943,7.346,7.346,7.3423,7.3757,7.4612,0.0,7.3423,7.3534,7.3423,7.3385,7.3385,7.3385,7.3014,7.2271,7.1354,7.0091,6.8493,6.8493,6.8493,6.8382,6.6896,6.6191,6.6005,6.4408,6.3702,6.3665,6.3628,6.359,6.3516,6.2699,6.2391,6.229,6.1425,6.0608,5.9791,5.8974,5.8677,5.8677,5.8677,5.8604,5.8481,5.8434,5.8369,5.8171,5.7396,5.7717,5.7717,5.5401,5.5908,5.6451,5.4135,5.4199,5.449,5.3613,5.3408,5.3413,5.3345,5.3324,5.3324,5.3324,5.3287,5.3293,5.3371,5.3345,5.343,5.3737,5.3775,5.3775,5.3775,5.3775,5.3478,5.2707,5.267,5.2336,5.1565,5.1528,5.1491,5.1454,5.1444,5.1444,5.1407,5.1407,5.1315,5.1203,5.1203,5.1193,5.1144,5.1028,5.0969,6.6161,6.8307,7.0054,7.1788,7.2642,7.3162,7.3348,7.3385,7.2977,7.1539,6.8642,6.5856,6.4308,6.4308,6.5076,6.6711,6.988,7.2939,7.5206,7.5169,7.4797,7.4612,7.4426,7.4277,7.4277,7.3757,7.398,0.0,7.4203,7.3906,7.5132,7.4054,7.3385,7.3385,7.3385,7.3311,7.3088,7.1651,7.0091,6.8493,6.8493,6.8196,6.7602,6.7788,6.7231,6.6091,6.5633,6.5076,6.4445,6.385,6.359,6.3505,6.2609,6.2242,6.2082,6.0548,5.986,5.9553,5.8776,5.8497,5.8551,5.8476,5.8459,5.8289,5.765,5.7444,5.7385,5.7163,5.6804,5.6455,5.6418,5.6205,5.582,5.5194,5.522,5.5294,5.5078,5.4993,5.4993,5.4997,5.4987,5.4987,5.4987,5.4473,5.4112,5.4181,5.3676,5.3369,5.3541,5.3571,5.3571,5.3571,5.3571,5.3516,5.3446,5.3409,5.3337,5.319,5.319,5.294,5.2308,5.2187,5.1843,5.125,5.1194,5.1147,5.1109,5.1109,5.1356,5.1838,5.1808,5.1748,6.8766,7.0698,7.2109,7.2605,7.3051,7.3014,7.1589,7.1515,7.0958,6.8122,6.5225,6.281,6.1447,6.1919,6.3108,6.4853,6.858,7.2122,7.4612,7.4834,7.4983,7.5615,7.5689,7.5689,7.5689,7.528,7.5392,7.6284,7.4834,7.4463,7.5726,7.4946,7.4463,7.4463,7.3757,7.3051,7.2295,7.1019,6.9905,6.9013,6.8679,6.8271,6.7825,6.7936,6.7305,6.6079,0.0,6.4969,6.4142,6.3639,6.3431,6.3356,6.2473,6.2327,6.2438,6.0743,6.0129,6.0007,5.915,5.8618,5.8367,5.8393,5.836,5.8205,5.7726,5.7534,5.7416,5.7085,5.6857,5.6702,5.6445,5.6511,5.6466,5.5768,5.5879,5.6014,5.5695,5.5585,5.5585,5.5585,5.5585,5.5585,5.5585,5.5218,5.4946,5.4974,5.4606,5.4223,5.3918,5.3652,5.3491,5.3491,5.3491,5.3548,5.3598,5.3608,5.3627,5.3649,5.3659,5.3474,5.3029,5.2934,5.2673,5.2229,5.218,5.2132,5.2072,5.2072,5.2234,5.2573,5.2573,5.2579,7.1713,7.2865,7.3385,7.3385,7.3311,7.2419,6.9199,6.8865,6.8271,6.4853,6.229,6.063,6.0396,6.0667,6.1288,6.2662,6.6116,6.9694,7.2605,7.3423,7.4612,7.699,7.7064,7.7027,7.725,7.7064,7.7027,7.725,7.5801,7.5243,7.5949,7.5875,7.5763,7.5652,7.4277,7.2704,7.0908,7.0202,6.9756,6.9534,6.8828,6.8481,6.8469,6.7764,6.6935,6.5995,0.0,0.0,6.3347,6.3267,6.3183,6.3109,6.2273,6.2421,6.2827,6.1327,6.0762,6.064,5.981,5.9076,5.8473,5.839,5.8282,5.8156,5.8156,5.8088,5.785,5.7152,5.7446,5.7666,5.6282,5.6943,5.7629,5.6246,5.6455,5.6785,5.6062,5.5915,5.5915,5.5915,5.5915,5.5915,5.5915,5.5842,5.5768,5.5768,5.5658,5.5365,5.4656,5.4018,5.3588,5.3477,5.344,5.3451,5.3461,5.3461,5.3471,5.3491,5.3491,5.3491,5.3491,5.3471,5.3461,5.3461,5.3451,5.339,5.3287,5.3287,5.3272,5.3214,5.3214,5.3214,7.2717,7.3274,7.3385,7.3385,7.2902,7.1713,6.9088,6.7565,6.5596,6.1585,5.9356,5.7732,5.631,5.7759,6.0508,6.4705,6.7676,7.1316,7.6507,7.6172,7.6061,7.7881,7.6878,7.6581,7.7956,7.6841,7.6618,7.7993,7.7213,7.6729,7.6878,7.6209,7.5503,7.4834,7.4537,7.3261,7.0932,7.0759,7.0016,6.8716,6.8568,6.8432,6.8334,6.8185,6.7272,6.578,6.557,0.0,6.3218,6.3194,6.3183,6.3097,6.219,6.1921,6.1909,6.0845,6.0479,6.0442,6.0271,6.0149,5.9794,5.8495,5.8042,5.8031,5.8031,5.802,5.796,5.7813,5.7886,5.7923,5.7666,5.7776,5.7923,5.7629,5.7703,5.774,5.7593,5.7556,5.7556,5.7556,5.7556,5.7556,5.7556,5.7042,5.6602,5.6602,5.6014,5.5548,5.5401,5.4736,5.3975,5.3314,5.3241,5.3272,5.3328,5.3339,5.338,5.3481,5.3491,5.3491,5.3491,5.339,5.3339,5.3339,5.3282,5.323,5.3209,5.3209,5.3198,5.3214,5.3214,5.3214,7.32,7.3385,7.3385,7.3385,7.2159,7.0029,6.6711,6.4705,6.2365,5.8205,5.71,5.6506,5.5233,5.735,6.0248,6.3033,6.5931,6.9546,7.4426,7.4797,7.5318,7.7435,7.7324,7.7435,7.8216,7.7584,7.7435,7.8253,7.7956,7.7733,7.7733,7.6915,7.5912,7.4649,7.4203,7.3001,7.0932,7.0499,6.983,6.9039,6.8581,6.8334,6.8208,6.8208,6.7283,6.5706,6.5632,0.0,6.3087,6.3014,6.2978,6.2941,6.2512,6.2598,6.2892,6.1973,6.1655,6.1582,6.119,6.075,6.0272,5.9501,5.8988,5.8535,5.8143,5.7997,5.7997,5.7997,5.7997,5.7997,5.7997,5.7997,5.7997,5.7997,5.7997,5.7997,5.7997,5.7997,5.7997,5.7997,5.7997,5.7997,5.7997,5.7666,5.7409,5.7409,5.7079,5.6712,5.6271,5.6235,5.5647,5.3995,5.3801,5.3676,5.3288,5.3261,5.3282,5.3345,5.3345,5.3345,5.3345,5.3293,5.3261,5.3261,5.3209,5.3214,5.3214,5.3214,5.3214,5.3214,5.3214,5.3214,7.3348,7.3385,7.3385,7.3385,7.1403,6.8419,6.4482,6.2216,5.9839,5.605,5.5837,5.6134,5.5642,5.7647,5.9839,6.1224,6.3776,6.7168,7.1825,7.3014,7.4389,7.7027,7.7919,7.829,7.829,7.829,7.829,7.829,7.8262,7.8248,7.829,7.7696,7.6655,7.5169,7.4139,7.2813,7.1167,7.0127,6.9483,6.921,6.8567,6.8196,6.8081,6.8081,6.717,6.5619,6.5506,0.0,0.0,6.2842,6.2793,6.2793,6.2793,6.3196,6.3723,6.305,6.2793,6.2719,6.2071,6.1447,6.0896,6.0713,6.0114,5.9306,5.851,5.8253,5.8217,5.8033,5.8107,5.8217,5.8033,5.8253,5.8474,5.829,5.8143,5.8033,5.8217,5.8253,5.8327,5.8474,5.851,5.8474,5.829,5.8253,5.8217,5.8033,5.7997,5.7776,5.7152,5.7593,5.7262,5.5354,5.5023,5.4583,5.3765,5.3544,5.3398,5.3214,5.3214,5.3214,5.3214,5.3214,5.3214,5.3214,5.3214,5.3214,5.3214,5.3214,5.3287,5.3471,5.3471,5.3544,7.32,7.3385,7.3385,7.3385,7.0995,6.7713,6.4371,6.1733,5.9282,5.6729,5.6246,5.6506,5.7127,5.7499,5.8725,6.177,6.3145,6.6054,7.2382,7.3348,7.4574,7.7807,7.8253,7.829,7.829,7.829,7.829,7.829,7.8113,7.8099,7.8276,7.8216,7.777,7.6915,7.5197,7.3535,7.1904,7.0182,6.8971,6.8219,6.8145,6.8068,6.7939,6.7939,6.6977,6.5327,6.5314,0.0,0.0,6.2805,6.2793,6.2793,6.2793,6.2866,6.2903,6.2829,6.2793,6.2793,6.2719,6.2646,6.2462,6.1741,6.0933,6.015,5.9343,5.9086,5.8939,5.8217,5.8547,5.8902,5.818,5.9098,6.0003,5.9269,5.8547,5.8217,5.8939,5.9086,5.9306,6.0052,6.0199,5.993,5.9233,5.9086,5.8829,5.8107,5.7997,5.796,5.7886,5.796,5.7923,5.7703,5.7005,5.6235,5.5438,5.4693,5.3995,5.3251,5.3214,5.3214,5.3214,5.3214,5.3214,5.3214,5.3214,5.3214,5.3214,5.3214,5.3581,5.4289,5.4289,5.4693,7.3497,7.4128,7.4128,7.4128,7.092,6.7045,6.4222,6.0916,5.7907,5.5902,5.631,5.6989,5.6803,5.7175,5.7918,5.9245,5.9728,6.1696,6.6797,6.7503,6.9434,7.4723,7.5355,7.6135,7.8104,7.8207,7.8108,7.8023,7.7914,7.79,7.8008,7.7527,7.6676,7.5394,7.4191,7.2536,7.0391,6.9673,6.8856,6.8004,6.8004,6.7926,6.7781,6.7781,6.6859,6.5288,6.5288,0.0,0.0,6.2793,6.2793,6.2793,6.2793,6.2793,6.2793,6.2793,6.2793,6.2793,6.2793,6.2793,6.2756,6.2438,6.2095,6.1582,6.0297,5.993,5.9857,5.9538,5.9685,5.9857,5.9538,5.9905,6.0309,6.0003,5.9685,5.9538,5.9857,5.993,6.0003,6.0346,6.0419,6.0297,5.9967,5.993,5.982,5.9501,5.9428,5.9428,5.9428,5.9428,5.9428,5.9428,5.7838,5.6664,5.6345,5.5574,5.4987,5.4656,5.462,5.462,5.462,5.462,5.462,5.462,5.462,5.462,5.462,5.462,5.4803,5.5108,5.5108,5.5291,7.2815,7.419,7.4834,7.4351,7.0735,6.6636,6.4185,6.0619,5.7462,5.6013,5.6867,5.7685,5.71,5.7472,5.7833,5.7833,5.7833,5.9207,6.307,6.359,6.5682,7.1305,7.1961,7.3211,7.6476,7.7487,7.7885,7.7762,7.7747,7.7718,7.7673,7.712,7.6205,7.494,7.3398,7.182,7.0307,6.9308,6.8615,6.8178,6.7957,6.7794,6.77,6.77,6.6806,6.5288,0.0,0.0,0.0,6.2793,6.2793,6.2829,6.3086,6.3013,6.2829,6.3086,6.3013,6.2793,6.2793,6.2793,6.2793,6.2793,6.2793,6.2572,6.1435,6.0921,6.0713,6.0456,6.0419,6.0529,6.0994,6.075,6.0456,6.0713,6.0566,6.0456,6.0713,6.075,6.0823,6.1068,6.1104,6.1043,6.0786,6.075,6.0676,6.0456,6.0419,6.0419,6.0419,6.0419,6.0419,6.0419,5.8866,5.7655,5.7189,5.6418,5.5842,5.5622,5.5585,5.5585,5.5585,5.5585,5.5585,5.5585,5.5585,5.5585,5.5585,5.5585,5.5732,5.5941,5.5941,5.6099,7.071,7.3298,7.5429,7.3794,7.0326,6.6636,6.4185,6.1065,5.8465,5.7647,5.813,5.8687,5.8687,5.8687,5.8687,5.8687,5.8687,5.9839,6.3145,6.359,6.4816,6.8159,6.8568,6.9781,7.2953,7.6022,7.7747,7.762,7.762,0.0,7.7341,7.7289,7.7074,7.6587,7.3286,7.189,7.2664,6.9361,6.8104,6.8898,6.8068,6.77,6.77,6.77,6.6806,0.0,0.0,0.0,0.0,6.2793,6.2793,6.2903,6.3759,6.3576,6.2903,6.3759,6.3539,6.2793,6.2793,6.2793,6.2793,6.2793,6.2793,6.2793,6.2793,6.2218,6.141,6.0639,6.0419,6.0774,6.2352,6.1582,6.0603,6.141,6.097,6.0639,6.141,6.1594,6.1814,6.2609,6.2793,6.2536,6.1704,6.1594,6.13,6.0529,6.0419,6.0419,6.0419,6.0419,6.0419,6.0419,6.0382,5.9722,5.8107,5.7262,5.6455,5.5658,5.5585,5.5585,5.5585,5.5585,5.5585,5.5585,5.5585,5.5585,5.5585,5.5585,5.6014,5.6774,5.6774,5.7226,6.7082,6.8382,6.8914,6.78,6.5708,6.3442,6.151,5.9839,5.8465,5.7685,5.813,5.8687,5.8687,5.8687,5.8873,5.943,5.9505,5.9876,6.0916,6.2917,6.5319,6.8025,7.2196,7.5231,7.6109,7.7098,7.7584,7.7417,7.7402,7.7387,7.7289,7.6261,7.533,7.4625,7.3552,7.2053,7.0106,6.9587,6.8912,6.8091,6.8385,6.7944,6.688,6.688,6.5999,0.0,0.0,0.0,0.0,6.3429,6.3686,6.3723,6.3992,6.3906,6.3649,6.3319,6.305,6.2793,6.2793,6.2793,6.2793,6.2793,6.2793,6.2793,6.2793,6.2609,6.2365,6.2095,6.2022,6.2169,6.2683,6.2426,6.2095,6.2352,6.2242,6.2095,6.2365,6.2426,6.2499,6.2756,6.3282,6.3613,6.3368,6.3759,6.387,6.3062,6.2915,6.2915,6.2915,6.1924,6.1447,6.1985,6.1068,5.9967,5.8902,5.9086,5.8694,5.7336,5.7776,5.7813,5.7274,5.7226,5.7226,5.7226,5.7226,5.7226,5.7226,5.7226,5.7373,5.7629,5.7629,5.7776,6.3479,6.5151,6.5782,6.4631,6.3368,6.1956,6.0285,5.9282,5.8539,5.8056,5.8353,5.8687,5.8687,5.8687,5.8873,5.9356,5.9467,5.9643,6.022,6.2516,6.5149,6.7875,7.2733,7.583,7.5765,7.6809,7.7433,7.7326,7.7289,7.7179,7.6848,7.5601,7.439,7.3266,7.2642,7.1541,6.9802,6.9706,6.9302,6.8618,6.8825,6.8385,6.7393,6.71,6.6072,0.0,0.0,0.0,0.0,6.3723,6.3919,6.3686,6.431,6.4163,6.3576,6.3392,6.3086,6.2793,6.2793,6.2793,6.2793,6.2793,6.2793,6.2793,6.2793,6.2793,6.2793,6.2793,6.305,6.3196,6.2903,6.305,6.3196,6.2866,6.2793,6.2793,6.2793,6.2793,6.2903,6.3246,6.3723,6.4213,6.4494,6.4971,6.5141,6.464,6.453,6.453,6.453,6.3649,6.2952,6.2793,6.2218,6.1227,5.9783,6.0114,5.9979,5.8951,5.938,5.9269,5.851,5.8437,5.8327,5.7997,5.7997,5.7997,5.7997,5.7997,5.7997,5.7997,5.7997,5.7997,0.0,6.2922,6.4928,6.3368,6.2513,6.1622,5.9913,5.9059,0.0,5.8539,5.8576,5.8613,5.8613,5.865,5.8725,5.8762,5.8799,5.9314,6.0778,6.2632,6.4929,6.8043,7.1154,7.2947,7.2777,7.5529,7.7289,7.7289,7.7252,7.6885,7.613,7.5234,7.4059,7.2642,7.0954,7.0477,7.1197,6.9802,6.9412,7.0,6.9339,6.8885,6.8715,6.7921,6.6659,0.0,0.0,0.0,0.0,6.3723,6.3613,6.305,6.4591,6.4261,6.2976,6.3723,6.3503,6.2793,6.2793,6.2793,6.2793,6.2793,6.2793,6.2793,6.2793,6.2793,6.2793,6.2866,6.3429,6.3833,6.3086,6.3466,6.3796,6.2976,6.2793,6.2793,6.2793,6.2793,6.305,6.3906,6.4139,6.442,6.5251,6.5435,6.5435,6.5398,6.5398,6.5398,6.5398,6.5325,6.4701,6.3123,6.3649,6.3148,6.0786,6.0566,6.0517,6.0419,6.0456,6.0114,5.9306,5.9306,5.8939,5.818,5.8107,5.807,5.7997,5.7997,5.7997,5.7997,5.7997,5.8033,5.5493,0.0,5.8326,5.7276,5.7833,5.8205,0.0,5.6979,5.761,5.6989,5.736,5.7769,5.7769,5.8279,5.891,5.9505,5.9616,5.9945,6.0874,6.4918,6.8894,7.1971,7.4647,7.5499,7.3641,7.5799,7.7289,7.7289,7.6738,7.6313,7.6093,7.4184,7.3156,7.3413,7.1248,7.0183,7.0367,7.061,7.0206,6.9192,6.9596,6.8862,6.7026,6.6219,6.5338,0.0,0.0,0.0,6.2866,6.3723,6.3992,6.3833,6.4237,6.4127,6.3723,6.3282,6.2976,6.2793,6.2793,6.2793,6.2793,6.2793,6.2793,6.2793,6.2793,6.2793,6.2939,6.3613,6.3466,6.3196,6.3686,6.3466,6.305,6.2866,6.2793,6.2793,6.2793,6.2793,6.305,6.3906,6.4604,6.5264,6.6072,6.6733,6.6916,6.6329,6.6219,6.6219,6.6219,6.5692,6.5141,6.4738,6.4347,6.3576,6.2352,6.2242,6.1692,6.0493,6.097,6.097,6.015,6.0114,6.004,5.9832,5.9233,5.8609,5.7997,5.7997,5.7997,5.7997,5.7997,5.8327,5.4379,5.501,5.5616,5.5343,5.6133,5.6742,5.6014,5.6421,5.684,5.6395,5.6719,5.7197,5.7465,5.7945,5.8517,5.9228,5.9568,6.0533,6.2701,6.585,6.9334,7.3244,7.4845,7.5564,7.5359,7.6518,7.7289,7.7289,7.6225,7.5395,7.5028,7.3083,7.1821,7.1505,7.0587,7.0293,7.066,7.0734,7.033,6.9449,6.9119,6.8325,6.699,6.5852,6.4861,0.0,0.0,0.0,6.2866,6.3723,6.387,6.3539,6.3956,6.3882,6.3466,6.2976,6.2793,6.2793,6.2793,6.2793,6.2793,6.2793,6.2793,6.2793,6.2793,6.2793,6.2903,6.3392,6.3723,6.3894,6.3576,6.3466,6.3319,6.2903,6.2793,6.2793,6.2793,6.2793,6.316,6.442,6.4714,6.5118,6.6292,6.6549,6.6439,6.5999,6.6256,6.6512,6.6512,6.6439,6.6109,6.5362,6.4897,6.4163,6.2903,6.2793,6.2426,6.1545,6.1924,6.1777,6.097,6.0933,6.0786,6.0419,5.96,5.9159,5.9098,5.8364,5.818,5.8535,5.8535,5.8584,5.467,5.5022,5.5256,5.5469,5.6043,5.6534,5.6386,5.621,5.606,5.5949,5.6285,5.6781,5.7215,5.7727,5.8226,5.8597,5.9673,6.1846,6.5878,6.7176,6.9232,7.3352,7.4059,7.4918,7.6592,7.7069,7.7252,7.7142,7.5637,7.4368,7.356,7.1982,7.0499,6.9119,6.9743,7.0367,7.094,7.0257,6.9853,6.9706,6.8361,6.759,6.7297,6.5925,6.4861,0.0,0.0,0.0,6.2866,6.3613,6.3466,6.2866,6.3613,6.3466,6.2793,6.2793,6.2793,6.2793,6.2793,6.2793,6.2793,6.2793,6.2793,6.2793,6.2793,6.2903,6.2976,6.2829,6.382,6.4664,6.349,6.3539,6.3723,6.2976,6.2793,6.2793,6.2793,6.2793,6.327,6.4811,6.4567,6.458,6.6072,6.5742,6.5288,6.5288,6.5888,6.6329,6.6329,6.6916,6.6806,6.5435,6.5178,6.4554,6.3123,6.2866,6.2793,6.2793,6.2793,6.2499,6.1814,6.1777,6.141,6.0603,5.9893,5.982,6.0419,5.9024,5.8731,5.938,5.938,5.9086,5.4161,5.5259,5.5921,5.5246,5.6416,5.7108,5.4773,5.4771,5.501,5.4304,5.5366,5.636,5.6321,5.811,5.934,5.8646,6.181,6.5952,7.0611,7.2394,7.3541,7.4269,7.5793,7.6078,7.4404,7.6078,7.7032,7.635,7.4771,7.3523,7.2716,7.1174,7.0183,6.9926,7.0036,6.9816,6.9252,6.9142,6.8752,6.8068,6.7811,6.7003,6.5655,6.5398,6.4861,0.0,0.0,6.2903,6.2793,6.2939,6.2903,6.2793,6.2939,6.2903,6.2793,6.2793,6.2793,6.2793,6.2793,6.2793,6.2793,6.2793,6.2793,6.2793,6.2793,6.3319,6.3759,6.3013,6.2976,6.3453,6.4591,6.3967,6.2976,6.2829,6.2793,6.2793,6.2793,6.2793,6.3086,6.409,6.4163,6.4383,6.5325,6.5362,6.5288,6.5288,6.5398,6.5472,6.5472,6.5582,6.5582,6.5325,6.4677,6.4163,6.3906,6.3196,6.2793,6.2793,6.2793,6.2756,6.2609,6.2609,6.2254,6.141,6.13,6.097,6.0419,6.0162,6.0089,6.0224,6.0224,6.0529,5.3585,5.4518,5.5265,5.5498,5.6417,5.6721,5.4545,5.4678,5.5119,5.4576,5.5556,5.6685,5.7285,5.9133,6.125,6.316,6.5125,6.7491,7.0652,7.1561,7.2429,7.3896,7.4838,7.5432,7.5652,7.6261,7.6481,7.613,7.4221,7.2899,7.2532,7.0954,6.9706,6.8839,6.9633,6.9082,6.6976,6.7834,6.7834,6.704,6.6623,6.5778,6.464,6.464,6.42,6.3392,0.0,6.2793,6.2793,6.2793,6.2793,6.2793,6.2793,6.2793,6.2793,6.2793,6.2793,6.2793,6.2793,6.2793,6.2793,6.2793,6.2793,6.2793,6.2793,6.3086,6.3429,6.3466,6.3503,6.3576,6.3857,6.338,6.2793,6.2793,6.316,6.3503,6.3503,6.3503,6.387,6.5154,6.469,6.4506,6.5742,6.5582,6.5141,6.4714,6.5411,6.5632,6.4751,6.5411,6.5778,6.5362,6.4971,6.4567,6.4139,6.3723,6.3319,6.2829,6.2793,6.2793,6.2793,6.2793,6.2646,6.2254,6.1814,6.163,6.1692,6.0811,6.0639,6.1043,6.1043,6.1006,5.3002,5.38,5.4489,5.5238,5.5797,5.5902,5.5081,5.4995,5.5154,5.5264,5.6126,5.7125,5.8037,5.9966,6.2769,6.7061,6.8308,6.9441,7.1397,7.1797,7.2569,7.4489,7.4618,7.5212,7.6848,7.646,7.5946,7.5579,7.3634,7.2349,7.1945,7.0587,6.9082,6.748,6.8618,6.7981,6.5325,6.6512,6.6733,6.5925,6.5705,6.4971,6.3796,6.42,6.3796,6.2793,6.2793,6.2793,6.2793,6.2793,6.2793,6.2793,6.2793,6.2793,6.2793,6.2793,6.2793,6.2793,6.2793,6.2939,6.3086,6.3086,6.3086,6.3086,6.3086,6.2976,6.2939,6.3613,6.3796,6.3686,6.3196,6.3086,6.3086,6.3086,6.3613,6.4139,6.4347,6.4383,6.4751,6.5999,6.5228,6.4751,6.5999,6.5692,6.5081,6.4457,6.5411,6.5778,6.453,6.5448,6.5999,6.5362,6.5141,6.4677,6.387,6.3796,6.3503,6.2829,6.2793,6.2793,6.2793,6.2793,6.2793,6.2793,6.2181,6.2181,6.2793,6.1545,6.13,6.1887,6.1863,6.1508,5.2527,5.3548,5.423,5.3868,5.413,5.4856,5.6275,5.5239,5.4343,5.5874,5.678,5.7264,5.7381,5.9886,6.3245,6.7237,7.058,7.3536,7.605,7.7451,7.8115,7.783,7.7319,7.6812,7.624,7.613,7.5469,7.4001,7.301,7.1835,7.033,6.9449,6.8238,6.6623,6.6696,6.6292,6.5288,6.5398,6.5081,6.4286,6.5742,6.5191,6.2939,6.4481,6.4334,6.2793,6.2793,6.2793,6.2793,6.2793,6.2793,6.2793,6.2793,6.2793,6.2793,6.2793,6.2793,6.2793,6.2793,6.3319,6.4029,6.4029,6.4029,6.4029,6.4029,6.3429,6.2793,6.2866,6.2903,6.305,6.3796,6.4029,6.4029,6.4029,6.4066,6.431,6.5031,6.5215,6.5251,6.5362,6.5288,6.5251,6.5362,6.5325,6.5288,6.5215,6.5288,6.5325,6.5215,6.5288,6.5362,6.5288,6.464,6.3833,6.2976,6.2903,6.2866,6.2793,6.2793,6.2793,6.2793,6.2793,6.2793,6.2793,6.2756,6.2756,6.2793,6.2683,6.2646,6.2719,6.2606,6.2506,5.1717,5.2527,5.3301,5.4383,5.4273,5.4188,5.5407,5.6435,5.7275,5.7709,5.9557,6.1203,6.1523,6.3358,6.5798,6.876,7.1897,7.4546,7.6181,7.7121,7.747,7.6927,7.6228,7.5674,7.538,7.4882,7.4368,7.3758,7.2496,7.1284,7.0146,6.9339,6.8164,6.6549,6.7003,6.6623,6.5288,6.6292,6.5902,6.4103,6.5228,6.5007,6.3613,6.4273,6.3906,6.2793,6.2793,6.2793,6.2793,6.2793,6.2793,6.2793,6.2793,6.2793,6.2793,6.2793,6.2793,6.2793,6.2793,6.3013,6.3282,6.3282,6.3282,6.3282,6.3282,6.305,6.2903,6.3466,6.398,6.4334,6.4127,6.4103,6.4249,6.4714,6.5228,6.5668,6.5999,6.6035,6.6182,6.6696,6.6402,6.6219,6.6696,6.6769,6.6623,6.6109,6.6476,6.6439,6.5435,6.5729,6.6035,6.6035,6.5338,6.453,6.3686,6.3123,6.2793,6.2793,6.2793,6.305,6.3576,6.3613,6.3613,6.3613,6.3613,6.3356,6.2793,6.3356,6.3281,6.2716,6.3654,6.3772,5.1014,5.1827,5.2751,5.4025,5.4358,5.4668,5.5901,5.7546,5.9018,5.9737,6.156,6.3092,6.3321,6.4914,6.6859,6.8985,7.225,7.4795,7.5595,7.6193,7.631,7.5801,7.5234,7.4793,7.4551,7.4001,7.3377,7.2606,7.1784,0.0,0.0,6.8458,6.7393,6.5778,6.5999,6.5742,6.4934,6.5999,6.5865,6.4494,6.4787,6.4494,6.3686,6.3992,6.3613,6.2793,6.2793,6.2793,6.2793,6.2793,6.2793,6.2793,6.2793,6.2793,6.2793,6.2793,6.2793,6.2793,6.2793,6.2976,6.3246,6.349,6.3417,6.327,6.349,6.3233,6.2903,6.3503,6.4273,6.4861,6.4567,6.4677,6.4934,6.5215,6.5925,6.6512,6.6512,6.6512,6.6586,6.688,6.6696,6.6659,6.7223,6.7517,6.7517,6.6966,6.737,6.7297,6.6219,6.6549,6.6769,6.6512,6.5778,6.5068,6.453,6.393,6.349,6.3246,6.3196,6.3356,6.3686,6.3686,6.3796,6.4103,6.4103,6.3796,6.3196,6.3758,6.3498,6.264,6.3646,6.3773,5.0548,5.17,5.2679,5.2309,5.4125,5.6487,5.8286,5.8367,5.8858,6.182,6.2313,6.2119,6.1704,6.3726,6.5934,6.7457,7.1524,7.4596,7.4845,7.5356,7.5472,7.4956,7.4867,7.4551,7.378,7.3685,7.2694,7.0293,7.0844,0.0,0.0,6.6476,6.5742,6.4139,6.327,6.3233,6.4103,6.4103,6.4494,6.5288,6.4494,6.3649,6.2829,6.3686,6.3613,6.2793,6.2793,6.2793,6.2793,6.2793,6.2793,6.2793,6.2793,6.2793,6.2793,6.2793,6.2793,6.2793,6.2793,6.3356,6.4213,6.5007,6.4751,6.4249,6.5031,6.4114,6.2793,6.2793,6.3429,6.4273,6.5081,6.5888,6.6292,6.5508,6.5925,6.6512,6.6512,6.6476,6.6256,6.5435,6.5925,6.6476,6.6512,6.715,6.77,6.77,6.77,6.77,6.77,6.77,6.7407,6.6586,6.5778,6.5288,6.5288,6.5288,6.4971,6.4139,6.4103,6.3723,6.2866,6.2793,6.3196,6.4066,6.4103,6.4103,6.4103,6.3875,6.3395,6.259,6.2354,6.2222,5.0158,5.0361,5.1036,5.2408,5.3973,5.5857,5.8502,5.9246,6.0343,6.3914,6.4524,6.4402,6.4238,6.6208,6.7837,6.77,7.0717,7.3335,7.3957,7.4212,7.4218,7.4067,7.3068,7.2481,7.2826,7.1835,7.1101,7.094,6.9596,0.0,0.0,6.5962,6.5191,6.4139,6.442,6.4664,6.4934,6.4934,6.4787,6.4457,6.4213,6.3943,6.3686,6.3356,6.305,6.2793,6.2793,6.2793,6.2793,6.2793,6.2793,6.2793,6.2793,6.2793,6.2793,6.2793,6.2793,6.2793,6.2793,6.2976,6.3233,6.3453,6.338,6.3233,6.3453,6.3196,6.2939,6.3539,6.431,6.5007,6.5251,6.5888,6.6586,6.6916,6.6733,6.6512,6.6512,6.6072,6.5582,6.5362,6.5472,6.5852,6.6402,6.6696,6.704,6.7627,6.77,6.77,6.77,6.77,6.7407,6.6586,6.6292,6.5925,6.5362,6.5288,6.4971,6.4139,6.464,6.4567,6.3759,6.3723,6.3833,6.4103,6.4103,6.3758,6.3033,6.3567,6.3304,6.2341,6.3402,6.3525,5.0327,5.0537,5.1232,5.3048,5.4806,5.6832,5.9861,6.1562,6.3348,6.6026,6.6271,6.5973,6.5804,6.699,6.8017,6.8128,7.033,7.2312,7.312,7.323,7.323,7.323,7.2092,7.149,7.1967,7.0844,6.9889,6.9435,0.0,0.0,0.0,6.4897,6.4457,6.3613,6.404,6.4297,6.4297,6.4297,6.404,6.3576,6.3246,6.3111,6.3111,6.2866,6.2793,6.2793,6.2793,6.2793,6.2793,6.2793,6.2793,6.2793,6.2793,6.2793,6.2793,6.2793,6.2793,6.2793,6.2793,6.2793,6.2866,6.3209,6.3086,6.2866,6.3196,6.305,6.2903,6.3429,6.4163,6.4824,6.4824,6.5411,6.6219,6.7026,6.6623,6.6035,6.6035,6.5411,6.4714,6.4371,6.4591,6.5081,6.5888,6.6292,6.6769,6.759,6.77,6.77,6.77,6.77,6.7517,6.7026,6.699,6.6769,6.6292,6.6256,6.5925,6.5081,6.5521,6.5411,6.4604,6.4286,6.4103,6.4103,6.442,6.4125,6.3205,6.3858,6.353,6.2301,6.3176,6.3247,5.084,5.159,5.2492,5.4071,5.6412,5.9102,6.1969,6.4652,6.6827,6.7679,6.7429,6.7008,6.6675,6.6733,6.7283,6.8678,7.0169,7.1454,7.2165,7.2275,7.2275,7.2275,7.1564,7.1123,7.1197,7.033,6.8898,6.6769,0.0,0.0,0.0,6.3576,6.3613,6.2829,6.2719,6.2683,6.2683,6.2609,6.2572,6.2572,6.1851,6.1496,6.1533,6.2242,6.2609,6.2683,6.2756,6.2756,6.2683,6.2756,6.2756,6.2683,6.2756,6.2793,6.2793,6.2793,6.2793,6.2793,6.2793,6.2793,6.2939,6.3723,6.3466,6.2939,6.3723,6.3429,6.2793,6.2793,6.3429,6.4103,6.4103,6.464,6.5411,6.6219,6.5778,6.5178,6.5178,6.4567,6.3759,6.2939,6.3503,6.4347,6.5141,6.5962,6.6769,6.759,6.77,6.77,6.77,6.77,6.77,6.77,6.77,6.77,6.77,6.77,6.737,6.6549,6.6549,6.6219,6.5325,6.4604,6.4213,6.4213,6.4934,6.4921,6.4187,6.4599,6.4015,6.2503,6.225,6.2078,5.1409,5.1112,5.1416,5.4978,5.8427,6.1491,6.3628,6.5352,6.6392,6.6174,6.7373,6.8268,6.7567,6.8458,6.9229,6.8972,6.9743,7.0403,7.0587,7.0624,7.0624,7.0624,6.9926,6.9655,7.0293,6.8495,6.732,0.0,0.0,0.0,6.387,6.3356,6.2976,6.2793,6.2181,6.1851,6.1851,6.1227,6.0933,0.0,6.075,6.0676,6.0676,6.086,6.1263,6.1887,6.2536,6.2426,6.1924,6.2536,6.2438,6.1924,6.2536,6.2793,6.2793,6.2793,6.2793,6.2793,6.2793,6.2793,6.2829,6.3013,6.2939,6.2829,6.3013,6.2939,6.2793,6.2793,6.3429,6.4103,6.4103,6.4249,6.4567,6.5375,6.4934,6.4347,6.4347,6.3686,6.3013,6.2829,6.3503,6.4347,6.5141,6.5962,6.6769,6.759,6.77,6.77,6.77,6.77,6.77,6.77,6.77,6.77,6.77,6.77,6.737,6.6549,6.71,6.6806,6.5362,6.5141,6.5044,6.5044,6.5215,6.5176,6.4888,6.4981,6.4396,6.3184,6.313,6.2694,5.1884,5.2036,5.2782,5.6496,5.9438,6.1837,6.3611,6.4698,6.5403,6.5534,6.7076,6.8172,6.7297,6.8141,6.8678,6.7871,6.8752,6.9522,6.9522,6.9853,7.011,7.011,6.9376,6.8898,6.8949,6.7467,6.6329,0.0,0.0,6.3735,6.2964,6.2475,6.2071,6.1655,6.1227,6.1043,6.1043,6.0603,6.0419,6.0419,6.0003,5.96,5.9281,6.0052,6.0639,6.1043,6.1484,6.141,6.1043,6.1471,6.1398,6.108,6.1471,6.1655,6.1655,6.1655,6.1875,6.2218,6.2218,6.2462,6.2793,6.2793,6.2793,6.2793,6.2793,6.2793,6.2793,6.2793,6.3123,6.3466,6.3466,6.3466,6.3576,6.4004,6.3783,6.3576,6.4029,6.3429,6.2793,6.2793,6.3172,6.3723,6.4567,6.5705,6.6769,6.759,6.77,6.77,6.77,6.77,6.77,6.77,6.77,6.77,6.77,6.77,6.7517,6.7113,6.748,6.7333,6.6476,6.6439,6.6109,6.5325,6.5692,6.5666,6.5197,6.543,6.504,6.4075,6.3939,6.361,5.2028,5.3311,5.4936,5.7924,5.9743,6.1185,6.278,6.3553,6.4229,6.5063,6.6438,6.7208,6.6429,6.6843,6.7076,6.6402,6.743,6.8261,6.8261,6.8862,6.9265,6.9265,6.8678,6.8017,6.737,6.6549,6.5485,0.0,0.0,6.3001,6.1484,6.1374,6.108,6.0407,6.026,6.0187,6.0187,6.0052,5.9979,5.9979,5.9306,5.8646,5.8033,5.9391,6.004,6.0187,6.0346,6.0309,6.0187,6.0346,6.0309,6.0224,6.0346,6.0419,6.0419,6.0419,6.0823,6.1374,6.1374,6.1924,6.2572,6.2572,6.2683,6.2793,6.2793,6.2793,6.2793,6.2793,6.2793,6.2793,6.2793,6.2793,6.2793,6.2793,6.2793,6.3013,6.3723,6.3319,6.2793,6.2793,6.3013,6.349,6.4347,6.5742,6.6916,6.759,6.77,6.77,6.77,6.77,6.77,6.77,6.77,6.77,6.77,6.77,6.77,6.77,6.77,6.77,6.77,6.77,6.7076,6.5729,6.6366,6.6366,6.5742,6.6075,6.5816,6.5009,6.4746,6.4533,5.1218,5.372,5.6364,5.809,5.9244,6.0326,6.1698,6.2621,6.337,6.4153,6.4997,6.5608,6.5485,6.5545,6.5582,6.5472,6.5618,6.5765,6.5765,6.5875,6.5949,6.5949,6.5839,6.5729,6.5618,6.4897,6.4016,0.0,6.2328,6.152,6.0603,6.0566,6.0529,6.0419,5.971,5.938,5.938,5.8657,5.8327,5.8327,5.8217,5.8107,5.7997,5.8217,5.8694,5.9416,6.0114,6.0003,5.9416,6.0114,6.0003,5.9416,6.0114,6.0419,6.0419,6.0419,6.0456,6.0566,6.0566,6.108,6.1741,6.1741,6.2218,6.2793,6.2793,6.2793,6.2793,6.2793,6.2793,6.2793,6.2793,6.2793,6.2793,6.2793,6.2793,6.2829,6.2939,6.2866,6.2793,6.2793,6.3967,6.5215,6.6035,6.693,6.759,6.7664,6.77,6.77,6.77,6.77,6.77,6.77,6.77,6.77,6.77,6.77,6.77,6.77,6.77,6.77,6.77,6.77,6.759,6.737,6.748,6.748,6.737,6.7318,6.6802,6.5825,6.5694,6.519,5.2169,5.3735,5.531,5.727,5.8341,5.9161,6.0239,6.1028,6.1777,6.2536,6.2989,6.3503,6.4457,6.5007,6.4995,6.404,6.4701,6.5141,6.4677,6.5007,6.5288,6.5288,6.5288,6.4921,6.4004,6.3576,6.2842,0.0,6.1117,6.0566,5.9783,5.9747,5.9526,5.9061,5.8731,5.8547,5.8547,5.818,5.7997,5.7997,5.7997,5.7997,5.7997,5.7997,5.818,5.8535,5.8914,5.8841,5.8547,5.8914,5.8841,5.8547,5.8914,5.9061,5.9061,5.9061,5.9355,5.9747,5.9747,6.0566,6.1606,6.1606,6.2144,6.2793,6.2793,6.2793,6.2793,6.2793,6.2793,6.2793,6.2793,6.2793,6.2793,6.2793,6.2793,6.2793,6.2793,6.2793,6.2793,6.2793,6.3783,6.4897,6.5705,6.6476,6.7187,6.7627,6.77,6.77,6.77,6.77,6.77,6.77,6.77,6.77,6.77,6.77,6.77,6.77,6.77,6.77,6.77,6.77,6.77,6.77,6.77,6.77,6.77,6.747,6.7098,6.6663,6.646,6.6134,5.2185,5.3045,5.3866,5.5971,5.7213,5.813,5.9138,5.9756,6.0309,6.1117,6.13,6.1667,6.2915,6.398,6.4187,6.2719,6.3527,6.4163,6.3552,6.398,6.4444,6.4628,6.4481,6.3857,6.2609,6.2316,6.1618,0.0,6.0114,5.9747,5.8939,5.8902,5.8609,5.8033,5.7997,5.7997,5.7997,5.7997,5.7997,5.7997,5.7997,5.7997,5.7997,5.7997,5.7997,5.7997,5.7997,5.7997,5.7997,5.7997,5.7997,5.7997,5.7997,5.7997,5.7997,5.7997,5.84,5.8939,5.9123,6.0114,6.1337,6.152,6.2144,6.2793,6.2793,6.2793,6.2793,6.2793,6.2793,6.2793,6.2793,6.2793,6.2793,6.2793,6.2793,6.2793,6.2793,6.2793,6.2866,6.3086,6.3833,6.464,6.5472,6.6256,6.699,6.7627,6.77,6.77,6.77,6.77,6.77,6.77,6.77,6.77,6.77,6.77,6.77,6.77,6.77,6.77,6.77,6.77,6.7687,6.7647,6.7647,6.7647,6.7647,6.7308,6.7154,6.714,6.6918,6.6786,4.988,5.121,5.2722,5.427,5.5859,5.7446,5.8864,5.9233,5.949,6.0297,6.0456,6.0493,6.0566,6.1875,6.2646,6.1777,6.1753,6.1777,6.1753,6.179,6.2071,6.2829,6.2254,6.1741,6.1667,6.097,6.015,0.0,5.9269,5.8902,5.8107,5.807,5.8033,5.7997,5.7997,5.7997,5.7997,5.7997,5.7997,5.7997,5.7997,5.7997,5.7997,5.7997,5.7997,5.7997,5.7997,5.7997,5.7997,5.7997,5.7997,5.7997,5.7997,5.7997,5.7997,5.7997,5.8033,5.818,5.8939,5.9747,6.0603,6.1337,6.2144,6.2793,6.2793,6.2793,6.2793,6.2793,6.2793,6.2793,6.2793,6.2793,6.2793,6.2793,6.2793,6.2793,6.2793,6.2793,6.305,6.387,6.4677,6.5472,6.6292,6.7113,6.7664,6.77,6.77,6.77,6.77,6.77,6.77,6.77,6.77,6.77,6.77,6.77,6.77,6.77,6.77,6.77,6.77,6.77,6.7633,6.7497,6.7497,6.7497,6.7497,6.7176,6.7033,6.7019,6.6859,6.6786,4.9279,4.9804,5.0475,5.3051,5.4122,5.5104,5.7189,5.7655,5.8022,5.9343,5.9636,5.9783,6.0297,6.0848,6.119,6.0896,6.0823,6.0823,6.0823,6.0823,6.0933,6.1215,6.1006,6.0639,6.0114,5.9783,5.9306,0.0,0.0,5.829,5.8033,5.7997,5.7997,5.7997,5.7997,5.7997,5.7997,5.7997,5.7997,5.7997,5.7997,5.7997,5.7997,5.7997,5.7997,5.7997,5.7997,5.7997,5.7997,5.7997,5.7997,5.7997,5.7997,5.7997,5.7997,5.7997,5.7997,5.8033,5.8327,5.8939,5.9673,5.9967,6.0591,6.1374,6.1887,6.2034,6.2144,6.2646,6.2793,6.2793,6.2793,6.2793,6.2793,6.2793,6.2793,6.2939,6.3503,6.3613,6.3723,6.4029,6.5154,6.6145,6.6439,6.7187,6.77,6.77,6.77,6.77,6.77,6.77,6.77,6.77,6.77,6.77,6.77,6.77,6.77,6.77,6.77,6.77,6.77,6.7606,6.7781,6.8201,6.8041,6.7743,6.7294,6.7083,6.7019,6.7019,6.6859,6.6786,4.8356,4.8622,4.9154,5.206,5.2821,5.3445,5.5868,5.6198,5.6444,5.8058,5.8389,5.8646,5.9465,5.9612,5.9685,5.993,6.0003,6.0003,6.0003,6.0003,6.0114,6.0382,6.015,5.9673,5.8866,5.8535,5.8168,0.0,0.0,0.0,5.7997,5.7997,5.7997,5.7997,5.7997,5.7886,5.7593,5.7593,5.7593,5.7593,5.7593,5.774,5.7997,5.7997,5.7997,5.7997,5.7997,5.7997,5.7997,5.7997,5.7997,5.7997,5.7997,5.7997,5.7997,5.7997,5.7997,5.8033,5.8327,5.8756,5.9233,5.9526,6.015,6.0896,6.1447,6.1777,6.2108,6.2646,6.2793,6.2793,6.2793,6.2793,6.2793,6.2793,6.3013,6.3392,6.3992,6.4103,6.4249,6.48,6.5778,6.6586,6.6843,6.737,6.77,6.77,6.77,6.77,6.77,6.77,6.77,6.77,6.77,6.77,6.77,6.77,6.7811,6.8104,6.7847,6.7784,6.8023,6.7671,6.7684,6.8084,6.816,6.7979,6.7455,6.739,6.7186,6.6932,6.683,6.6786,0.0,0.0,0.0,5.1279,5.1914,5.2538,5.4961,5.4887,5.4803,5.6407,5.6737,5.6994,5.7813,5.796,5.8217,5.9013,5.9159,5.9148,5.9148,5.9148,5.9453,6.0236,5.9636,5.8829,5.8033,5.7226,5.6774,0.0,5.6774,5.7152,5.7923,5.796,5.796,5.796,5.7923,5.7556,5.6811,5.6774,5.6774,5.6811,5.6811,5.7226,5.7997,5.7997,5.7997,5.7997,5.7997,5.7997,5.7997,5.7997,5.7997,5.7997,5.7997,5.7997,5.7997,5.7997,5.7997,5.8107,5.8902,5.9148,5.9306,6.0114,6.0896,6.152,6.1594,6.2144,6.2756,6.2793,6.2793,6.2793,6.2793,6.2793,6.2793,6.2793,6.3466,6.4103,6.4139,6.4139,6.4653,6.6182,6.6512,6.6769,6.759,6.77,6.77,6.77,6.77,6.77,6.77,6.77,6.77,6.77,6.77,6.77,6.77,6.77,6.8017,6.8825,6.8128,6.7986,6.864,6.7909,6.7367,6.7092,6.7804,6.8166,6.8075,6.8039,6.7619,6.6858,6.6858,6.6858,4.5149,0.0,0.0,0.0,0.0,0.0,5.2574,5.2831,5.3115,5.473,5.5537,5.6161,5.6969,5.7152,5.7178,5.7435,5.7948,5.8327,5.8327,5.8327,5.84,5.8621,5.7948,5.7361,5.7141,5.6381,0.0,0.0,5.6455,5.6884,5.7104,5.7152,5.7152,5.7152,5.6565,5.6418,5.6811,5.6235,5.6235,5.6811,5.6811,5.7226,5.7997,5.7997,5.7997,5.7997,5.7997,5.7997,5.7997,5.7997,5.7997,5.7997,5.7997,5.7997,5.7997,5.7997,5.7997,5.8033,5.8253,5.8327,5.8474,5.9269,5.9673,6.0077,6.1263,6.1741,6.2034,6.2646,6.2793,6.2793,6.2793,6.2793,6.2793,6.2793,6.3466,6.4237,6.4861,6.5411,6.5962,6.6402,6.6953,6.7444,6.7664,6.77,6.77,6.77,6.77,6.77,6.77,6.77,6.77,6.77,6.77,6.77,6.77,6.77,6.7811,6.8031,6.7753,6.7634,6.7813,6.737,6.7651,6.8712,6.8282,6.8606,6.9735,6.9155,6.8452,6.7692,6.7692,6.7692,4.4966,4.5553,4.6361,4.8343,0.0,0.0,5.1132,5.1253,5.1473,5.3078,5.4032,5.484,5.5647,5.5794,5.6003,5.6701,5.6895,5.7017,5.7017,5.7017,5.7116,5.7446,5.7068,5.6664,5.6345,5.6161,5.5831,5.5144,5.5831,5.6308,5.6308,5.6308,5.6308,5.6308,5.5842,5.5658,5.5794,5.5317,5.5317,5.5794,5.5794,5.6235,5.7017,5.7336,5.7483,5.7519,5.785,5.7997,5.7997,5.7997,5.7997,5.7997,5.7997,5.7997,5.7997,5.7997,5.7997,5.7997,5.7997,5.7997,5.807,5.8535,5.9159,5.9893,6.0823,6.1557,6.2218,6.2683,6.2793,6.2793,6.2793,6.2793,6.2903,6.3282,6.398,6.4824,6.5632,6.6439,6.699,6.699,6.737,6.77,6.77,6.77,6.77,6.77,6.77,6.77,6.77,6.77,6.77,6.77,6.77,6.77,6.77,6.77,6.782,6.8083,6.7744,6.7574,6.7777,6.7592,6.792,6.879,6.8606,6.914,7.0387,6.959,6.8974,6.8488,6.8488,6.8488,4.5553,4.5847,4.6443,4.8756,4.883,0.0,5.0168,4.9968,4.9894,5.1436,5.238,5.3177,5.3995,5.4216,5.473,5.604,5.5831,5.5548,5.5842,5.5879,5.6136,5.6847,5.6847,5.6528,5.5805,5.6308,5.6051,5.4509,5.5071,5.5475,5.5475,5.5475,5.5475,5.5475,5.5365,5.5034,5.4399,5.4326,5.4326,5.4399,5.4399,5.4803,5.5622,5.6418,5.6811,5.6847,5.7666,5.7997,5.7997,5.7997,5.7997,5.7997,5.7997,5.7997,5.7997,5.7997,5.7997,5.7997,5.7997,5.7997,5.7997,5.8107,5.9171,6.0407,6.0529,6.1582,6.2793,6.2793,6.2793,6.2793,6.2793,6.2793,6.3013,6.3759,6.464,6.5508,6.6219,6.7076,6.77,6.77,6.77,6.77,6.77,6.77,6.77,6.77,6.77,6.77,6.77,6.77,6.77,6.77,6.7687,6.7674,6.7674,6.766,6.7886,6.8517,6.7844,6.7682,6.8175,6.8204,6.8224,6.8271,6.9047,6.9771,7.0387,6.9663,6.9373,6.9445,6.9373,6.9337,4.4709,0.0,0.0,0.0,0.0,0.0,4.87,4.8663,4.882,4.9858,5.0702,5.1499,5.2307,5.3004,5.3324,5.3004,5.3885,5.5317,5.7262,5.7531,5.7593,5.774,5.7189,5.6737,5.6602,5.6124,5.5438,5.4473,5.4546,5.462,5.462,5.462,5.462,5.462,5.3995,5.3922,5.4399,5.3765,5.3765,5.4399,5.4399,5.4803,5.5622,5.6418,5.6811,5.6847,5.7666,5.7997,5.7997,5.7997,5.7997,5.7997,5.7997,5.7997,5.7997,5.7997,5.7997,5.7997,5.7997,5.7997,5.8107,5.8756,5.96,6.0529,6.1153,6.2034,6.2793,6.2793,6.2793,6.2793,6.2793,6.2793,6.2829,6.3013,6.4187,6.5325,6.5508,6.6659,6.77,6.77,6.77,6.77,6.77,6.77,6.77,6.77,6.77,6.77,6.77,6.77,6.77,6.77,6.7593,6.7524,6.7524,6.7378,6.7353,6.7471,6.7249,6.744,6.8182,6.8086,6.8627,6.9916,7.0661,7.0842,7.0387,7.0242,7.046,7.1024,7.046,7.017,0.0,0.0,0.0,4.7489,0.0,0.0,0.0,4.7672,4.7462,4.8719,4.926,4.9811,5.0665,5.1143,5.1683,5.2454,5.2931,5.4032,5.6466,5.6796,5.6943,5.7336,5.7042,5.6811,5.6811,5.6455,5.5684,5.4473,5.4399,5.4216,5.3801,5.3801,5.3801,5.3801,5.3398,5.3398,5.3801,5.3398,5.3398,5.3801,5.3801,5.3995,5.4436,5.5647,5.6198,5.6271,5.7483,5.7997,5.7997,5.7997,5.7997,5.7997,5.7997,5.7997,5.7997,5.7997,5.7997,5.7997,5.7997,5.7997,5.807,5.8462,5.9159,5.993,6.075,6.1838,6.2793,6.2793,6.2793,6.2793,6.2793,6.2793,6.3013,6.3857,6.4701,6.5508,6.6329,6.715,6.77,6.77,6.77,6.77,6.77,6.77,6.77,6.77,6.77,6.77,6.77,6.77,6.7674,6.7593,6.7524,6.7456,6.7373,6.7252,6.7168,6.7097,6.7026,6.7339,6.8049,6.8425,6.9192,7.0387,7.077,7.0786,7.0387,7.0786,7.1132,7.1494,7.1132,7.0951,0.0,0.0,0.0,0.0,0.0,4.7223,0.0,0.0,0.0,4.7783,4.8186,4.8526,4.9233,4.949,5.0188,5.1966,5.2234,0.0,0.0,5.5291,0.0,5.6271,5.6334,5.6334,5.6334,5.6423,5.5809,5.4289,5.407,5.3724,5.3004,5.2957,5.2957,5.2957,5.3104,5.3214,5.3214,5.3214,5.3214,5.3214,5.3214,5.3214,5.3251,5.4876,5.5511,5.5475,5.7226,5.7923,5.7776,5.7923,5.7997,5.7997,5.7997,5.7997,5.7997,5.7997,5.7997,5.7997,5.7997,5.7997,5.7997,5.7997,5.8657,5.96,6.037,6.1655,6.2793,6.2793,6.2793,6.2793,6.2793,6.2793,6.3123,6.4481,6.5068,6.5655,6.6966,6.748,6.77,6.77,6.77,6.77,6.77,6.77,6.77,6.77,6.77,6.77,6.77,6.7674,6.762,6.7497,6.7574,6.7564,6.7401,6.7504,6.7542,6.7412,6.7412,6.7752,6.8416,6.9228,6.988,7.0387,7.0532,7.0604,7.0604,7.1205,7.1494,7.1494,7.1494,7.1494,0.0,0.0,0.0,0.0,4.7186,0.0,0.0,0.0,4.7003,4.7186,0.0,4.8333,4.8416,0.0,0.0,4.892,5.1232,5.2931,5.2464,5.4263,5.5365,5.4766,5.4656,5.4656,5.4656,5.4932,5.4623,5.3429,5.2957,5.2535,5.2154,5.2134,5.2134,5.2134,5.281,5.3214,5.3214,5.3214,5.3214,5.3214,5.3214,5.3214,5.3251,5.4876,5.5218,5.4656,5.6969,5.7593,5.7005,5.7703,5.7997,5.7997,5.7997,5.7997,5.7997,5.7997,5.7997,5.7997,5.7997,5.7997,5.7997,5.7997,5.9024,6.0419,6.1227,6.2108,6.2793,6.2793,6.2793,6.2793,6.2793,6.2793,6.2866,6.305,6.4224,6.5362,6.5508,6.6696,6.77,6.77,6.77,6.77,6.77,6.77,6.77,6.77,6.77,6.77,6.77,6.7593,6.7534,6.7483,6.7889,6.8102,6.8088,6.8623,6.8984,6.8968,6.8968,6.9279,7.0097,7.0842,7.0951,7.0423,7.1024,7.1386,7.1386,7.1458,7.1494,7.1494,7.1494,7.1494,0.0,0.0,0.0,0.0,0.0,0.0,4.5993,0.0,4.5975,0.0,0.0,0.0,0.0,0.0,0.0,0.0,5.0215,5.1169,0.0,0.0,5.3225,5.4252,0.0,0.0,5.3088,0.0,0.0,0.0,5.2923,5.2944,5.14,5.1756,5.1987,5.1987,5.2344,5.2747,5.3214,5.3214,5.3214,5.3214,5.3214,5.3214,5.3251,5.4363,5.473,5.4509,5.6455,5.7116,5.6847,5.7666,5.7997,5.7997,5.7997,5.7997,5.7997,5.7997,5.7997,5.7997,5.7997,5.7997,5.7997,5.7997,5.9098,6.0456,6.0786,6.1802,6.2793,6.2793,6.2793,6.2793,6.2793,6.2793,6.2939,6.3429,6.4457,6.5435,6.5888,6.688,6.77,6.77,6.7633,6.7579,6.7579,6.7647,6.7674,6.7593,6.7579,6.7538,6.7419,6.735,6.7449,6.7875,6.8073,6.8356,6.8754,6.9056,6.9192,6.9192,6.9626,7.0061,7.0387,7.0242,7.0444,7.1024,7.0444,7.0589,7.1494,7.1494,7.1494,7.1494,7.1494,7.1494,4.7443,0.0,0.0,0.0,0.0,0.0,0.0,0.0,0.0,0.0,0.0,0.0,0.0,0.0,0.0,4.9123,0.0,4.9784,0.0,5.0655,0.0,0.0,0.0,0.0,0.0,5.323,5.324,5.0959,5.2494,5.2762,5.0912,5.1132,5.1546,5.1987,5.1987,5.238,5.3177,5.3214,5.3214,5.3214,5.3214,5.3214,5.3214,5.4032,5.4289,5.4179,5.5757,5.6455,5.6528,5.7336,5.7813,5.7997,5.7997,5.7997,5.7997,5.7997,5.7997,5.7997,5.7997,5.7997,5.7997,5.7997,5.9098,6.0419,6.0419,6.1508,6.2793,6.2793,6.2793,6.2793,6.2793,6.2793,6.2976,6.3576,6.453,6.5472,6.6035,6.699,6.7687,6.7647,6.7552,6.747,6.7428,6.7511,6.7538,6.7428,6.7414,6.7446,6.7516,6.7496,6.7752,6.8436,6.8683,6.9007,6.9497,6.9699,6.9844,6.9844,7.0206,7.0315,7.0097,6.9518,6.9626,7.0517,6.988,7.0097,7.1205,7.1422,7.1494,7.1494,7.1494,7.1494,0.0,0.0,0.0,4.6324,0.0,0.0,0.0,0.0,4.6104,0.0,0.0,0.0,0.0,0.0,0.0,4.8333,4.905,0.0,0.0,0.0,0.0,0.0,0.0,0.0,0.0,5.257,5.2897,5.0942,5.1156,5.1203,5.0822,5.0078,5.0372,5.195,5.1987,5.238,5.3177,5.3214,5.3214,5.3214,5.3214,5.3214,5.3214,5.4032,5.3995,5.3324,5.495,5.5658,5.5695,5.6528,5.7299,5.7997,5.7997,5.7997,5.7997,5.7997,5.7997,5.7997,5.7997,5.7997,5.7997,5.7997,5.9098,6.0419,6.0419,6.1508,6.2793,6.2793,6.2793,6.2793,6.2793,6.2793,6.2793,6.2829,6.4114,6.5288,6.5325,6.6586,6.766,6.7511,6.7483,6.7428,6.7238,6.7224,6.7224,6.721,6.721,6.7502,6.8254,6.8233,6.8458,6.9294,6.9936,7.0351,7.0351,7.1024,7.1422,7.1422,7.0786,7.0061,6.9264,6.9192,6.8866,6.8111,6.9575,7.0387,7.046,7.1132,7.1494,7.1494,7.1494,7.1494,0.0,0.0,4.8756,4.7122,0.0,0.0,0.0,0.0,0.0,0.0,0.0,0.0,0.0,0.0,4.8296,4.8296,4.8563,4.8746,0.0,4.8967,4.926,4.949,4.9821,4.9784,0.0,0.0,0.0,4.9233,4.9774,4.9645,4.8406,4.9664,5.0408,5.0418,5.0922,5.1867,5.3177,5.2674,5.2674,5.3214,5.3214,5.3214,5.3214,5.3471,5.3471,5.3287,5.4913,5.5585,5.5695,5.7042,5.774,5.7997,5.7997,5.7997,5.7997,5.7997,5.7997,5.7997,5.7997,5.7997,5.8107,5.8609,5.9526,6.0493,6.1043,6.1961,6.2793,6.2793,6.2793,6.2793,6.2793,6.2793,6.2793,6.2793,6.4077,6.5262,6.5147,6.6416,6.7511,6.7359,6.7247,6.7162,6.7069,6.6968,6.6976,6.704,6.7054,6.7353,6.8036,6.8086,6.8564,6.9905,7.0273,7.0604,7.1096,7.135,7.1494,7.1494,7.1277,7.077,7.0025,6.9481,6.9083,6.8793,6.9337,6.988,7.0387,7.1132,7.1494,7.1494,7.1494,7.1494,4.8673,4.871,0.0,4.7452,4.6718,0.0,4.5691,0.0,0.0,0.0,0.0,0.0,0.0,0.0,0.0,4.7535,4.7672,4.7783,0.0,4.7672,4.8076,4.86,4.9197,4.949,0.0,4.9701,4.9674,4.882,4.927,4.8976,0.0,0.0,4.9811,4.961,5.0115,5.1132,5.2737,5.227,5.2417,5.3214,5.3214,5.3214,5.3214,5.3214,5.3214,5.3287,5.4583,5.5328,5.5695,5.7042,5.774,5.7997,5.7997,5.7997,5.7997,5.7997,5.7997,5.7997,5.7997,5.7997,5.8107,5.8609,5.949,6.0493,6.1006,6.1912,6.2866,6.316,6.305,6.2866,6.316,6.3013,6.278,6.273,6.4052,6.5236,6.4978,6.6272,6.7414,6.7168,6.7054,6.699,6.6947,6.6845,6.6815,6.6918,6.7186,6.7614,6.8322,6.8669,6.9358,7.0641,7.077,7.0987,7.1458,7.1494,7.1494,7.1494,7.1241,7.0879,7.0423,6.9373,6.9047,6.9626,6.9337,6.9735,7.077,7.1277,7.1494,7.1494,7.1494,7.1494]}]]